﻿<?xml version="1.0" encoding="utf-8"?><gpx creator="Garmin Desktop App" version="1.1" xsi:schemaLocation="http://www.topografix.com/GPX/1/1 http://www.topografix.com/GPX/1/1/gpx.xsd http://www.garmin.com/xmlschemas/WaypointExtension/v1 http://www8.garmin.com/xmlschemas/WaypointExtensionv1.xsd http://www.garmin.com/xmlschemas/TrackPointExtension/v1 http://www.garmin.com/xmlschemas/TrackPointExtensionv1.xsd http://www.garmin.com/xmlschemas/GpxExtensions/v3 http://www8.garmin.com/xmlschemas/GpxExtensionsv3.xsd http://www.garmin.com/xmlschemas/ActivityExtension/v1 http://www8.garmin.com/xmlschemas/ActivityExtensionv1.xsd http://www.garmin.com/xmlschemas/AdventuresExtensions/v1 http://www8.garmin.com/xmlschemas/AdventuresExtensionv1.xsd http://www.garmin.com/xmlschemas/PressureExtension/v1 http://www.garmin.com/xmlschemas/PressureExtensionv1.xsd http://www.garmin.com/xmlschemas/TripExtensions/v1 http://www.garmin.com/xmlschemas/TripExtensionsv1.xsd http://www.garmin.com/xmlschemas/TripMetaDataExtensions/v1 http://www.garmin.com/xmlschemas/TripMetaDataExtensionsv1.xsd http://www.garmin.com/xmlschemas/ViaPointTransportationModeExtensions/v1 http://www.garmin.com/xmlschemas/ViaPointTransportationModeExtensionsv1.xsd http://www.garmin.com/xmlschemas/CreationTimeExtension/v1 http://www.garmin.com/xmlschemas/CreationTimeExtensionsv1.xsd http://www.garmin.com/xmlschemas/AccelerationExtension/v1 http://www.garmin.com/xmlschemas/AccelerationExtensionv1.xsd http://www.garmin.com/xmlschemas/PowerExtension/v1 http://www.garmin.com/xmlschemas/PowerExtensionv1.xsd http://www.garmin.com/xmlschemas/VideoExtension/v1 http://www.garmin.com/xmlschemas/VideoExtensionv1.xsd" xmlns="http://www.topografix.com/GPX/1/1" xmlns:xsi="http://www.w3.org/2001/XMLSchema-instance" xmlns:wptx1="http://www.garmin.com/xmlschemas/WaypointExtension/v1" xmlns:gpxtrx="http://www.garmin.com/xmlschemas/GpxExtensions/v3" xmlns:gpxtpx="http://www.garmin.com/xmlschemas/TrackPointExtension/v1" xmlns:gpxx="http://www.garmin.com/xmlschemas/GpxExtensions/v3" xmlns:trp="http://www.garmin.com/xmlschemas/TripExtensions/v1" xmlns:adv="http://www.garmin.com/xmlschemas/AdventuresExtensions/v1" xmlns:prs="http://www.garmin.com/xmlschemas/PressureExtension/v1" xmlns:tmd="http://www.garmin.com/xmlschemas/TripMetaDataExtensions/v1" xmlns:vptm="http://www.garmin.com/xmlschemas/ViaPointTransportationModeExtensions/v1" xmlns:ctx="http://www.garmin.com/xmlschemas/CreationTimeExtension/v1" xmlns:gpxacc="http://www.garmin.com/xmlschemas/AccelerationExtension/v1" xmlns:gpxpx="http://www.garmin.com/xmlschemas/PowerExtension/v1" xmlns:vidx1="http://www.garmin.com/xmlschemas/VideoExtension/v1">

  <metadata>
    <link href="http://www.garmin.com">
      <text>Garmin International</text>
    </link>
    <time>2025-10-16T13:48:36Z</time>
    <bounds maxlat="52.444829028099775" maxlon="8.039924036711454" minlat="52.277910970151424" minlon="7.917177015915513" />
  </metadata>

  <trk>
    <name>20260406Bramsche</name>
    <extensions>
      <gpxx:TrackExtension>
        <gpxx:DisplayColor>DarkGray</gpxx:DisplayColor>
      </gpxx:TrackExtension>
    </extensions>
    <trkseg>
      <trkpt lat="52.277910970151424" lon="8.039854969829321">
        <ele>69.296875</ele>
        <time>2025-10-08T08:06:33Z</time>
      </trkpt>
      <trkpt lat="52.278124038130045" lon="8.039862010627985">
        <ele>69.2890625</ele>
        <time>2025-10-08T08:06:41Z</time>
      </trkpt>
      <trkpt lat="52.278343979269266" lon="8.039924036711454">
        <ele>69.44921875</ele>
        <time>2025-10-08T08:06:48Z</time>
      </trkpt>
      <trkpt lat="52.278530979529023" lon="8.039891012012959">
        <ele>69.71484375</ele>
        <time>2025-10-08T08:06:56Z</time>
      </trkpt>
      <trkpt lat="52.278648996725678" lon="8.039599992334843">
        <ele>70.203125</ele>
        <time>2025-10-08T08:07:02Z</time>
      </trkpt>
      <trkpt lat="52.278723008930683" lon="8.039253987371922">
        <ele>70.70703125</ele>
        <time>2025-10-08T08:07:08Z</time>
      </trkpt>
      <trkpt lat="52.278798026964068" lon="8.038956010714173">
        <ele>71.15625</ele>
        <time>2025-10-08T08:07:14Z</time>
      </trkpt>
      <trkpt lat="52.278987960889935" lon="8.038686029613018">
        <ele>71.6640625</ele>
        <time>2025-10-08T08:07:50Z</time>
      </trkpt>
      <trkpt lat="52.279121987521648" lon="8.038439014926553">
        <ele>71.31640625</ele>
        <time>2025-10-08T08:07:54Z</time>
      </trkpt>
      <trkpt lat="52.279278980568051" lon="8.038200968876481">
        <ele>70.765625</ele>
        <time>2025-10-08T08:07:58Z</time>
      </trkpt>
      <trkpt lat="52.279427004978061" lon="8.037999970838428">
        <ele>70.4140625</ele>
        <time>2025-10-08T08:08:02Z</time>
      </trkpt>
      <trkpt lat="52.279677959159017" lon="8.037692019715905">
        <ele>70.14453125</ele>
        <time>2025-10-08T08:09:23Z</time>
      </trkpt>
      <trkpt lat="52.279894966632128" lon="8.037439975887537">
        <ele>70.390625</ele>
        <time>2025-10-08T08:09:29Z</time>
      </trkpt>
      <trkpt lat="52.28006998077035" lon="8.037259010598064">
        <ele>70.62109375</ele>
        <time>2025-10-08T08:09:33Z</time>
      </trkpt>
      <trkpt lat="52.280278019607067" lon="8.037063041701913">
        <ele>70.828125</ele>
        <time>2025-10-08T08:09:37Z</time>
      </trkpt>
      <trkpt lat="52.280453033745289" lon="8.036890039220452">
        <ele>71.03125</ele>
        <time>2025-10-08T08:09:41Z</time>
      </trkpt>
      <trkpt lat="52.280610026791692" lon="8.036715025082231">
        <ele>71.42578125</ele>
        <time>2025-10-08T08:09:45Z</time>
      </trkpt>
      <trkpt lat="52.280711028724909" lon="8.036429034546018">
        <ele>72.78125</ele>
        <time>2025-10-08T08:09:53Z</time>
      </trkpt>
      <trkpt lat="52.280915966257453" lon="8.036253014579415">
        <ele>72.9296875</ele>
        <time>2025-10-08T08:09:59Z</time>
      </trkpt>
      <trkpt lat="52.281125010922551" lon="8.036019997671247">
        <ele>73.2578125</ele>
        <time>2025-10-08T08:10:04Z</time>
      </trkpt>
      <trkpt lat="52.281293990090489" lon="8.035869039595127">
        <ele>73.359375</ele>
        <time>2025-10-08T08:10:08Z</time>
      </trkpt>
      <trkpt lat="52.281440002843738" lon="8.035669969394803">
        <ele>74.09375</ele>
        <time>2025-10-08T08:10:12Z</time>
      </trkpt>
      <trkpt lat="52.281587021425366" lon="8.035481963306665">
        <ele>74.93359375</ele>
        <time>2025-10-08T08:10:16Z</time>
      </trkpt>
      <trkpt lat="52.281743008643389" lon="8.035291023552418">
        <ele>75.59765625</ele>
        <time>2025-10-08T08:10:20Z</time>
      </trkpt>
      <trkpt lat="52.281876029446721" lon="8.035068986937404">
        <ele>76.23828125</ele>
        <time>2025-10-08T08:10:24Z</time>
      </trkpt>
      <trkpt lat="52.282032016664743" lon="8.034868994727731">
        <ele>76.37890625</ele>
        <time>2025-10-08T08:10:28Z</time>
      </trkpt>
      <trkpt lat="52.282217005267739" lon="8.034807974472642">
        <ele>75.8359375</ele>
        <time>2025-10-08T08:10:32Z</time>
      </trkpt>
      <trkpt lat="52.282406017184258" lon="8.034785008057952">
        <ele>75.09765625</ele>
        <time>2025-10-08T08:10:36Z</time>
      </trkpt>
      <trkpt lat="52.282632999122143" lon="8.034692974761128">
        <ele>74.6171875</ele>
        <time>2025-10-08T08:10:41Z</time>
      </trkpt>
      <trkpt lat="52.282815976068377" lon="8.03454696200788">
        <ele>74.86328125</ele>
        <time>2025-10-08T08:10:45Z</time>
      </trkpt>
      <trkpt lat="52.282984033226967" lon="8.034332972019911">
        <ele>75.91015625</ele>
        <time>2025-10-08T08:10:49Z</time>
      </trkpt>
      <trkpt lat="52.283147983253002" lon="8.034143960103393">
        <ele>76.59765625</ele>
        <time>2025-10-08T08:10:53Z</time>
      </trkpt>
      <trkpt lat="52.283312017098069" lon="8.03394396789372">
        <ele>76.96875</ele>
        <time>2025-10-08T08:10:57Z</time>
      </trkpt>
      <trkpt lat="52.283469010144472" lon="8.033774988725781">
        <ele>77.21484375</ele>
        <time>2025-10-08T08:11:01Z</time>
      </trkpt>
      <trkpt lat="52.28363698348403" lon="8.033626964315772">
        <ele>77.3203125</ele>
        <time>2025-10-08T08:11:05Z</time>
      </trkpt>
      <trkpt lat="52.283845022320747" lon="8.033548006787896">
        <ele>76.94921875</ele>
        <time>2025-10-08T08:11:09Z</time>
      </trkpt>
      <trkpt lat="52.284049959853292" lon="8.033442981541157">
        <ele>76.453125</ele>
        <time>2025-10-08T08:11:13Z</time>
      </trkpt>
      <trkpt lat="52.284274008125067" lon="8.03329998627305">
        <ele>75.02734375</ele>
        <time>2025-10-08T08:11:18Z</time>
      </trkpt>
      <trkpt lat="52.284480035305023" lon="8.033137964084745">
        <ele>73.73828125</ele>
        <time>2025-10-08T08:11:25Z</time>
      </trkpt>
      <trkpt lat="52.284672986716032" lon="8.032991029322147">
        <ele>72.5234375</ele>
        <time>2025-10-08T08:11:31Z</time>
      </trkpt>
      <trkpt lat="52.284813970327377" lon="8.033263022080064">
        <ele>71.1953125</ele>
        <time>2025-10-08T08:11:37Z</time>
      </trkpt>
      <trkpt lat="52.284955037757754" lon="8.03353501483798">
        <ele>69.83984375</ele>
        <time>2025-10-08T08:11:44Z</time>
      </trkpt>
      <trkpt lat="52.285136003047228" lon="8.033367041498423">
        <ele>69.62109375</ele>
        <time>2025-10-08T08:11:59Z</time>
      </trkpt>
      <trkpt lat="52.285195011645555" lon="8.033003015443683">
        <ele>70.3984375</ele>
        <time>2025-10-08T08:12:05Z</time>
      </trkpt>
      <trkpt lat="52.28531101718545" lon="8.032706966623664">
        <ele>71.05859375</ele>
        <time>2025-10-08T08:12:10Z</time>
      </trkpt>
      <trkpt lat="52.285430040210485" lon="8.032454000785947">
        <ele>71.484375</ele>
        <time>2025-10-08T08:12:14Z</time>
      </trkpt>
      <trkpt lat="52.285517966374755" lon="8.032164992764592">
        <ele>71.7578125</ele>
        <time>2025-10-08T08:12:18Z</time>
      </trkpt>
      <trkpt lat="52.285614022985101" lon="8.031845977529883">
        <ele>71.9765625</ele>
        <time>2025-10-08T08:12:22Z</time>
      </trkpt>
      <trkpt lat="52.285703038796782" lon="8.031463008373976">
        <ele>71.6640625</ele>
        <time>2025-10-08T08:12:26Z</time>
      </trkpt>
      <trkpt lat="52.285775961354375" lon="8.031079033389688">
        <ele>71.33203125</ele>
        <time>2025-10-08T08:12:30Z</time>
      </trkpt>
      <trkpt lat="52.285858020186424" lon="8.030680976808071">
        <ele>71.046875</ele>
        <time>2025-10-08T08:12:34Z</time>
      </trkpt>
      <trkpt lat="52.2859369777143" lon="8.030259031802416">
        <ele>70.875</ele>
        <time>2025-10-08T08:12:38Z</time>
      </trkpt>
      <trkpt lat="52.286029011011124" lon="8.029835997149348">
        <ele>70.609375</ele>
        <time>2025-10-08T08:12:42Z</time>
      </trkpt>
      <trkpt lat="52.286121966317296" lon="8.029432995244861">
        <ele>70.2734375</ele>
        <time>2025-10-08T08:12:46Z</time>
      </trkpt>
      <trkpt lat="52.286202013492584" lon="8.029032004997134">
        <ele>69.20703125</ele>
        <time>2025-10-08T08:12:50Z</time>
      </trkpt>
      <trkpt lat="52.286295974627137" lon="8.028663033619523">
        <ele>67.6015625</ele>
        <time>2025-10-08T08:12:54Z</time>
      </trkpt>
      <trkpt lat="52.286396976560354" lon="8.028345024213195">
        <ele>66.3671875</ele>
        <time>2025-10-08T08:12:58Z</time>
      </trkpt>
      <trkpt lat="52.286499990150332" lon="8.028071019798517">
        <ele>65.94140625</ele>
        <time>2025-10-08T08:13:03Z</time>
      </trkpt>
      <trkpt lat="52.286613984033465" lon="8.027761979028583">
        <ele>65.66796875</ele>
        <time>2025-10-08T08:13:12Z</time>
      </trkpt>
      <trkpt lat="52.286715991795063" lon="8.027464002370834">
        <ele>65.671875</ele>
        <time>2025-10-08T08:13:16Z</time>
      </trkpt>
      <trkpt lat="52.286827974021435" lon="8.027140041813254">
        <ele>65.8046875</ele>
        <time>2025-10-08T08:13:20Z</time>
      </trkpt>
      <trkpt lat="52.286932999268174" lon="8.026776015758514">
        <ele>65.8046875</ele>
        <time>2025-10-08T08:13:24Z</time>
      </trkpt>
      <trkpt lat="52.287055961787701" lon="8.026426993310452">
        <ele>65.46484375</ele>
        <time>2025-10-08T08:13:28Z</time>
      </trkpt>
      <trkpt lat="52.287182025611401" lon="8.02610001526773">
        <ele>64.8515625</ele>
        <time>2025-10-08T08:13:32Z</time>
      </trkpt>
      <trkpt lat="52.28731001727283" lon="8.02575702778995">
        <ele>64.21875</ele>
        <time>2025-10-08T08:13:36Z</time>
      </trkpt>
      <trkpt lat="52.287430968135595" lon="8.025487968698144">
        <ele>64.25390625</ele>
        <time>2025-10-08T08:13:40Z</time>
      </trkpt>
      <trkpt lat="52.287589972838759" lon="8.025139030069113">
        <ele>64.2890625</ele>
        <time>2025-10-08T08:14:12Z</time>
      </trkpt>
      <trkpt lat="52.287710001692176" lon="8.024893021211028">
        <ele>64.8203125</ele>
        <time>2025-10-08T08:14:16Z</time>
      </trkpt>
      <trkpt lat="52.287847967818379" lon="8.024631002917886">
        <ele>65.4296875</ele>
        <time>2025-10-08T08:14:20Z</time>
      </trkpt>
      <trkpt lat="52.287990963086486" lon="8.024352975189686">
        <ele>66.08984375</ele>
        <time>2025-10-08T08:14:24Z</time>
      </trkpt>
      <trkpt lat="52.288151979446411" lon="8.024082994088531">
        <ele>66.671875</ele>
        <time>2025-10-08T08:14:28Z</time>
      </trkpt>
      <trkpt lat="52.288306038826704" lon="8.023804966360331">
        <ele>67.1953125</ele>
        <time>2025-10-08T08:14:32Z</time>
      </trkpt>
      <trkpt lat="52.288455991074443" lon="8.023524004966021">
        <ele>67.6171875</ele>
        <time>2025-10-08T08:14:36Z</time>
      </trkpt>
      <trkpt lat="52.288612984120846" lon="8.023256035521627">
        <ele>67.4296875</ele>
        <time>2025-10-08T08:14:40Z</time>
      </trkpt>
      <trkpt lat="52.288774000480771" lon="8.02298597060144">
        <ele>67.140625</ele>
        <time>2025-10-08T08:14:44Z</time>
      </trkpt>
      <trkpt lat="52.288941973820329" lon="8.022730993106961">
        <ele>66.94140625</ele>
        <time>2025-10-08T08:14:48Z</time>
      </trkpt>
      <trkpt lat="52.28909301571548" lon="8.02244701422751">
        <ele>66.7109375</ele>
        <time>2025-10-08T08:14:52Z</time>
      </trkpt>
      <trkpt lat="52.289256965741515" lon="8.022192036733031">
        <ele>66.48046875</ele>
        <time>2025-10-08T08:14:56Z</time>
      </trkpt>
      <trkpt lat="52.289418987929821" lon="8.021925995126367">
        <ele>66.4140625</ele>
        <time>2025-10-08T08:15:00Z</time>
      </trkpt>
      <trkpt lat="52.28956600651145" lon="8.021705970168114">
        <ele>66.37109375</ele>
        <time>2025-10-08T08:15:04Z</time>
      </trkpt>
      <trkpt lat="52.289706990122795" lon="8.021470019593835">
        <ele>66.50390625</ele>
        <time>2025-10-08T08:15:08Z</time>
      </trkpt>
      <trkpt lat="52.289896002039313" lon="8.021197021007538">
        <ele>66.734375</ele>
        <time>2025-10-08T08:15:12Z</time>
      </trkpt>
      <trkpt lat="52.290078978985548" lon="8.020900972187519">
        <ele>66.65625</ele>
        <time>2025-10-08T08:15:16Z</time>
      </trkpt>
      <trkpt lat="52.290250975638628" lon="8.020620010793209">
        <ele>65.68359375</ele>
        <time>2025-10-08T08:15:20Z</time>
      </trkpt>
      <trkpt lat="52.290406040847301" lon="8.020315999165177">
        <ele>64.91015625</ele>
        <time>2025-10-08T08:15:24Z</time>
      </trkpt>
      <trkpt lat="52.290580971166492" lon="8.0200229678303">
        <ele>64.1953125</ele>
        <time>2025-10-08T08:15:28Z</time>
      </trkpt>
      <trkpt lat="52.290749028325081" lon="8.01972096785903">
        <ele>63.73828125</ele>
        <time>2025-10-08T08:15:32Z</time>
      </trkpt>
      <trkpt lat="52.290910966694355" lon="8.019411005079746">
        <ele>63.34765625</ele>
        <time>2025-10-08T08:15:36Z</time>
      </trkpt>
      <trkpt lat="52.291086986660957" lon="8.019153010100126">
        <ele>62.92578125</ele>
        <time>2025-10-08T08:15:40Z</time>
      </trkpt>
      <trkpt lat="52.291250014677644" lon="8.018880011513829">
        <ele>62.53515625</ele>
        <time>2025-10-08T08:15:44Z</time>
      </trkpt>
      <trkpt lat="52.291401978582144" lon="8.018642971292138">
        <ele>62.16796875</ele>
        <time>2025-10-08T08:15:48Z</time>
      </trkpt>
      <trkpt lat="52.291659973561764" lon="8.018567031249404">
        <ele>62.16015625</ele>
        <time>2025-10-08T08:16:52Z</time>
      </trkpt>
      <trkpt lat="52.29173599742353" lon="8.018909012898803">
        <ele>61.96484375</ele>
        <time>2025-10-08T08:16:56Z</time>
      </trkpt>
      <trkpt lat="52.291815038770437" lon="8.019297011196613">
        <ele>61.58984375</ele>
        <time>2025-10-08T08:17:00Z</time>
      </trkpt>
      <trkpt lat="52.291911011561751" lon="8.019672017544508">
        <ele>61.47265625</ele>
        <time>2025-10-08T08:17:04Z</time>
      </trkpt>
      <trkpt lat="52.292008996009827" lon="8.020038977265358">
        <ele>61.35546875</ele>
        <time>2025-10-08T08:17:08Z</time>
      </trkpt>
      <trkpt lat="52.292142016813159" lon="8.020353969186544">
        <ele>61.01953125</ele>
        <time>2025-10-08T08:17:12Z</time>
      </trkpt>
      <trkpt lat="52.292274031788111" lon="8.020625039935112">
        <ele>60.46875</ele>
        <time>2025-10-08T08:17:17Z</time>
      </trkpt>
      <trkpt lat="52.292428007349372" lon="8.02085998468101">
        <ele>60.515625</ele>
        <time>2025-10-08T08:18:01Z</time>
      </trkpt>
      <trkpt lat="52.292568990960717" lon="8.021093001589179">
        <ele>60.94921875</ele>
        <time>2025-10-08T08:18:05Z</time>
      </trkpt>
      <trkpt lat="52.292723972350359" lon="8.021364994347096">
        <ele>61.5078125</ele>
        <time>2025-10-08T08:18:09Z</time>
      </trkpt>
      <trkpt lat="52.292894963175058" lon="8.021636987105012">
        <ele>62.125</ele>
        <time>2025-10-08T08:18:13Z</time>
      </trkpt>
      <trkpt lat="52.293066959828138" lon="8.021886013448238">
        <ele>62.390625</ele>
        <time>2025-10-08T08:18:17Z</time>
      </trkpt>
      <trkpt lat="52.293220013380051" lon="8.022118024528027">
        <ele>62.09375</ele>
        <time>2025-10-08T08:18:21Z</time>
      </trkpt>
      <trkpt lat="52.293412964791059" lon="8.022023979574442">
        <ele>63.2421875</ele>
        <time>2025-10-08T08:18:44Z</time>
      </trkpt>
      <trkpt lat="52.293545985594392" lon="8.021712005138397">
        <ele>64.87890625</ele>
        <time>2025-10-08T08:18:48Z</time>
      </trkpt>
      <trkpt lat="52.293703984469175" lon="8.0214390065521">
        <ele>65.1640625</ele>
        <time>2025-10-08T08:18:52Z</time>
      </trkpt>
      <trkpt lat="52.293838011100888" lon="8.021177994087338">
        <ele>65.1484375</ele>
        <time>2025-10-08T08:18:56Z</time>
      </trkpt>
      <trkpt lat="52.293976983055472" lon="8.02090298384428">
        <ele>64.8828125</ele>
        <time>2025-10-08T08:19:00Z</time>
      </trkpt>
      <trkpt lat="52.294100029394031" lon="8.020620010793209">
        <ele>64.1484375</ele>
        <time>2025-10-08T08:19:04Z</time>
      </trkpt>
      <trkpt lat="52.294231038540602" lon="8.02034298889339">
        <ele>63.83203125</ele>
        <time>2025-10-08T08:19:08Z</time>
      </trkpt>
      <trkpt lat="52.294374033808708" lon="8.02006303332746">
        <ele>64</ele>
        <time>2025-10-08T08:19:12Z</time>
      </trkpt>
      <trkpt lat="52.294504037126899" lon="8.019781988114119">
        <ele>64.421875</ele>
        <time>2025-10-08T08:19:16Z</time>
      </trkpt>
      <trkpt lat="52.294649966061115" lon="8.019515024498105">
        <ele>64.76171875</ele>
        <time>2025-10-08T08:19:20Z</time>
      </trkpt>
      <trkpt lat="52.294832020998001" lon="8.019281001761556">
        <ele>65</ele>
        <time>2025-10-08T08:19:24Z</time>
      </trkpt>
      <trkpt lat="52.295053973793983" lon="8.019106993451715">
        <ele>64.51953125</ele>
        <time>2025-10-08T08:19:28Z</time>
      </trkpt>
      <trkpt lat="52.295298976823688" lon="8.019000962376595">
        <ele>64.12890625</ele>
        <time>2025-10-08T08:19:32Z</time>
      </trkpt>
      <trkpt lat="52.29554096236825" lon="8.018899960443378">
        <ele>63.6796875</ele>
        <time>2025-10-08T08:19:36Z</time>
      </trkpt>
      <trkpt lat="52.295793006196618" lon="8.018776997923851">
        <ele>63.11328125</ele>
        <time>2025-10-08T08:19:40Z</time>
      </trkpt>
      <trkpt lat="52.296041026711464" lon="8.018664009869099">
        <ele>62.65234375</ele>
        <time>2025-10-08T08:19:44Z</time>
      </trkpt>
      <trkpt lat="52.296283012256026" lon="8.018541969358921">
        <ele>62.25</ele>
        <time>2025-10-08T08:19:48Z</time>
      </trkpt>
      <trkpt lat="52.296502031385899" lon="8.01834499463439">
        <ele>61.80859375</ele>
        <time>2025-10-08T08:19:52Z</time>
      </trkpt>
      <trkpt lat="52.296709986403584" lon="8.018121030181646">
        <ele>61.2578125</ele>
        <time>2025-10-08T08:19:56Z</time>
      </trkpt>
      <trkpt lat="52.296897992491722" lon="8.017864963039756">
        <ele>60.9921875</ele>
        <time>2025-10-08T08:20:00Z</time>
      </trkpt>
      <trkpt lat="52.297050040215254" lon="8.017563968896866">
        <ele>61.0234375</ele>
        <time>2025-10-08T08:20:04Z</time>
      </trkpt>
      <trkpt lat="52.297159004956484" lon="8.017291976138949">
        <ele>61.25390625</ele>
        <time>2025-10-08T08:20:08Z</time>
      </trkpt>
      <trkpt lat="52.2974500246346" lon="8.017176976427436">
        <ele>61.609375</ele>
        <time>2025-10-08T08:20:34Z</time>
      </trkpt>
      <trkpt lat="52.297663008794188" lon="8.017211006954312">
        <ele>61.70703125</ele>
        <time>2025-10-08T08:20:38Z</time>
      </trkpt>
      <trkpt lat="52.297897031530738" lon="8.017185023054481">
        <ele>61.86328125</ele>
        <time>2025-10-08T08:20:42Z</time>
      </trkpt>
      <trkpt lat="52.298122001811862" lon="8.017133977264166">
        <ele>61.9921875</ele>
        <time>2025-10-08T08:20:46Z</time>
      </trkpt>
      <trkpt lat="52.298341020941734" lon="8.017016965895891">
        <ele>61.50390625</ele>
        <time>2025-10-08T08:20:50Z</time>
      </trkpt>
      <trkpt lat="52.298565991222858" lon="8.016853015869856">
        <ele>60.96484375</ele>
        <time>2025-10-08T08:20:54Z</time>
      </trkpt>
      <trkpt lat="52.298777969554067" lon="8.016644977033138">
        <ele>60.7109375</ele>
        <time>2025-10-08T08:20:58Z</time>
      </trkpt>
      <trkpt lat="52.298972010612488" lon="8.01641003228724">
        <ele>60.8828125</ele>
        <time>2025-10-08T08:21:02Z</time>
      </trkpt>
      <trkpt lat="52.299166973680258" lon="8.016192018985748">
        <ele>60.9375</ele>
        <time>2025-10-08T08:21:06Z</time>
      </trkpt>
      <trkpt lat="52.299377024173737" lon="8.015946010127664">
        <ele>61.01953125</ele>
        <time>2025-10-08T08:21:10Z</time>
      </trkpt>
      <trkpt lat="52.299567963927984" lon="8.01572103984654">
        <ele>60.6796875</ele>
        <time>2025-10-08T08:21:14Z</time>
      </trkpt>
      <trkpt lat="52.299759993329644" lon="8.015488022938371">
        <ele>60.59765625</ele>
        <time>2025-10-08T08:21:18Z</time>
      </trkpt>
      <trkpt lat="52.299969960004091" lon="8.015270009636879">
        <ele>60.41015625</ele>
        <time>2025-10-08T08:21:22Z</time>
      </trkpt>
      <trkpt lat="52.300174981355667" lon="8.015074040740728">
        <ele>60.15234375</ele>
        <time>2025-10-08T08:21:26Z</time>
      </trkpt>
      <trkpt lat="52.300373967736959" lon="8.014901960268617">
        <ele>59.8828125</ele>
        <time>2025-10-08T08:21:30Z</time>
      </trkpt>
      <trkpt lat="52.300549987703562" lon="8.014730969443917">
        <ele>59.6640625</ele>
        <time>2025-10-08T08:21:34Z</time>
      </trkpt>
      <trkpt lat="52.300730030983686" lon="8.014522008597851">
        <ele>59.86328125</ele>
        <time>2025-10-08T08:21:41Z</time>
      </trkpt>
      <trkpt lat="52.300880989059806" lon="8.01434800028801">
        <ele>60.2421875</ele>
        <time>2025-10-08T08:21:51Z</time>
      </trkpt>
      <trkpt lat="52.301081987097859" lon="8.014125041663647">
        <ele>60.61328125</ele>
        <time>2025-10-08T08:21:56Z</time>
      </trkpt>
      <trkpt lat="52.3012750223279" lon="8.013925971463323">
        <ele>60.63671875</ele>
        <time>2025-10-08T08:22:00Z</time>
      </trkpt>
      <trkpt lat="52.301467973738909" lon="8.013717010617256">
        <ele>60.31640625</ele>
        <time>2025-10-08T08:22:04Z</time>
      </trkpt>
      <trkpt lat="52.301657991483808" lon="8.013474019244313">
        <ele>59.79296875</ele>
        <time>2025-10-08T08:22:08Z</time>
      </trkpt>
      <trkpt lat="52.301827976480126" lon="8.013176964595914">
        <ele>60.0390625</ele>
        <time>2025-10-08T08:22:12Z</time>
      </trkpt>
      <trkpt lat="52.301972983404994" lon="8.012874964624643">
        <ele>60.50390625</ele>
        <time>2025-10-08T08:22:16Z</time>
      </trkpt>
      <trkpt lat="52.302097035571933" lon="8.012540023773909">
        <ele>61</ele>
        <time>2025-10-08T08:22:20Z</time>
      </trkpt>
      <trkpt lat="52.302192002534866" lon="8.012186978012323">
        <ele>61</ele>
        <time>2025-10-08T08:22:24Z</time>
      </trkpt>
      <trkpt lat="52.30228797532618" lon="8.011827981099486">
        <ele>61</ele>
        <time>2025-10-08T08:22:28Z</time>
      </trkpt>
      <trkpt lat="52.302383026108146" lon="8.011451968923211">
        <ele>60.578125</ele>
        <time>2025-10-08T08:22:32Z</time>
      </trkpt>
      <trkpt lat="52.302488973364234" lon="8.011092972010374">
        <ele>60.3203125</ele>
        <time>2025-10-08T08:22:36Z</time>
      </trkpt>
      <trkpt lat="52.30258603580296" lon="8.01071603782475">
        <ele>60.34375</ele>
        <time>2025-10-08T08:22:40Z</time>
      </trkpt>
      <trkpt lat="52.302690977230668" lon="8.010351005941629">
        <ele>60.46875</ele>
        <time>2025-10-08T08:22:44Z</time>
      </trkpt>
      <trkpt lat="52.302787033841014" lon="8.009988991543651">
        <ele>60.65234375</ele>
        <time>2025-10-08T08:22:48Z</time>
      </trkpt>
      <trkpt lat="52.302900021895766" lon="8.009640974923968">
        <ele>60.8828125</ele>
        <time>2025-10-08T08:22:52Z</time>
      </trkpt>
      <trkpt lat="52.303004963323474" lon="8.009316008538008">
        <ele>60.99609375</ele>
        <time>2025-10-08T08:22:56Z</time>
      </trkpt>
      <trkpt lat="52.303107976913452" lon="8.008962962776423">
        <ele>61</ele>
        <time>2025-10-08T08:23:00Z</time>
      </trkpt>
      <trkpt lat="52.303215013816953" lon="8.008625004440546">
        <ele>60.98046875</ele>
        <time>2025-10-08T08:23:04Z</time>
      </trkpt>
      <trkpt lat="52.303326996043324" lon="8.008286962285638">
        <ele>60.84765625</ele>
        <time>2025-10-08T08:23:08Z</time>
      </trkpt>
      <trkpt lat="52.303438978269696" lon="8.007941963151097">
        <ele>60.61328125</ele>
        <time>2025-10-08T08:23:12Z</time>
      </trkpt>
      <trkpt lat="52.303552972152829" lon="8.007594030350447">
        <ele>60.5234375</ele>
        <time>2025-10-08T08:23:16Z</time>
      </trkpt>
      <trkpt lat="52.303656991571188" lon="8.007248025387526">
        <ele>60.9140625</ele>
        <time>2025-10-08T08:23:20Z</time>
      </trkpt>
      <trkpt lat="52.303740978240967" lon="8.006947031244636">
        <ele>61.32421875</ele>
        <time>2025-10-08T08:23:24Z</time>
      </trkpt>
      <trkpt lat="52.303842986002564" lon="8.00661301240325">
        <ele>61.73828125</ele>
        <time>2025-10-08T08:23:28Z</time>
      </trkpt>
      <trkpt lat="52.30398396961391" lon="8.006316963583231">
        <ele>61.96875</ele>
        <time>2025-10-08T08:23:32Z</time>
      </trkpt>
      <trkpt lat="52.304084971547127" lon="8.006028961390257">
        <ele>61.84375</ele>
        <time>2025-10-08T08:23:36Z</time>
      </trkpt>
      <trkpt lat="52.304178010672331" lon="8.00573400221765">
        <ele>61.61328125</ele>
        <time>2025-10-08T08:23:40Z</time>
      </trkpt>
      <trkpt lat="52.304293010383844" lon="8.005426973104477">
        <ele>61.47265625</ele>
        <time>2025-10-08T08:23:44Z</time>
      </trkpt>
      <trkpt lat="52.304408010095358" lon="8.005127990618348">
        <ele>61.53125</ele>
        <time>2025-10-08T08:23:48Z</time>
      </trkpt>
      <trkpt lat="52.304516974836588" lon="8.004867983981967">
        <ele>61.4609375</ele>
        <time>2025-10-08T08:23:52Z</time>
      </trkpt>
      <trkpt lat="52.304641027003527" lon="8.004573024809361">
        <ele>61.27734375</ele>
        <time>2025-10-08T08:23:59Z</time>
      </trkpt>
      <trkpt lat="52.304757032543421" lon="8.004254009574652">
        <ele>61.00390625</ele>
        <time>2025-10-08T08:24:05Z</time>
      </trkpt>
      <trkpt lat="52.304858034476638" lon="8.003956032916904">
        <ele>61.04296875</ele>
        <time>2025-10-08T08:24:10Z</time>
      </trkpt>
      <trkpt lat="52.304969010874629" lon="8.003703989088535">
        <ele>61.0625</ele>
        <time>2025-10-08T08:24:14Z</time>
      </trkpt>
      <trkpt lat="52.305066995322704" lon="8.003404000774026">
        <ele>61.0234375</ele>
        <time>2025-10-08T08:24:18Z</time>
      </trkpt>
      <trkpt lat="52.305159028619528" lon="8.003067970275879">
        <ele>61.0625</ele>
        <time>2025-10-08T08:24:22Z</time>
      </trkpt>
      <trkpt lat="52.30522801168263" lon="8.002738980576396">
        <ele>60.97265625</ele>
        <time>2025-10-08T08:24:26Z</time>
      </trkpt>
      <trkpt lat="52.305291965603828" lon="8.002434968948364">
        <ele>60.76171875</ele>
        <time>2025-10-08T08:24:30Z</time>
      </trkpt>
      <trkpt lat="52.305376036092639" lon="8.002096004784107">
        <ele>60.6640625</ele>
        <time>2025-10-08T08:24:34Z</time>
      </trkpt>
      <trkpt lat="52.305445019155741" lon="8.001763997599483">
        <ele>60.80078125</ele>
        <time>2025-10-08T08:24:38Z</time>
      </trkpt>
      <trkpt lat="52.305536968633533" lon="8.001434002071619">
        <ele>61.26953125</ele>
        <time>2025-10-08T08:24:42Z</time>
      </trkpt>
      <trkpt lat="52.305617015808821" lon="8.001098977401853">
        <ele>61.80078125</ele>
        <time>2025-10-08T08:24:46Z</time>
      </trkpt>
      <trkpt lat="52.305722963064909" lon="8.000773005187511">
        <ele>61.46875</ele>
        <time>2025-10-08T08:24:50Z</time>
      </trkpt>
      <trkpt lat="52.3058529663831" lon="8.000454995781183">
        <ele>60.7578125</ele>
        <time>2025-10-08T08:24:54Z</time>
      </trkpt>
      <trkpt lat="52.30600199662149" lon="8.000195994973183">
        <ele>60.15625</ele>
        <time>2025-10-08T08:24:58Z</time>
      </trkpt>
      <trkpt lat="52.306186985224485" lon="8.000002959743142">
        <ele>59.76171875</ele>
        <time>2025-10-08T08:25:02Z</time>
      </trkpt>
      <trkpt lat="52.306441962718964" lon="7.999928025528789">
        <ele>59.28125</ele>
        <time>2025-10-08T08:25:06Z</time>
      </trkpt>
      <trkpt lat="52.306699035689235" lon="7.999955015257001">
        <ele>59.3125</ele>
        <time>2025-10-08T08:25:10Z</time>
      </trkpt>
      <trkpt lat="52.306971028447151" lon="7.99997597001493">
        <ele>59.4609375</ele>
        <time>2025-10-08T08:25:14Z</time>
      </trkpt>
      <trkpt lat="52.307229023426771" lon="8.000033972784877">
        <ele>59.7265625</ele>
        <time>2025-10-08T08:25:18Z</time>
      </trkpt>
      <trkpt lat="52.307500010356307" lon="8.000069009140134">
        <ele>59.65234375</ele>
        <time>2025-10-08T08:25:22Z</time>
      </trkpt>
      <trkpt lat="52.307739984244108" lon="8.000127011910081">
        <ele>59.46875</ele>
        <time>2025-10-08T08:25:26Z</time>
      </trkpt>
      <trkpt lat="52.307932013645768" lon="8.000155007466674">
        <ele>59.23828125</ele>
        <time>2025-10-08T08:25:30Z</time>
      </trkpt>
      <trkpt lat="52.308052964508533" lon="7.999807996675372">
        <ele>59.0234375</ele>
        <time>2025-10-08T08:25:35Z</time>
      </trkpt>
      <trkpt lat="52.308118008077145" lon="7.999464003369212">
        <ele>58.9921875</ele>
        <time>2025-10-08T08:25:39Z</time>
      </trkpt>
      <trkpt lat="52.308203000575304" lon="7.999088997021318">
        <ele>59.203125</ele>
        <time>2025-10-08T08:25:43Z</time>
      </trkpt>
      <trkpt lat="52.308270977810025" lon="7.998754978179932">
        <ele>59.42578125</ele>
        <time>2025-10-08T08:25:47Z</time>
      </trkpt>
      <trkpt lat="52.308326968923211" lon="7.998392963781953">
        <ele>59.50390625</ele>
        <time>2025-10-08T08:25:51Z</time>
      </trkpt>
      <trkpt lat="52.308412967249751" lon="7.998033966869116">
        <ele>59.14453125</ele>
        <time>2025-10-08T08:25:55Z</time>
      </trkpt>
      <trkpt lat="52.308468036353588" lon="7.997683016583324">
        <ele>58.8046875</ele>
        <time>2025-10-08T08:25:59Z</time>
      </trkpt>
      <trkpt lat="52.308599967509508" lon="7.997485036030412">
        <ele>58.1328125</ele>
        <time>2025-10-08T08:26:04Z</time>
      </trkpt>
      <trkpt lat="52.308785039931536" lon="7.997569022700191">
        <ele>57.56640625</ele>
        <time>2025-10-08T08:26:08Z</time>
      </trkpt>
      <trkpt lat="52.308988971635699" lon="7.997699026018381">
        <ele>57.15234375</ele>
        <time>2025-10-08T08:26:12Z</time>
      </trkpt>
      <trkpt lat="52.309188963845372" lon="7.997945034876466">
        <ele>58.03125</ele>
        <time>2025-10-08T08:26:16Z</time>
      </trkpt>
      <trkpt lat="52.309403037652373" lon="7.998094987124205">
        <ele>58.91796875</ele>
        <time>2025-10-08T08:26:20Z</time>
      </trkpt>
      <trkpt lat="52.309603029862046" lon="7.998155001550913">
        <ele>59.66015625</ele>
        <time>2025-10-08T08:26:24Z</time>
      </trkpt>
      <trkpt lat="52.309814002364874" lon="7.998076966032386">
        <ele>60.16015625</ele>
        <time>2025-10-08T08:26:28Z</time>
      </trkpt>
      <trkpt lat="52.309978036209941" lon="7.997908992692828">
        <ele>60.5546875</ele>
        <time>2025-10-08T08:26:32Z</time>
      </trkpt>
      <trkpt lat="52.310185991227627" lon="7.997844032943249">
        <ele>61.50390625</ele>
        <time>2025-10-08T08:26:36Z</time>
      </trkpt>
      <trkpt lat="52.310391012579203" lon="7.997781001031399">
        <ele>62.55078125</ele>
        <time>2025-10-08T08:26:40Z</time>
      </trkpt>
      <trkpt lat="52.310594022274017" lon="7.997735990211368">
        <ele>63.68359375</ele>
        <time>2025-10-08T08:26:44Z</time>
      </trkpt>
      <trkpt lat="52.310782028362155" lon="7.997791981324554">
        <ele>64.0625</ele>
        <time>2025-10-08T08:26:48Z</time>
      </trkpt>
      <trkpt lat="52.310969028621912" lon="7.997873034328222">
        <ele>64.35546875</ele>
        <time>2025-10-08T08:26:52Z</time>
      </trkpt>
      <trkpt lat="52.311155023053288" lon="7.997958026826382">
        <ele>64.73828125</ele>
        <time>2025-10-08T08:26:56Z</time>
      </trkpt>
      <trkpt lat="52.311342023313046" lon="7.9980209749192">
        <ele>65.1953125</ele>
        <time>2025-10-08T08:27:00Z</time>
      </trkpt>
      <trkpt lat="52.311528017744422" lon="7.998099010437727">
        <ele>66.87890625</ele>
        <time>2025-10-08T08:27:04Z</time>
      </trkpt>
      <trkpt lat="52.31171602383256" lon="7.998132035136223">
        <ele>70.58203125</ele>
        <time>2025-10-08T08:27:08Z</time>
      </trkpt>
      <trkpt lat="52.311890032142401" lon="7.998024998232722">
        <ele>73.7109375</ele>
        <time>2025-10-08T08:27:12Z</time>
      </trkpt>
      <trkpt lat="52.312072003260255" lon="7.997799022123218">
        <ele>76.52734375</ele>
        <time>2025-10-08T08:27:17Z</time>
      </trkpt>
      <trkpt lat="52.312221033498645" lon="7.997576985508204">
        <ele>78.19140625</ele>
        <time>2025-10-08T08:27:21Z</time>
      </trkpt>
      <trkpt lat="52.312390012666583" lon="7.997325025498867">
        <ele>77.22265625</ele>
        <time>2025-10-08T08:27:25Z</time>
      </trkpt>
      <trkpt lat="52.312564020976424" lon="7.997055966407061">
        <ele>75.81640625</ele>
        <time>2025-10-08T08:27:29Z</time>
      </trkpt>
      <trkpt lat="52.312725037336349" lon="7.99675396643579">
        <ele>74.70703125</ele>
        <time>2025-10-08T08:27:33Z</time>
      </trkpt>
      <trkpt lat="52.312874989584088" lon="7.996436040848494">
        <ele>72.375</ele>
        <time>2025-10-08T08:27:37Z</time>
      </trkpt>
      <trkpt lat="52.313013039529324" lon="7.996094981208444">
        <ele>69.1328125</ele>
        <time>2025-10-08T08:27:41Z</time>
      </trkpt>
      <trkpt lat="52.313096020370722" lon="7.995686028152704">
        <ele>66.8515625</ele>
        <time>2025-10-08T08:27:45Z</time>
      </trkpt>
      <trkpt lat="52.313177995383739" lon="7.995271040126681">
        <ele>65.98046875</ele>
        <time>2025-10-08T08:27:49Z</time>
      </trkpt>
      <trkpt lat="52.313262987881899" lon="7.99488203600049">
        <ele>66.4140625</ele>
        <time>2025-10-08T08:27:53Z</time>
      </trkpt>
      <trkpt lat="52.313346974551678" lon="7.994512980803847">
        <ele>67.515625</ele>
        <time>2025-10-08T08:27:57Z</time>
      </trkpt>
      <trkpt lat="52.313416041433811" lon="7.994168987497687">
        <ele>68.01953125</ele>
        <time>2025-10-08T08:28:01Z</time>
      </trkpt>
      <trkpt lat="52.313498016446829" lon="7.993813008069992">
        <ele>67.53125</ele>
        <time>2025-10-08T08:28:05Z</time>
      </trkpt>
      <trkpt lat="52.313550990074873" lon="7.993401037529111">
        <ele>66.45703125</ele>
        <time>2025-10-08T08:28:09Z</time>
      </trkpt>
      <trkpt lat="52.313575968146324" lon="7.993005998432636">
        <ele>65.890625</ele>
        <time>2025-10-08T08:28:13Z</time>
      </trkpt>
      <trkpt lat="52.313582003116608" lon="7.992572989314795">
        <ele>65.11328125</ele>
        <time>2025-10-08T08:28:17Z</time>
      </trkpt>
      <trkpt lat="52.313588038086891" lon="7.992152972146869">
        <ele>64.58203125</ele>
        <time>2025-10-08T08:28:21Z</time>
      </trkpt>
      <trkpt lat="52.313551995903254" lon="7.991723986342549">
        <ele>63.93359375</ele>
        <time>2025-10-08T08:28:25Z</time>
      </trkpt>
      <trkpt lat="52.313496004790068" lon="7.991355014964938">
        <ele>63.35546875</ele>
        <time>2025-10-08T08:28:29Z</time>
      </trkpt>
      <trkpt lat="52.313444036990404" lon="7.990956958383322">
        <ele>62.765625</ele>
        <time>2025-10-08T08:28:33Z</time>
      </trkpt>
      <trkpt lat="52.313395002856851" lon="7.990574995055795">
        <ele>62.64453125</ele>
        <time>2025-10-08T08:28:37Z</time>
      </trkpt>
      <trkpt lat="52.313338005915284" lon="7.990180039778352">
        <ele>62.5078125</ele>
        <time>2025-10-08T08:28:41Z</time>
      </trkpt>
      <trkpt lat="52.313291989266872" lon="7.989785000681877">
        <ele>61.73046875</ele>
        <time>2025-10-08T08:28:45Z</time>
      </trkpt>
      <trkpt lat="52.313257036730647" lon="7.98938300460577">
        <ele>60.80078125</ele>
        <time>2025-10-08T08:28:49Z</time>
      </trkpt>
      <trkpt lat="52.313214959576726" lon="7.988987965509296">
        <ele>61.546875</ele>
        <time>2025-10-08T08:28:53Z</time>
      </trkpt>
      <trkpt lat="52.313181012868881" lon="7.988584041595459">
        <ele>62.83984375</ele>
        <time>2025-10-08T08:28:57Z</time>
      </trkpt>
      <trkpt lat="52.313131978735328" lon="7.988161006942391">
        <ele>65.96484375</ele>
        <time>2025-10-08T08:29:01Z</time>
      </trkpt>
      <trkpt lat="52.313046986237168" lon="7.987774014472961">
        <ele>69.0625</ele>
        <time>2025-10-08T08:29:05Z</time>
      </trkpt>
      <trkpt lat="52.312972974032164" lon="7.987447958439589">
        <ele>70.8046875</ele>
        <time>2025-10-08T08:29:09Z</time>
      </trkpt>
      <trkpt lat="52.312898961827159" lon="7.98712701536715">
        <ele>71.7421875</ele>
        <time>2025-10-08T08:29:13Z</time>
      </trkpt>
      <trkpt lat="52.31285797432065" lon="7.986824009567499">
        <ele>72.69921875</ele>
        <time>2025-10-08T08:29:17Z</time>
      </trkpt>
      <trkpt lat="52.312831990420818" lon="7.986519997939467">
        <ele>72.74609375</ele>
        <time>2025-10-08T08:29:21Z</time>
      </trkpt>
      <trkpt lat="52.312827967107296" lon="7.986143985763192">
        <ele>73.13671875</ele>
        <time>2025-10-08T08:29:26Z</time>
      </trkpt>
      <trkpt lat="52.312860991805792" lon="7.985783983021975">
        <ele>73.4921875</ele>
        <time>2025-10-08T08:29:31Z</time>
      </trkpt>
      <trkpt lat="52.312910025939345" lon="7.985476031899452">
        <ele>73.6015625</ele>
        <time>2025-10-08T08:29:35Z</time>
      </trkpt>
      <trkpt lat="52.312973979860544" lon="7.985157016664743">
        <ele>73.859375</ele>
        <time>2025-10-08T08:29:39Z</time>
      </trkpt>
      <trkpt lat="52.313064001500607" lon="7.984873959794641">
        <ele>74.74609375</ele>
        <time>2025-10-08T08:29:43Z</time>
      </trkpt>
      <trkpt lat="52.313160980120301" lon="7.984549999237061">
        <ele>75.7421875</ele>
        <time>2025-10-08T08:29:47Z</time>
      </trkpt>
      <trkpt lat="52.313245972618461" lon="7.984226960688829">
        <ele>75.9921875</ele>
        <time>2025-10-08T08:29:51Z</time>
      </trkpt>
      <trkpt lat="52.313325013965368" lon="7.983897970989347">
        <ele>74.96484375</ele>
        <time>2025-10-08T08:29:55Z</time>
      </trkpt>
      <trkpt lat="52.313411012291908" lon="7.983580967411399">
        <ele>74.09375</ele>
        <time>2025-10-08T08:29:59Z</time>
      </trkpt>
      <trkpt lat="52.313505979254842" lon="7.983269998803735">
        <ele>73.0390625</ele>
        <time>2025-10-08T08:30:03Z</time>
      </trkpt>
      <trkpt lat="52.313620978966355" lon="7.982963975518942">
        <ele>71.828125</ele>
        <time>2025-10-08T08:30:07Z</time>
      </trkpt>
      <trkpt lat="52.313746036961675" lon="7.982660969719291">
        <ele>70.42578125</ele>
        <time>2025-10-08T08:30:11Z</time>
      </trkpt>
      <trkpt lat="52.31388702057302" lon="7.982350001111627">
        <ele>69.796875</ele>
        <time>2025-10-08T08:30:15Z</time>
      </trkpt>
      <trkpt lat="52.314033033326268" lon="7.982041966170073">
        <ele>69.30859375</ele>
        <time>2025-10-08T08:30:19Z</time>
      </trkpt>
      <trkpt lat="52.314173011109233" lon="7.981720017269254">
        <ele>69.08984375</ele>
        <time>2025-10-08T08:30:23Z</time>
      </trkpt>
      <trkpt lat="52.314318018034101" lon="7.981402007862926">
        <ele>69.7109375</ele>
        <time>2025-10-08T08:30:27Z</time>
      </trkpt>
      <trkpt lat="52.314461013302207" lon="7.981082992628217">
        <ele>70.17578125</ele>
        <time>2025-10-08T08:30:31Z</time>
      </trkpt>
      <trkpt lat="52.314598979428411" lon="7.980757020413876">
        <ele>71.91796875</ele>
        <time>2025-10-08T08:30:35Z</time>
      </trkpt>
      <trkpt lat="52.314752032980323" lon="7.980417972430587">
        <ele>74.609375</ele>
        <time>2025-10-08T08:30:39Z</time>
      </trkpt>
      <trkpt lat="52.314900979399681" lon="7.980093006044626">
        <ele>76.41796875</ele>
        <time>2025-10-08T08:30:43Z</time>
      </trkpt>
      <trkpt lat="52.315081022679806" lon="7.979774996638298">
        <ele>76.87109375</ele>
        <time>2025-10-08T08:30:47Z</time>
      </trkpt>
      <trkpt lat="52.315238015726209" lon="7.979453969746828">
        <ele>76.66796875</ele>
        <time>2025-10-08T08:30:51Z</time>
      </trkpt>
      <trkpt lat="52.315394002944231" lon="7.979164039716125">
        <ele>75.3828125</ele>
        <time>2025-10-08T08:30:55Z</time>
      </trkpt>
      <trkpt lat="52.315547978505492" lon="7.97885499894619">
        <ele>73.33984375</ele>
        <time>2025-10-08T08:30:59Z</time>
      </trkpt>
      <trkpt lat="52.315706983208656" lon="7.978560961782932">
        <ele>71.13671875</ele>
        <time>2025-10-08T08:31:03Z</time>
      </trkpt>
      <trkpt lat="52.31590898707509" lon="7.978258039802313">
        <ele>68.35546875</ele>
        <time>2025-10-08T08:31:07Z</time>
      </trkpt>
      <trkpt lat="52.316105039790273" lon="7.97795201651752">
        <ele>66.02734375</ele>
        <time>2025-10-08T08:31:11Z</time>
      </trkpt>
      <trkpt lat="52.316277958452702" lon="7.977642975747585">
        <ele>64.23046875</ele>
        <time>2025-10-08T08:31:15Z</time>
      </trkpt>
      <trkpt lat="52.316422965377569" lon="7.97730702906847">
        <ele>63.2109375</ele>
        <time>2025-10-08T08:31:19Z</time>
      </trkpt>
      <trkpt lat="52.316538970917463" lon="7.976923976093531">
        <ele>62.44921875</ele>
        <time>2025-10-08T08:31:23Z</time>
      </trkpt>
      <trkpt lat="52.316664028912783" lon="7.976540001109242">
        <ele>62.49609375</ele>
        <time>2025-10-08T08:31:27Z</time>
      </trkpt>
      <trkpt lat="52.316838037222624" lon="7.976243030279875">
        <ele>62.9140625</ele>
        <time>2025-10-08T08:31:31Z</time>
      </trkpt>
      <trkpt lat="52.317022019997239" lon="7.976016970351338">
        <ele>63.35546875</ele>
        <time>2025-10-08T08:31:35Z</time>
      </trkpt>
      <trkpt lat="52.317220000550151" lon="7.975897025316954">
        <ele>63.82421875</ele>
        <time>2025-10-08T08:31:40Z</time>
      </trkpt>
      <trkpt lat="52.31730499304831" lon="7.976201036944985">
        <ele>64.01953125</ele>
        <time>2025-10-08T08:31:44Z</time>
      </trkpt>
      <trkpt lat="52.317403983324766" lon="7.976476969197393">
        <ele>64.13671875</ele>
        <time>2025-10-08T08:31:48Z</time>
      </trkpt>
      <trkpt lat="52.317535998299718" lon="7.976733958348632">
        <ele>64.296875</ele>
        <time>2025-10-08T08:31:52Z</time>
      </trkpt>
      <trkpt lat="52.317705983296037" lon="7.976935962215066">
        <ele>64.578125</ele>
        <time>2025-10-08T08:31:56Z</time>
      </trkpt>
      <trkpt lat="52.317866999655962" lon="7.977132014930248">
        <ele>64.96484375</ele>
        <time>2025-10-08T08:32:00Z</time>
      </trkpt>
      <trkpt lat="52.318038996309042" lon="7.977310968562961">
        <ele>65.4453125</ele>
        <time>2025-10-08T08:32:04Z</time>
      </trkpt>
      <trkpt lat="52.318198001012206" lon="7.977464022114873">
        <ele>65.76953125</ele>
        <time>2025-10-08T08:32:08Z</time>
      </trkpt>
      <trkpt lat="52.318353988230228" lon="7.977622020989656">
        <ele>65.97265625</ele>
        <time>2025-10-08T08:32:12Z</time>
      </trkpt>
      <trkpt lat="52.318500000983477" lon="7.977829976007342">
        <ele>66.9140625</ele>
        <time>2025-10-08T08:32:16Z</time>
      </trkpt>
      <trkpt lat="52.318598991259933" lon="7.97810398042202">
        <ele>68.23046875</ele>
        <time>2025-10-08T08:32:20Z</time>
      </trkpt>
      <trkpt lat="52.318675015121698" lon="7.97844797372818">
        <ele>69.8828125</ele>
        <time>2025-10-08T08:32:25Z</time>
      </trkpt>
      <trkpt lat="52.318746009841561" lon="7.978739999234676">
        <ele>71.20703125</ele>
        <time>2025-10-08T08:32:29Z</time>
      </trkpt>
      <trkpt lat="52.318814992904663" lon="7.979093967005611">
        <ele>72.6171875</ele>
        <time>2025-10-08T08:32:34Z</time>
      </trkpt>
      <trkpt lat="52.318840976804495" lon="7.979507027193904">
        <ele>74</ele>
        <time>2025-10-08T08:32:40Z</time>
      </trkpt>
      <trkpt lat="52.318817004561424" lon="7.979872981086373">
        <ele>75.20703125</ele>
        <time>2025-10-08T08:32:45Z</time>
      </trkpt>
      <trkpt lat="52.318793032318354" lon="7.980183027684689">
        <ele>76.46484375</ele>
        <time>2025-10-08T08:32:49Z</time>
      </trkpt>
      <trkpt lat="52.318762019276619" lon="7.980544958263636">
        <ele>79.06640625</ele>
        <time>2025-10-08T08:32:54Z</time>
      </trkpt>
      <trkpt lat="52.318730000406504" lon="7.980972016230226">
        <ele>82.18359375</ele>
        <time>2025-10-08T08:33:00Z</time>
      </trkpt>
      <trkpt lat="52.318772999569774" lon="7.981364959850907">
        <ele>85.49609375</ele>
        <time>2025-10-08T08:33:06Z</time>
      </trkpt>
      <trkpt lat="52.318808035925031" lon="7.981750024482608">
        <ele>89.01171875</ele>
        <time>2025-10-08T08:33:12Z</time>
      </trkpt>
      <trkpt lat="52.318880036473274" lon="7.982111033052206">
        <ele>89.9453125</ele>
        <time>2025-10-08T08:33:18Z</time>
      </trkpt>
      <trkpt lat="52.31906502507627" lon="7.981909029185772">
        <ele>88.203125</ele>
        <time>2025-10-08T08:33:25Z</time>
      </trkpt>
      <trkpt lat="52.319311033934355" lon="7.981749018654227">
        <ele>85.0546875</ele>
        <time>2025-10-08T08:33:29Z</time>
      </trkpt>
      <trkpt lat="52.319561988115311" lon="7.981667965650559">
        <ele>81.94921875</ele>
        <time>2025-10-08T08:33:33Z</time>
      </trkpt>
      <trkpt lat="52.319834986701608" lon="7.981699984520674">
        <ele>79.82421875</ele>
        <time>2025-10-08T08:33:37Z</time>
      </trkpt>
      <trkpt lat="52.320093987509608" lon="7.981715993955731">
        <ele>78.21875</ele>
        <time>2025-10-08T08:33:41Z</time>
      </trkpt>
      <trkpt lat="52.320345025509596" lon="7.981715993955731">
        <ele>76.5390625</ele>
        <time>2025-10-08T08:33:45Z</time>
      </trkpt>
      <trkpt lat="52.320605032145977" lon="7.981676012277603">
        <ele>74.6484375</ele>
        <time>2025-10-08T08:33:49Z</time>
      </trkpt>
      <trkpt lat="52.320859003812075" lon="7.981629995629191">
        <ele>73.3515625</ele>
        <time>2025-10-08T08:33:53Z</time>
      </trkpt>
      <trkpt lat="52.32112898491323" lon="7.981547014787793">
        <ele>72.015625</ele>
        <time>2025-10-08T08:33:57Z</time>
      </trkpt>
      <trkpt lat="52.321418998762965" lon="7.981451964005828">
        <ele>70.7109375</ele>
        <time>2025-10-08T08:34:01Z</time>
      </trkpt>
      <trkpt lat="52.321724016219378" lon="7.981354985386133">
        <ele>69.515625</ele>
        <time>2025-10-08T08:34:05Z</time>
      </trkpt>
      <trkpt lat="52.322028027847409" lon="7.981241997331381">
        <ele>68.5</ele>
        <time>2025-10-08T08:34:09Z</time>
      </trkpt>
      <trkpt lat="52.322327010333538" lon="7.981129009276629">
        <ele>67.97265625</ele>
        <time>2025-10-08T08:34:13Z</time>
      </trkpt>
      <trkpt lat="52.322595985606313" lon="7.981010992079973">
        <ele>69.1015625</ele>
        <time>2025-10-08T08:34:17Z</time>
      </trkpt>
      <trkpt lat="52.322835959494114" lon="7.980905966833234">
        <ele>69.875</ele>
        <time>2025-10-08T08:34:21Z</time>
      </trkpt>
      <trkpt lat="52.323031006380916" lon="7.980836983770132">
        <ele>70.39453125</ele>
        <time>2025-10-08T08:34:25Z</time>
      </trkpt>
      <trkpt lat="52.323238961398602" lon="7.980953995138407">
        <ele>71.39453125</ele>
        <time>2025-10-08T08:34:30Z</time>
      </trkpt>
      <trkpt lat="52.323456974700093" lon="7.981139989569783">
        <ele>72.5</ele>
        <time>2025-10-08T08:34:36Z</time>
      </trkpt>
      <trkpt lat="52.323626959696412" lon="7.981310980394483">
        <ele>73.484375</ele>
        <time>2025-10-08T08:34:42Z</time>
      </trkpt>
      <trkpt lat="52.323779007419944" lon="7.981522036716342">
        <ele>74.55859375</ele>
        <time>2025-10-08T08:34:48Z</time>
      </trkpt>
      <trkpt lat="52.323906999081373" lon="7.981768967583776">
        <ele>75.69921875</ele>
        <time>2025-10-08T08:34:54Z</time>
      </trkpt>
      <trkpt lat="52.324043959379196" lon="7.982026962563396">
        <ele>76.70703125</ele>
        <time>2025-10-08T08:35:00Z</time>
      </trkpt>
      <trkpt lat="52.324189972132444" lon="7.982287975028157">
        <ele>77.72265625</ele>
        <time>2025-10-08T08:35:06Z</time>
      </trkpt>
      <trkpt lat="52.324339002370834" lon="7.982578994706273">
        <ele>78.78515625</ele>
        <time>2025-10-08T08:35:12Z</time>
      </trkpt>
      <trkpt lat="52.324493983760476" lon="7.98287495970726">
        <ele>79.78515625</ele>
        <time>2025-10-08T08:35:18Z</time>
      </trkpt>
      <trkpt lat="52.324655000120401" lon="7.98317302018404">
        <ele>80.91796875</ele>
        <time>2025-10-08T08:35:24Z</time>
      </trkpt>
      <trkpt lat="52.324821967631578" lon="7.983464039862156">
        <ele>82.16796875</ele>
        <time>2025-10-08T08:35:30Z</time>
      </trkpt>
      <trkpt lat="52.324988013133407" lon="7.98377500846982">
        <ele>82.97265625</ele>
        <time>2025-10-08T08:35:36Z</time>
      </trkpt>
      <trkpt lat="52.32514500617981" lon="7.984079020097852">
        <ele>83.7265625</ele>
        <time>2025-10-08T08:35:42Z</time>
      </trkpt>
      <trkpt lat="52.325300993397832" lon="7.984381020069122">
        <ele>84.4375</ele>
        <time>2025-10-08T08:35:48Z</time>
      </trkpt>
      <trkpt lat="52.32546703889966" lon="7.98467799089849">
        <ele>85.19140625</ele>
        <time>2025-10-08T08:35:54Z</time>
      </trkpt>
      <trkpt lat="52.325611962005496" lon="7.984977979212999">
        <ele>85.9609375</ele>
        <time>2025-10-08T08:36:00Z</time>
      </trkpt>
      <trkpt lat="52.325755041092634" lon="7.985250977799296">
        <ele>86.75</ele>
        <time>2025-10-08T08:36:06Z</time>
      </trkpt>
      <trkpt lat="52.32589895837009" lon="7.985520958900452">
        <ele>87.6875</ele>
        <time>2025-10-08T08:36:12Z</time>
      </trkpt>
      <trkpt lat="52.326052011922002" lon="7.985806027427316">
        <ele>89.0546875</ele>
        <time>2025-10-08T08:36:18Z</time>
      </trkpt>
      <trkpt lat="52.326200036332011" lon="7.986090006306768">
        <ele>90.89453125</ele>
        <time>2025-10-08T08:36:24Z</time>
      </trkpt>
      <trkpt lat="52.326345965266228" lon="7.986365016549826">
        <ele>93.23828125</ele>
        <time>2025-10-08T08:36:30Z</time>
      </trkpt>
      <trkpt lat="52.32647898606956" lon="7.986618988215923">
        <ele>95.51953125</ele>
        <time>2025-10-08T08:36:37Z</time>
      </trkpt>
      <trkpt lat="52.326616030186415" lon="7.986875977367163">
        <ele>96.75390625</ele>
        <time>2025-10-08T08:36:44Z</time>
      </trkpt>
      <trkpt lat="52.326780986040831" lon="7.987120980396867">
        <ele>97.12890625</ele>
        <time>2025-10-08T08:36:52Z</time>
      </trkpt>
      <trkpt lat="52.326904032379389" lon="7.987367995083332">
        <ele>97.4140625</ele>
        <time>2025-10-08T08:37:00Z</time>
      </trkpt>
      <trkpt lat="52.327043004333973" lon="7.987649962306023">
        <ele>97.92578125</ele>
        <time>2025-10-08T08:37:30Z</time>
      </trkpt>
      <trkpt lat="52.327208966016769" lon="7.987850038334727">
        <ele>98.6328125</ele>
        <time>2025-10-08T08:37:34Z</time>
      </trkpt>
      <trkpt lat="52.327384985983372" lon="7.988080037757754">
        <ele>99.05078125</ele>
        <time>2025-10-08T08:37:39Z</time>
      </trkpt>
      <trkpt lat="52.32759696431458" lon="7.988365022465587">
        <ele>99.2890625</ele>
        <time>2025-10-08T08:37:45Z</time>
      </trkpt>
      <trkpt lat="52.32776703312993" lon="7.988632991909981">
        <ele>99.3515625</ele>
        <time>2025-10-08T08:37:50Z</time>
      </trkpt>
      <trkpt lat="52.327913967892528" lon="7.988885035738349">
        <ele>99.13671875</ele>
        <time>2025-10-08T08:37:54Z</time>
      </trkpt>
      <trkpt lat="52.328056963160634" lon="7.989126015454531">
        <ele>98.640625</ele>
        <time>2025-10-08T08:37:58Z</time>
      </trkpt>
      <trkpt lat="52.328208005055785" lon="7.989350985735655">
        <ele>97.55859375</ele>
        <time>2025-10-08T08:38:02Z</time>
      </trkpt>
      <trkpt lat="52.328375978395343" lon="7.989601017907262">
        <ele>96.56640625</ele>
        <time>2025-10-08T08:38:06Z</time>
      </trkpt>
      <trkpt lat="52.328534983098507" lon="7.989849038422108">
        <ele>95.8359375</ele>
        <time>2025-10-08T08:38:10Z</time>
      </trkpt>
      <trkpt lat="52.328703962266445" lon="7.990095969289541">
        <ele>95.3203125</ele>
        <time>2025-10-08T08:38:14Z</time>
      </trkpt>
      <trkpt lat="52.328858021646738" lon="7.990338960662484">
        <ele>95.33203125</ele>
        <time>2025-10-08T08:38:18Z</time>
      </trkpt>
      <trkpt lat="52.329011997207999" lon="7.990569965913892">
        <ele>95.640625</ele>
        <time>2025-10-08T08:38:22Z</time>
      </trkpt>
      <trkpt lat="52.329171001911163" lon="7.990813041105866">
        <ele>96.30078125</ele>
        <time>2025-10-08T08:38:28Z</time>
      </trkpt>
      <trkpt lat="52.329310979694128" lon="7.991027031093836">
        <ele>96.94140625</ele>
        <time>2025-10-08T08:38:36Z</time>
      </trkpt>
      <trkpt lat="52.329451963305473" lon="7.991245966404676">
        <ele>97.54296875</ele>
        <time>2025-10-08T08:38:46Z</time>
      </trkpt>
      <trkpt lat="52.329600993543863" lon="7.991460040211678">
        <ele>98.16015625</ele>
        <time>2025-10-08T08:39:08Z</time>
      </trkpt>
      <trkpt lat="52.329793022945523" lon="7.99172499217093">
        <ele>98.9453125</ele>
        <time>2025-10-08T08:39:14Z</time>
      </trkpt>
      <trkpt lat="52.329942975193262" lon="7.991969995200634">
        <ele>99.6171875</ele>
        <time>2025-10-08T08:39:18Z</time>
      </trkpt>
      <trkpt lat="52.330123018473387" lon="7.992208963260055">
        <ele>100.4296875</ele>
        <time>2025-10-08T08:39:22Z</time>
      </trkpt>
      <trkpt lat="52.330294009298086" lon="7.992469975724816">
        <ele>101.33984375</ele>
        <time>2025-10-08T08:39:26Z</time>
      </trkpt>
      <trkpt lat="52.330459970980883" lon="7.992725959047675">
        <ele>101.9296875</ele>
        <time>2025-10-08T08:39:30Z</time>
      </trkpt>
      <trkpt lat="52.330627022311091" lon="7.99297297373414">
        <ele>101.7421875</ele>
        <time>2025-10-08T08:39:34Z</time>
      </trkpt>
      <trkpt lat="52.330791978165507" lon="7.993232980370522">
        <ele>100.55859375</ele>
        <time>2025-10-08T08:39:38Z</time>
      </trkpt>
      <trkpt lat="52.330971015617251" lon="7.993498016148806">
        <ele>99.5234375</ele>
        <time>2025-10-08T08:39:42Z</time>
      </trkpt>
      <trkpt lat="52.331148963421583" lon="7.993759028613567">
        <ele>99.10546875</ele>
        <time>2025-10-08T08:39:46Z</time>
      </trkpt>
      <trkpt lat="52.331320038065314" lon="7.994029009714723">
        <ele>98.9453125</ele>
        <time>2025-10-08T08:39:50Z</time>
      </trkpt>
      <trkpt lat="52.33148499391973" lon="7.994285998865962">
        <ele>99.04296875</ele>
        <time>2025-10-08T08:39:54Z</time>
      </trkpt>
      <trkpt lat="52.331637963652611" lon="7.99456100910902">
        <ele>99.79296875</ele>
        <time>2025-10-08T08:39:58Z</time>
      </trkpt>
      <trkpt lat="52.331794034689665" lon="7.994790002703667">
        <ele>100.35546875</ele>
        <time>2025-10-08T08:40:02Z</time>
      </trkpt>
      <trkpt lat="52.331983968615532" lon="7.99499100074172">
        <ele>100.77734375</ele>
        <time>2025-10-08T08:40:06Z</time>
      </trkpt>
      <trkpt lat="52.332173986360431" lon="7.995165009051561">
        <ele>101.12109375</ele>
        <time>2025-10-08T08:40:10Z</time>
      </trkpt>
      <trkpt lat="52.332367021590471" lon="7.995322002097964">
        <ele>101.85546875</ele>
        <time>2025-10-08T08:40:15Z</time>
      </trkpt>
      <trkpt lat="52.332543041557074" lon="7.99546298570931">
        <ele>102.58203125</ele>
        <time>2025-10-08T08:40:19Z</time>
      </trkpt>
      <trkpt lat="52.332714032381773" lon="7.9956120159477">
        <ele>103.17578125</ele>
        <time>2025-10-08T08:40:23Z</time>
      </trkpt>
      <trkpt lat="52.332920981571078" lon="7.995752999559045">
        <ele>103.6328125</ele>
        <time>2025-10-08T08:40:28Z</time>
      </trkpt>
      <trkpt lat="52.333132037892938" lon="7.995889959856868">
        <ele>104.0234375</ele>
        <time>2025-10-08T08:40:33Z</time>
      </trkpt>
      <trkpt lat="52.333308979868889" lon="7.996030021458864">
        <ele>104.92578125</ele>
        <time>2025-10-08T08:40:37Z</time>
      </trkpt>
      <trkpt lat="52.33348298817873" lon="7.99617201089859">
        <ele>105.45703125</ele>
        <time>2025-10-08T08:40:41Z</time>
      </trkpt>
      <trkpt lat="52.333677029237151" lon="7.99632296897471">
        <ele>106.078125</ele>
        <time>2025-10-08T08:40:45Z</time>
      </trkpt>
      <trkpt lat="52.333881966769695" lon="7.996475016698241">
        <ele>106.76171875</ele>
        <time>2025-10-08T08:40:49Z</time>
      </trkpt>
      <trkpt lat="52.334115989506245" lon="7.996652964502573">
        <ele>105.59375</ele>
        <time>2025-10-08T08:40:53Z</time>
      </trkpt>
      <trkpt lat="52.334355963394046" lon="7.996862009167671">
        <ele>104.03125</ele>
        <time>2025-10-08T08:40:57Z</time>
      </trkpt>
      <trkpt lat="52.334617981687188" lon="7.997048003599048">
        <ele>102.9609375</ele>
        <time>2025-10-08T08:41:01Z</time>
      </trkpt>
      <trkpt lat="52.334855021908879" lon="7.997260987758637">
        <ele>102.27734375</ele>
        <time>2025-10-08T08:41:05Z</time>
      </trkpt>
      <trkpt lat="52.335085021331906" lon="7.997477995231748">
        <ele>101.484375</ele>
        <time>2025-10-08T08:41:09Z</time>
      </trkpt>
      <trkpt lat="52.335315020754933" lon="7.997713023796678">
        <ele>100.53125</ele>
        <time>2025-10-08T08:41:13Z</time>
      </trkpt>
      <trkpt lat="52.335543008521199" lon="7.997931959107518">
        <ele>99.69921875</ele>
        <time>2025-10-08T08:41:17Z</time>
      </trkpt>
      <trkpt lat="52.335768984630704" lon="7.998150978237391">
        <ele>99.58203125</ele>
        <time>2025-10-08T08:41:21Z</time>
      </trkpt>
      <trkpt lat="52.33599797822535" lon="7.998377960175276">
        <ele>99.53125</ele>
        <time>2025-10-08T08:41:25Z</time>
      </trkpt>
      <trkpt lat="52.336224038153887" lon="7.998583987355232">
        <ele>99.265625</ele>
        <time>2025-10-08T08:41:29Z</time>
      </trkpt>
      <trkpt lat="52.336441967636347" lon="7.998806023970246">
        <ele>99.00390625</ele>
        <time>2025-10-08T08:41:33Z</time>
      </trkpt>
      <trkpt lat="52.336668027564883" lon="7.999018002301455">
        <ele>98.82421875</ele>
        <time>2025-10-08T08:41:37Z</time>
      </trkpt>
      <trkpt lat="52.336902972310781" lon="7.99924498423934">
        <ele>98.9375</ele>
        <time>2025-10-08T08:41:41Z</time>
      </trkpt>
      <trkpt lat="52.337133977562189" lon="7.999472972005606">
        <ele>98.859375</ele>
        <time>2025-10-08T08:41:45Z</time>
      </trkpt>
      <trkpt lat="52.337357020005584" lon="7.999697020277381">
        <ele>98.2265625</ele>
        <time>2025-10-08T08:41:49Z</time>
      </trkpt>
      <trkpt lat="52.337518958374858" lon="7.999957026913762">
        <ele>97.5078125</ele>
        <time>2025-10-08T08:41:53Z</time>
      </trkpt>
      <trkpt lat="52.337681986391544" lon="8.000201024115086">
        <ele>97.07421875</ele>
        <time>2025-10-08T08:41:57Z</time>
      </trkpt>
      <trkpt lat="52.337825987488031" lon="7.999947974458337">
        <ele>96.6171875</ele>
        <time>2025-10-08T08:42:01Z</time>
      </trkpt>
      <trkpt lat="52.337950961664319" lon="7.999671036377549">
        <ele>96.046875</ele>
        <time>2025-10-08T08:42:05Z</time>
      </trkpt>
      <trkpt lat="52.338193031027913" lon="7.999723004177213">
        <ele>95.421875</ele>
        <time>2025-10-08T08:42:09Z</time>
      </trkpt>
      <trkpt lat="52.338426969945431" lon="7.999885026365519">
        <ele>95.4921875</ele>
        <time>2025-10-08T08:42:13Z</time>
      </trkpt>
      <trkpt lat="52.338684964925051" lon="7.999834986403585">
        <ele>95.171875</ele>
        <time>2025-10-08T08:42:17Z</time>
      </trkpt>
      <trkpt lat="52.338952012360096" lon="7.999733984470367">
        <ele>94.59375</ele>
        <time>2025-10-08T08:42:21Z</time>
      </trkpt>
      <trkpt lat="52.339205984026194" lon="7.999622002243996">
        <ele>94.375</ele>
        <time>2025-10-08T08:42:25Z</time>
      </trkpt>
      <trkpt lat="52.339471019804478" lon="7.999513959512115">
        <ele>94.26171875</ele>
        <time>2025-10-08T08:42:29Z</time>
      </trkpt>
      <trkpt lat="52.339725997298956" lon="7.999424021691084">
        <ele>94.265625</ele>
        <time>2025-10-08T08:42:33Z</time>
      </trkpt>
      <trkpt lat="52.339978963136673" lon="7.999323019757867">
        <ele>94.0625</ele>
        <time>2025-10-08T08:42:37Z</time>
      </trkpt>
      <trkpt lat="52.340238969773054" lon="7.999220006167889">
        <ele>93.78515625</ele>
        <time>2025-10-08T08:42:41Z</time>
      </trkpt>
      <trkpt lat="52.340491013601422" lon="7.999114980921149">
        <ele>93.54296875</ele>
        <time>2025-10-08T08:42:45Z</time>
      </trkpt>
      <trkpt lat="52.340751020237803" lon="7.99900802783668">
        <ele>93.375</ele>
        <time>2025-10-08T08:42:49Z</time>
      </trkpt>
      <trkpt lat="52.341013960540295" lon="7.998903002589941">
        <ele>93.29296875</ele>
        <time>2025-10-08T08:42:53Z</time>
      </trkpt>
      <trkpt lat="52.34128100797534" lon="7.998807029798627">
        <ele>93.3046875</ele>
        <time>2025-10-08T08:42:57Z</time>
      </trkpt>
      <trkpt lat="52.341522993519902" lon="7.998717008158565">
        <ele>93.4375</ele>
        <time>2025-10-08T08:43:01Z</time>
      </trkpt>
      <trkpt lat="52.341769002377987" lon="7.998624974861741">
        <ele>93.66796875</ele>
        <time>2025-10-08T08:43:05Z</time>
      </trkpt>
      <trkpt lat="52.342016017064452" lon="7.998525984585285">
        <ele>93.82421875</ele>
        <time>2025-10-08T08:43:09Z</time>
      </trkpt>
      <trkpt lat="52.342264037579298" lon="7.99842800013721">
        <ele>93.98828125</ele>
        <time>2025-10-08T08:43:13Z</time>
      </trkpt>
      <trkpt lat="52.342520020902157" lon="7.99832196906209">
        <ele>94.93359375</ele>
        <time>2025-10-08T08:43:17Z</time>
      </trkpt>
      <trkpt lat="52.342761000618339" lon="7.998225996270776">
        <ele>95.9140625</ele>
        <time>2025-10-08T08:43:21Z</time>
      </trkpt>
      <trkpt lat="52.342975996434689" lon="7.998134968802333">
        <ele>96.85546875</ele>
        <time>2025-10-08T08:43:25Z</time>
      </trkpt>
      <trkpt lat="52.343181017786264" lon="7.998043019324541">
        <ele>97.6328125</ele>
        <time>2025-10-08T08:43:29Z</time>
      </trkpt>
      <trkpt lat="52.343380004167557" lon="7.997994991019368">
        <ele>98.03125</ele>
        <time>2025-10-08T08:43:33Z</time>
      </trkpt>
      <trkpt lat="52.343576978892088" lon="7.998022986575961">
        <ele>98.35546875</ele>
        <time>2025-10-08T08:43:37Z</time>
      </trkpt>
      <trkpt lat="52.343778982758522" lon="7.998083001002669">
        <ele>98.69921875</ele>
        <time>2025-10-08T08:43:41Z</time>
      </trkpt>
      <trkpt lat="52.343981992453337" lon="7.9981470387429">
        <ele>98.94921875</ele>
        <time>2025-10-08T08:43:45Z</time>
      </trkpt>
      <trkpt lat="52.34418198466301" lon="7.998210992664099">
        <ele>98.7109375</ele>
        <time>2025-10-08T08:43:49Z</time>
      </trkpt>
      <trkpt lat="52.34439698047936" lon="7.998263966292143">
        <ele>98.453125</ele>
        <time>2025-10-08T08:43:53Z</time>
      </trkpt>
      <trkpt lat="52.34461298212409" lon="7.998334961012006">
        <ele>98.19140625</ele>
        <time>2025-10-08T08:43:57Z</time>
      </trkpt>
      <trkpt lat="52.344839964061975" lon="7.998389024287462">
        <ele>97.9921875</ele>
        <time>2025-10-08T08:44:01Z</time>
      </trkpt>
      <trkpt lat="52.34508203342557" lon="7.998462030664086">
        <ele>98</ele>
        <time>2025-10-08T08:44:05Z</time>
      </trkpt>
      <trkpt lat="52.345327958464622" lon="7.998527996242046">
        <ele>98.02734375</ele>
        <time>2025-10-08T08:44:09Z</time>
      </trkpt>
      <trkpt lat="52.345569021999836" lon="7.998640984296799">
        <ele>98.0078125</ele>
        <time>2025-10-08T08:44:13Z</time>
      </trkpt>
      <trkpt lat="52.345822993665934" lon="7.998713990673423">
        <ele>97.55859375</ele>
        <time>2025-10-08T08:44:17Z</time>
      </trkpt>
      <trkpt lat="52.346090963110328" lon="7.998779034242034">
        <ele>97.05859375</ele>
        <time>2025-10-08T08:44:21Z</time>
      </trkpt>
      <trkpt lat="52.346354993060231" lon="7.998865032568574">
        <ele>96.640625</ele>
        <time>2025-10-08T08:44:25Z</time>
      </trkpt>
      <trkpt lat="52.346623968333006" lon="7.998952036723495">
        <ele>96.1484375</ele>
        <time>2025-10-08T08:44:29Z</time>
      </trkpt>
      <trkpt lat="52.346904007717967" lon="7.999047003686428">
        <ele>95.58984375</ele>
        <time>2025-10-08T08:44:33Z</time>
      </trkpt>
      <trkpt lat="52.347168037667871" lon="7.999145993962884">
        <ele>95.07421875</ele>
        <time>2025-10-08T08:44:37Z</time>
      </trkpt>
      <trkpt lat="52.347415974363685" lon="7.999267028644681">
        <ele>94.45703125</ele>
        <time>2025-10-08T08:44:41Z</time>
      </trkpt>
      <trkpt lat="52.347677992656827" lon="7.999409018084407">
        <ele>93.5390625</ele>
        <time>2025-10-08T08:44:45Z</time>
      </trkpt>
      <trkpt lat="52.347956020385027" lon="7.999539021402597">
        <ele>92.53515625</ele>
        <time>2025-10-08T08:44:49Z</time>
      </trkpt>
      <trkpt lat="52.348233964294195" lon="7.999697020277381">
        <ele>91.921875</ele>
        <time>2025-10-08T08:44:53Z</time>
      </trkpt>
      <trkpt lat="52.348492965102196" lon="7.999833980575204">
        <ele>91.8359375</ele>
        <time>2025-10-08T08:44:57Z</time>
      </trkpt>
      <trkpt lat="52.348744003102183" lon="7.999944034963846">
        <ele>91.83203125</ele>
        <time>2025-10-08T08:45:01Z</time>
      </trkpt>
      <trkpt lat="52.349012978374958" lon="7.999871028587222">
        <ele>91.5390625</ele>
        <time>2025-10-08T08:45:05Z</time>
      </trkpt>
      <trkpt lat="52.349279019981623" lon="7.999741025269032">
        <ele>90.90625</ele>
        <time>2025-10-08T08:45:09Z</time>
      </trkpt>
      <trkpt lat="52.349537014961243" lon="7.999624013900757">
        <ele>90.390625</ele>
        <time>2025-10-08T08:45:13Z</time>
      </trkpt>
      <trkpt lat="52.349805990234017" lon="7.999497028067708">
        <ele>89.9140625</ele>
        <time>2025-10-08T08:45:17Z</time>
      </trkpt>
      <trkpt lat="52.350078988820314" lon="7.999375993385911">
        <ele>89.2578125</ele>
        <time>2025-10-08T08:45:21Z</time>
      </trkpt>
      <trkpt lat="52.350365985184908" lon="7.999282032251358">
        <ele>88.55859375</ele>
        <time>2025-10-08T08:45:25Z</time>
      </trkpt>
      <trkpt lat="52.35064996406436" lon="7.999196033924818">
        <ele>87.78515625</ele>
        <time>2025-10-08T08:45:29Z</time>
      </trkpt>
      <trkpt lat="52.350845010951161" lon="7.999318996444345">
        <ele>87.41796875</ele>
        <time>2025-10-08T08:45:33Z</time>
      </trkpt>
      <trkpt lat="52.350976020097733" lon="7.999579003080726">
        <ele>87.10546875</ele>
        <time>2025-10-08T08:45:37Z</time>
      </trkpt>
      <trkpt lat="52.351138964295387" lon="7.999402983114123">
        <ele>86.71484375</ele>
        <time>2025-10-08T08:45:41Z</time>
      </trkpt>
      <trkpt lat="52.351182969287038" lon="7.999026970937848">
        <ele>86.734375</ele>
        <time>2025-10-08T08:45:45Z</time>
      </trkpt>
      <trkpt lat="52.351192021742463" lon="7.99866302870214">
        <ele>86.8984375</ele>
        <time>2025-10-08T08:45:49Z</time>
      </trkpt>
      <trkpt lat="52.351064030081034" lon="7.998354993760586">
        <ele>87</ele>
        <time>2025-10-08T08:45:53Z</time>
      </trkpt>
      <trkpt lat="52.3510139901191" lon="7.997960038483143">
        <ele>87</ele>
        <time>2025-10-08T08:45:57Z</time>
      </trkpt>
      <trkpt lat="52.35099102370441" lon="7.997527029365301">
        <ele>86.7578125</ele>
        <time>2025-10-08T08:46:01Z</time>
      </trkpt>
      <trkpt lat="52.350988006219268" lon="7.997067030519247">
        <ele>85.65625</ele>
        <time>2025-10-08T08:46:05Z</time>
      </trkpt>
      <trkpt lat="52.350977025926113" lon="7.99658196978271">
        <ele>84.375</ele>
        <time>2025-10-08T08:46:09Z</time>
      </trkpt>
      <trkpt lat="52.350967973470688" lon="7.996117025613785">
        <ele>83.015625</ele>
        <time>2025-10-08T08:46:13Z</time>
      </trkpt>
      <trkpt lat="52.35095095820725" lon="7.995704971253872">
        <ele>81.7109375</ele>
        <time>2025-10-08T08:46:17Z</time>
      </trkpt>
      <trkpt lat="52.350938972085714" lon="7.995280008763075">
        <ele>80.30078125</ele>
        <time>2025-10-08T08:46:21Z</time>
      </trkpt>
      <trkpt lat="52.350936038419604" lon="7.994867032393813">
        <ele>79.171875</ele>
        <time>2025-10-08T08:46:25Z</time>
      </trkpt>
      <trkpt lat="52.350922962650657" lon="7.994437962770462">
        <ele>78.19140625</ele>
        <time>2025-10-08T08:46:29Z</time>
      </trkpt>
      <trkpt lat="52.350896978750825" lon="7.994028003886342">
        <ele>77.828125</ele>
        <time>2025-10-08T08:46:33Z</time>
      </trkpt>
      <trkpt lat="52.350892033427954" lon="7.993612010031939">
        <ele>77.67578125</ele>
        <time>2025-10-08T08:46:37Z</time>
      </trkpt>
      <trkpt lat="52.350891027599573" lon="7.993233986198902">
        <ele>77.6171875</ele>
        <time>2025-10-08T08:46:41Z</time>
      </trkpt>
      <trkpt lat="52.350879041478038" lon="7.992860991507769">
        <ele>77.67578125</ele>
        <time>2025-10-08T08:46:45Z</time>
      </trkpt>
      <trkpt lat="52.350875018164515" lon="7.992534013465047">
        <ele>78.1171875</ele>
        <time>2025-10-08T08:46:49Z</time>
      </trkpt>
      <trkpt lat="52.351021030917764" lon="7.992281969636679">
        <ele>78.45703125</ele>
        <time>2025-10-08T08:46:55Z</time>
      </trkpt>
      <trkpt lat="52.351233009248972" lon="7.992211980745196">
        <ele>77.60546875</ele>
        <time>2025-10-08T08:46:59Z</time>
      </trkpt>
      <trkpt lat="52.351453034207225" lon="7.992148026823998">
        <ele>76.67578125</ele>
        <time>2025-10-08T08:47:03Z</time>
      </trkpt>
      <trkpt lat="52.351670041680336" lon="7.992093041539192">
        <ele>76.08984375</ele>
        <time>2025-10-08T08:47:07Z</time>
      </trkpt>
      <trkpt lat="52.35189501196146" lon="7.992020035162568">
        <ele>75.54296875</ele>
        <time>2025-10-08T08:47:11Z</time>
      </trkpt>
      <trkpt lat="52.352158958092332" lon="7.991934958845377">
        <ele>74.8984375</ele>
        <time>2025-10-08T08:47:15Z</time>
      </trkpt>
      <trkpt lat="52.352404966950417" lon="7.991859018802643">
        <ele>74.77734375</ele>
        <time>2025-10-08T08:47:19Z</time>
      </trkpt>
      <trkpt lat="52.352647036314011" lon="7.991793975234032">
        <ele>75.00390625</ele>
        <time>2025-10-08T08:47:23Z</time>
      </trkpt>
      <trkpt lat="52.352872006595135" lon="7.99172499217093">
        <ele>74.984375</ele>
        <time>2025-10-08T08:47:27Z</time>
      </trkpt>
      <trkpt lat="52.353104017674923" lon="7.991666989400983">
        <ele>74.83984375</ele>
        <time>2025-10-08T08:47:31Z</time>
      </trkpt>
      <trkpt lat="52.353342985734344" lon="7.991572022438049">
        <ele>74.44140625</ele>
        <time>2025-10-08T08:47:35Z</time>
      </trkpt>
      <trkpt lat="52.353531997650862" lon="7.991621978580952">
        <ele>74.2734375</ele>
        <time>2025-10-08T08:47:40Z</time>
      </trkpt>
      <trkpt lat="52.353587988764048" lon="7.991961026564241">
        <ele>73.7109375</ele>
        <time>2025-10-08T08:47:45Z</time>
      </trkpt>
      <trkpt lat="52.353654038161039" lon="7.99228398129344">
        <ele>72.1953125</ele>
        <time>2025-10-08T08:47:49Z</time>
      </trkpt>
      <trkpt lat="52.353727966547012" lon="7.992623029276729">
        <ele>70.52734375</ele>
        <time>2025-10-08T08:47:53Z</time>
      </trkpt>
      <trkpt lat="52.353821005672216" lon="7.992990994825959">
        <ele>69.34765625</ele>
        <time>2025-10-08T08:47:57Z</time>
      </trkpt>
      <trkpt lat="52.353883031755686" lon="7.993375975638628">
        <ele>68.27734375</ele>
        <time>2025-10-08T08:48:01Z</time>
      </trkpt>
      <trkpt lat="52.353961989283562" lon="7.993720974773169">
        <ele>67.96875</ele>
        <time>2025-10-08T08:48:05Z</time>
      </trkpt>
      <trkpt lat="52.354052010923624" lon="7.994076032191515">
        <ele>67.859375</ele>
        <time>2025-10-08T08:48:09Z</time>
      </trkpt>
      <trkpt lat="52.354098027572036" lon="7.994412984699011">
        <ele>68.03125</ele>
        <time>2025-10-08T08:48:13Z</time>
      </trkpt>
      <trkpt lat="52.354102972894907" lon="7.99477600492537">
        <ele>68.71875</ele>
        <time>2025-10-08T08:48:17Z</time>
      </trkpt>
      <trkpt lat="52.354088975116611" lon="7.995127039030194">
        <ele>69.44140625</ele>
        <time>2025-10-08T08:48:21Z</time>
      </trkpt>
      <trkpt lat="52.354075983166695" lon="7.995480000972748">
        <ele>69.5625</ele>
        <time>2025-10-08T08:48:25Z</time>
      </trkpt>
      <trkpt lat="52.354074977338314" lon="7.995843021199107">
        <ele>69.63671875</ele>
        <time>2025-10-08T08:48:29Z</time>
      </trkpt>
      <trkpt lat="52.35406500287354" lon="7.996185002848506">
        <ele>69.234375</ele>
        <time>2025-10-08T08:48:33Z</time>
      </trkpt>
      <trkpt lat="52.354067014530301" lon="7.99653796479106">
        <ele>68.51953125</ele>
        <time>2025-10-08T08:48:40Z</time>
      </trkpt>
      <trkpt lat="52.354278992861509" lon="7.996603008359671">
        <ele>68.26953125</ele>
        <time>2025-10-08T08:48:46Z</time>
      </trkpt>
      <trkpt lat="52.354483008384705" lon="7.996613988652825">
        <ele>68.1484375</ele>
        <time>2025-10-08T08:48:50Z</time>
      </trkpt>
      <trkpt lat="52.354699010029435" lon="7.996631003916264">
        <ele>68.03125</ele>
        <time>2025-10-08T08:48:54Z</time>
      </trkpt>
      <trkpt lat="52.354907970875502" lon="7.996660005301237">
        <ele>68</ele>
        <time>2025-10-08T08:48:58Z</time>
      </trkpt>
      <trkpt lat="52.355112992227077" lon="7.99670803360641">
        <ele>68</ele>
        <time>2025-10-08T08:49:02Z</time>
      </trkpt>
      <trkpt lat="52.355339974164963" lon="7.996683977544308">
        <ele>68</ele>
        <time>2025-10-08T08:49:06Z</time>
      </trkpt>
      <trkpt lat="52.355578020215034" lon="7.996669979766011">
        <ele>68</ele>
        <time>2025-10-08T08:49:10Z</time>
      </trkpt>
      <trkpt lat="52.355802990496159" lon="7.996699986979365">
        <ele>68</ele>
        <time>2025-10-08T08:49:14Z</time>
      </trkpt>
      <trkpt lat="52.356015974655747" lon="7.996713984757662">
        <ele>68</ele>
        <time>2025-10-08T08:49:18Z</time>
      </trkpt>
      <trkpt lat="52.35621596686542" lon="7.996744997799397">
        <ele>68</ele>
        <time>2025-10-08T08:49:23Z</time>
      </trkpt>
      <trkpt lat="52.35647396184504" lon="7.996777016669512">
        <ele>67.94921875</ele>
        <time>2025-10-08T08:49:41Z</time>
      </trkpt>
      <trkpt lat="52.356682000681758" lon="7.996804006397724">
        <ele>67.69140625</ele>
        <time>2025-10-08T08:49:45Z</time>
      </trkpt>
      <trkpt lat="52.356927003711462" lon="7.99683895893395">
        <ele>67.38671875</ele>
        <time>2025-10-08T08:49:49Z</time>
      </trkpt>
      <trkpt lat="52.357166977599263" lon="7.996867960318923">
        <ele>67.109375</ele>
        <time>2025-10-08T08:49:53Z</time>
      </trkpt>
      <trkpt lat="52.357407035306096" lon="7.996885981410742">
        <ele>66.83203125</ele>
        <time>2025-10-08T08:49:57Z</time>
      </trkpt>
      <trkpt lat="52.357652960345149" lon="7.996915988624096">
        <ele>66.53515625</ele>
        <time>2025-10-08T08:50:01Z</time>
      </trkpt>
      <trkpt lat="52.357906010001898" lon="7.996962005272508">
        <ele>66.23046875</ele>
        <time>2025-10-08T08:50:05Z</time>
      </trkpt>
      <trkpt lat="52.35814698971808" lon="7.996993018314242">
        <ele>66</ele>
        <time>2025-10-08T08:50:09Z</time>
      </trkpt>
      <trkpt lat="52.358391992747784" lon="7.997029982507229">
        <ele>66</ele>
        <time>2025-10-08T08:50:13Z</time>
      </trkpt>
      <trkpt lat="52.358628027141094" lon="7.997051021084189">
        <ele>66</ele>
        <time>2025-10-08T08:50:17Z</time>
      </trkpt>
      <trkpt lat="52.358868001028895" lon="7.997079016640782">
        <ele>66</ele>
        <time>2025-10-08T08:50:21Z</time>
      </trkpt>
      <trkpt lat="52.359090959653258" lon="7.997110029682517">
        <ele>66.07421875</ele>
        <time>2025-10-08T08:50:25Z</time>
      </trkpt>
      <trkpt lat="52.359320959076285" lon="7.997129978612065">
        <ele>66.1875</ele>
        <time>2025-10-08T08:50:29Z</time>
      </trkpt>
      <trkpt lat="52.359528997913003" lon="7.997147999703884">
        <ele>66.3046875</ele>
        <time>2025-10-08T08:50:33Z</time>
      </trkpt>
      <trkpt lat="52.359649026766419" lon="7.997414963319898">
        <ele>66.640625</ele>
        <time>2025-10-08T08:50:37Z</time>
      </trkpt>
      <trkpt lat="52.359617007896304" lon="7.997774966061115">
        <ele>66.85546875</ele>
        <time>2025-10-08T08:50:41Z</time>
      </trkpt>
      <trkpt lat="52.359593035653234" lon="7.998150978237391">
        <ele>66.921875</ele>
        <time>2025-10-08T08:50:45Z</time>
      </trkpt>
      <trkpt lat="52.359577026218176" lon="7.998518021777272">
        <ele>67.0859375</ele>
        <time>2025-10-08T08:50:49Z</time>
      </trkpt>
      <trkpt lat="52.359547019004822" lon="7.998892022296786">
        <ele>67.65234375</ele>
        <time>2025-10-08T08:50:53Z</time>
      </trkpt>
      <trkpt lat="52.359522962942719" lon="7.999275997281075">
        <ele>68.265625</ele>
        <time>2025-10-08T08:50:57Z</time>
      </trkpt>
      <trkpt lat="52.359506031498313" lon="7.999658966436982">
        <ele>68.61328125</ele>
        <time>2025-10-08T08:51:01Z</time>
      </trkpt>
      <trkpt lat="52.359520029276609" lon="8.000003965571523">
        <ele>68.8984375</ele>
        <time>2025-10-08T08:51:05Z</time>
      </trkpt>
      <trkpt lat="52.359722033143044" lon="8.000041013583541">
        <ele>68.90234375</ele>
        <time>2025-10-08T08:51:09Z</time>
      </trkpt>
      <trkpt lat="52.359916996210814" lon="7.999893995001912">
        <ele>69.5078125</ele>
        <time>2025-10-08T08:51:13Z</time>
      </trkpt>
      <trkpt lat="52.360125035047531" lon="7.999747982248664">
        <ele>70.4765625</ele>
        <time>2025-10-08T08:51:17Z</time>
      </trkpt>
      <trkpt lat="52.360313963145018" lon="7.999594006687403">
        <ele>71.421875</ele>
        <time>2025-10-08T08:51:21Z</time>
      </trkpt>
      <trkpt lat="52.360506998375058" lon="7.999455034732819">
        <ele>72.48046875</ele>
        <time>2025-10-08T08:51:25Z</time>
      </trkpt>
      <trkpt lat="52.360744960606098" lon="7.999399965628982">
        <ele>75.23828125</ele>
        <time>2025-10-08T08:51:30Z</time>
      </trkpt>
      <trkpt lat="52.360926009714603" lon="7.999281026422977">
        <ele>78.0859375</ele>
        <time>2025-10-08T08:51:36Z</time>
      </trkpt>
      <trkpt lat="52.361033968627453" lon="7.998949019238353">
        <ele>78.36328125</ele>
        <time>2025-10-08T08:51:41Z</time>
      </trkpt>
      <trkpt lat="52.361131031066179" lon="7.998636960983276">
        <ele>78.46875</ele>
        <time>2025-10-08T08:51:45Z</time>
      </trkpt>
      <trkpt lat="52.36124200746417" lon="7.998285004869103">
        <ele>78.3828125</ele>
        <time>2025-10-08T08:51:50Z</time>
      </trkpt>
      <trkpt lat="52.36134803853929" lon="7.997984010726214">
        <ele>78.1328125</ele>
        <time>2025-10-08T08:51:54Z</time>
      </trkpt>
      <trkpt lat="52.361491033807397" lon="7.997632976621389">
        <ele>77.109375</ele>
        <time>2025-10-08T08:51:58Z</time>
      </trkpt>
      <trkpt lat="52.361636040732265" lon="7.997276997193694">
        <ele>75.25</ele>
        <time>2025-10-08T08:52:02Z</time>
      </trkpt>
      <trkpt lat="52.36177702434361" lon="7.996895033866167">
        <ele>73.38671875</ele>
        <time>2025-10-08T08:52:06Z</time>
      </trkpt>
      <trkpt lat="52.361892024055123" lon="7.996525978669524">
        <ele>72.5</ele>
        <time>2025-10-08T08:52:10Z</time>
      </trkpt>
      <trkpt lat="52.362011969089508" lon="7.996232025325298">
        <ele>72.31640625</ele>
        <time>2025-10-08T08:52:14Z</time>
      </trkpt>
      <trkpt lat="52.362195029854774" lon="7.99601904116571">
        <ele>72.75390625</ele>
        <time>2025-10-08T08:52:18Z</time>
      </trkpt>
      <trkpt lat="52.362353028729558" lon="7.995702959597111">
        <ele>72.1953125</ele>
        <time>2025-10-08T08:52:22Z</time>
      </trkpt>
      <trkpt lat="52.362516978755593" lon="7.99541998654604">
        <ele>71.2890625</ele>
        <time>2025-10-08T08:52:26Z</time>
      </trkpt>
      <trkpt lat="52.362697022035718" lon="7.995137013494968">
        <ele>70.4921875</ele>
        <time>2025-10-08T08:52:30Z</time>
      </trkpt>
      <trkpt lat="52.362870024517179" lon="7.994854962453246">
        <ele>69.8515625</ele>
        <time>2025-10-08T08:52:34Z</time>
      </trkpt>
      <trkpt lat="52.363053001463413" lon="7.994594033807516">
        <ele>69.375</ele>
        <time>2025-10-08T08:52:38Z</time>
      </trkpt>
      <trkpt lat="52.363220974802971" lon="7.994301002472639">
        <ele>68.70703125</ele>
        <time>2025-10-08T08:52:42Z</time>
      </trkpt>
      <trkpt lat="52.363419039174914" lon="7.994036972522736">
        <ele>68.84375</ele>
        <time>2025-10-08T08:52:46Z</time>
      </trkpt>
      <trkpt lat="52.363609978929162" lon="7.993745030835271">
        <ele>69.0859375</ele>
        <time>2025-10-08T08:52:50Z</time>
      </trkpt>
      <trkpt lat="52.363807037472725" lon="7.993457028642297">
        <ele>69.3125</ele>
        <time>2025-10-08T08:52:54Z</time>
      </trkpt>
      <trkpt lat="52.364006023854017" lon="7.993168020620942">
        <ele>70.12109375</ele>
        <time>2025-10-08T08:52:58Z</time>
      </trkpt>
      <trkpt lat="52.364204004406929" lon="7.992880018427968">
        <ele>71.19921875</ele>
        <time>2025-10-08T08:53:02Z</time>
      </trkpt>
      <trkpt lat="52.364397961646318" lon="7.992588998749852">
        <ele>71.9375</ele>
        <time>2025-10-08T08:53:06Z</time>
      </trkpt>
      <trkpt lat="52.364599965512753" lon="7.992298984900117">
        <ele>71.11328125</ele>
        <time>2025-10-08T08:53:10Z</time>
      </trkpt>
      <trkpt lat="52.364799035713077" lon="7.992001008242369">
        <ele>69.7578125</ele>
        <time>2025-10-08T08:53:14Z</time>
      </trkpt>
      <trkpt lat="52.36500296741724" lon="7.991704037413001">
        <ele>68.6328125</ele>
        <time>2025-10-08T08:53:18Z</time>
      </trkpt>
      <trkpt lat="52.365240007638931" lon="7.991526005789638">
        <ele>67.8359375</ele>
        <time>2025-10-08T08:53:22Z</time>
      </trkpt>
      <trkpt lat="52.365487022325397" lon="7.991377981379628">
        <ele>67.05078125</ele>
        <time>2025-10-08T08:53:26Z</time>
      </trkpt>
      <trkpt lat="52.365734959021211" lon="7.991232974454761">
        <ele>66.45703125</ele>
        <time>2025-10-08T08:53:30Z</time>
      </trkpt>
      <trkpt lat="52.366001000627875" lon="7.991173965856433">
        <ele>66.49609375</ele>
        <time>2025-10-08T08:53:34Z</time>
      </trkpt>
      <trkpt lat="52.366254972293973" lon="7.991101965308189">
        <ele>66.453125</ele>
        <time>2025-10-08T08:53:38Z</time>
      </trkpt>
      <trkpt lat="52.366474997252226" lon="7.991005992516875">
        <ele>66.0234375</ele>
        <time>2025-10-08T08:53:42Z</time>
      </trkpt>
      <trkpt lat="52.366652023047209" lon="7.99082200974226">
        <ele>64.76953125</ele>
        <time>2025-10-08T08:53:46Z</time>
      </trkpt>
      <trkpt lat="52.366698961704969" lon="7.990423031151295">
        <ele>63.49609375</ele>
        <time>2025-10-08T08:53:50Z</time>
      </trkpt>
      <trkpt lat="52.36674003303051" lon="7.990045007318258">
        <ele>62.51953125</ele>
        <time>2025-10-08T08:53:54Z</time>
      </trkpt>
      <trkpt lat="52.366780014708638" lon="7.989645022898912">
        <ele>61.9921875</ele>
        <time>2025-10-08T08:53:58Z</time>
      </trkpt>
      <trkpt lat="52.366819996386766" lon="7.989260964095593">
        <ele>61.52734375</ele>
        <time>2025-10-08T08:54:02Z</time>
      </trkpt>
      <trkpt lat="52.366861989721656" lon="7.988873971626163">
        <ele>61.4765625</ele>
        <time>2025-10-08T08:54:06Z</time>
      </trkpt>
      <trkpt lat="52.366913035511971" lon="7.98847901634872">
        <ele>61.41796875</ele>
        <time>2025-10-08T08:54:10Z</time>
      </trkpt>
      <trkpt lat="52.366952011361718" lon="7.988104010000825">
        <ele>61.20703125</ele>
        <time>2025-10-08T08:54:14Z</time>
      </trkpt>
      <trkpt lat="52.367002973333001" lon="7.987692961469293">
        <ele>61.0234375</ele>
        <time>2025-10-08T08:54:18Z</time>
      </trkpt>
      <trkpt lat="52.367052007466555" lon="7.987285014241934">
        <ele>61</ele>
        <time>2025-10-08T08:54:22Z</time>
      </trkpt>
      <trkpt lat="52.367100035771728" lon="7.986887041479349">
        <ele>61</ele>
        <time>2025-10-08T08:54:26Z</time>
      </trkpt>
      <trkpt lat="52.367142029106617" lon="7.986497031524777">
        <ele>60.94921875</ele>
        <time>2025-10-08T08:54:30Z</time>
      </trkpt>
      <trkpt lat="52.367182010784745" lon="7.986110039055347">
        <ele>60.921875</ele>
        <time>2025-10-08T08:54:34Z</time>
      </trkpt>
      <trkpt lat="52.367291981354356" lon="7.985779959708452">
        <ele>61.1796875</ele>
        <time>2025-10-08T08:54:38Z</time>
      </trkpt>
      <trkpt lat="52.367519969120622" lon="7.985713994130492">
        <ele>60.8984375</ele>
        <time>2025-10-08T08:54:42Z</time>
      </trkpt>
      <trkpt lat="52.367765977978706" lon="7.985670994967222">
        <ele>60.53125</ele>
        <time>2025-10-08T08:54:46Z</time>
      </trkpt>
      <trkpt lat="52.368025984615088" lon="7.985607963055372">
        <ele>60.11328125</ele>
        <time>2025-10-08T08:54:50Z</time>
      </trkpt>
      <trkpt lat="52.368286997079849" lon="7.98555901274085">
        <ele>59.765625</ele>
        <time>2025-10-08T08:54:54Z</time>
      </trkpt>
      <trkpt lat="52.36854700371623" lon="7.985511990264058">
        <ele>59.453125</ele>
        <time>2025-10-08T08:54:58Z</time>
      </trkpt>
      <trkpt lat="52.368816984817386" lon="7.985452981665731">
        <ele>59.12890625</ele>
        <time>2025-10-08T08:55:02Z</time>
      </trkpt>
      <trkpt lat="52.369079003110528" lon="7.985418029129505">
        <ele>59.8046875</ele>
        <time>2025-10-08T08:55:06Z</time>
      </trkpt>
      <trkpt lat="52.369339009746909" lon="7.985357008874416">
        <ele>61.01953125</ele>
        <time>2025-10-08T08:55:10Z</time>
      </trkpt>
      <trkpt lat="52.369587030261755" lon="7.985301017761231">
        <ele>62.01953125</ele>
        <time>2025-10-08T08:55:14Z</time>
      </trkpt>
      <trkpt lat="52.369710998609662" lon="7.985026007518172">
        <ele>61.453125</ele>
        <time>2025-10-08T08:55:18Z</time>
      </trkpt>
      <trkpt lat="52.369709992781281" lon="7.984602972865105">
        <ele>59.984375</ele>
        <time>2025-10-08T08:55:22Z</time>
      </trkpt>
      <trkpt lat="52.369720973074436" lon="7.98418496735394">
        <ele>58.81640625</ele>
        <time>2025-10-08T08:55:26Z</time>
      </trkpt>
      <trkpt lat="52.369743017479777" lon="7.983779031783342">
        <ele>58.35546875</ele>
        <time>2025-10-08T08:55:30Z</time>
      </trkpt>
      <trkpt lat="52.369755003601313" lon="7.983378041535616">
        <ele>57.88671875</ele>
        <time>2025-10-08T08:55:34Z</time>
      </trkpt>
      <trkpt lat="52.369763972237706" lon="7.982989037409425">
        <ele>57.41796875</ele>
        <time>2025-10-08T08:55:38Z</time>
      </trkpt>
      <trkpt lat="52.369780987501144" lon="7.982598021626473">
        <ele>57.015625</ele>
        <time>2025-10-08T08:55:42Z</time>
      </trkpt>
      <trkpt lat="52.369806971400976" lon="7.98218697309494">
        <ele>57.44921875</ele>
        <time>2025-10-08T08:55:46Z</time>
      </trkpt>
      <trkpt lat="52.36981300637126" lon="7.981781959533691">
        <ele>57.8671875</ele>
        <time>2025-10-08T08:55:50Z</time>
      </trkpt>
      <trkpt lat="52.369803031906486" lon="7.981375018134713">
        <ele>57.86328125</ele>
        <time>2025-10-08T08:55:54Z</time>
      </trkpt>
      <trkpt lat="52.369787022471428" lon="7.980973022058606">
        <ele>57.89453125</ele>
        <time>2025-10-08T08:55:58Z</time>
      </trkpt>
      <trkpt lat="52.369767995551229" lon="7.980592986568809">
        <ele>57.96484375</ele>
        <time>2025-10-08T08:56:02Z</time>
      </trkpt>
      <trkpt lat="52.369753997772932" lon="7.980196019634605">
        <ele>58.01171875</ele>
        <time>2025-10-08T08:56:06Z</time>
      </trkpt>
      <trkpt lat="52.369744023308158" lon="7.979798968881369">
        <ele>57.62109375</ele>
        <time>2025-10-08T08:56:10Z</time>
      </trkpt>
      <trkpt lat="52.369737988337874" lon="7.979386998340488">
        <ele>57.125</ele>
        <time>2025-10-08T08:56:14Z</time>
      </trkpt>
      <trkpt lat="52.369714016094804" lon="7.97896396368742">
        <ele>56.234375</ele>
        <time>2025-10-08T08:56:18Z</time>
      </trkpt>
      <trkpt lat="52.369700018316507" lon="7.978531960397959">
        <ele>55.21484375</ele>
        <time>2025-10-08T08:56:22Z</time>
      </trkpt>
      <trkpt lat="52.369683003053069" lon="7.978111021220684">
        <ele>55.80078125</ele>
        <time>2025-10-08T08:56:26Z</time>
      </trkpt>
      <trkpt lat="52.369672022759914" lon="7.97771698795259">
        <ele>56.54296875</ele>
        <time>2025-10-08T08:56:30Z</time>
      </trkpt>
      <trkpt lat="52.3697470407933" lon="7.977409958839417">
        <ele>57.5078125</ele>
        <time>2025-10-08T08:56:34Z</time>
      </trkpt>
      <trkpt lat="52.369973016902804" lon="7.977361008524895">
        <ele>57.83984375</ele>
        <time>2025-10-08T08:56:38Z</time>
      </trkpt>
      <trkpt lat="52.370205027982593" lon="7.977328989654779">
        <ele>58.14453125</ele>
        <time>2025-10-08T08:56:42Z</time>
      </trkpt>
      <trkpt lat="52.370437039062381" lon="7.977271992713213">
        <ele>58.6015625</ele>
        <time>2025-10-08T08:56:46Z</time>
      </trkpt>
      <trkpt lat="52.370679024606943" lon="7.977224970236421">
        <ele>58.98828125</ele>
        <time>2025-10-08T08:56:50Z</time>
      </trkpt>
      <trkpt lat="52.370921010151505" lon="7.977163027971983">
        <ele>59.34375</ele>
        <time>2025-10-08T08:56:54Z</time>
      </trkpt>
      <trkpt lat="52.371164001524448" lon="7.977106031030417">
        <ele>59.75390625</ele>
        <time>2025-10-08T08:56:58Z</time>
      </trkpt>
      <trkpt lat="52.371423002332449" lon="7.977063031867147">
        <ele>60.15234375</ele>
        <time>2025-10-08T08:57:02Z</time>
      </trkpt>
      <trkpt lat="52.371680997312069" lon="7.977017015218735">
        <ele>60.8671875</ele>
        <time>2025-10-08T08:57:06Z</time>
      </trkpt>
      <trkpt lat="52.371926000341773" lon="7.976964041590691">
        <ele>61.7265625</ele>
        <time>2025-10-08T08:57:10Z</time>
      </trkpt>
      <trkpt lat="52.37217796035111" lon="7.976916013285518">
        <ele>62.6640625</ele>
        <time>2025-10-08T08:57:14Z</time>
      </trkpt>
      <trkpt lat="52.372418018057942" lon="7.976861028000712">
        <ele>62.8671875</ele>
        <time>2025-10-08T08:57:18Z</time>
      </trkpt>
      <trkpt lat="52.37267198972404" lon="7.976806964725256">
        <ele>62.5</ele>
        <time>2025-10-08T08:57:22Z</time>
      </trkpt>
      <trkpt lat="52.372916992753744" lon="7.976764971390367">
        <ele>61.8203125</ele>
        <time>2025-10-08T08:57:26Z</time>
      </trkpt>
      <trkpt lat="52.373156966641545" lon="7.976718032732606">
        <ele>60.9921875</ele>
        <time>2025-10-08T08:57:30Z</time>
      </trkpt>
      <trkpt lat="52.373395012691617" lon="7.976666986942291">
        <ele>59.65234375</ele>
        <time>2025-10-08T08:57:34Z</time>
      </trkpt>
      <trkpt lat="52.373632974922657" lon="7.976605966687203">
        <ele>58.23046875</ele>
        <time>2025-10-08T08:57:38Z</time>
      </trkpt>
      <trkpt lat="52.373876972123981" lon="7.976563973352313">
        <ele>56.609375</ele>
        <time>2025-10-08T08:57:42Z</time>
      </trkpt>
      <trkpt lat="52.374118035659194" lon="7.97651200555265">
        <ele>56.03515625</ele>
        <time>2025-10-08T08:57:46Z</time>
      </trkpt>
      <trkpt lat="52.374358009546995" lon="7.976466994732618">
        <ele>55.671875</ele>
        <time>2025-10-08T08:57:50Z</time>
      </trkpt>
      <trkpt lat="52.37460401840508" lon="7.976425001397729">
        <ele>55.265625</ele>
        <time>2025-10-08T08:57:54Z</time>
      </trkpt>
      <trkpt lat="52.374844998121262" lon="7.976374961435795">
        <ele>55.21484375</ele>
        <time>2025-10-08T08:57:58Z</time>
      </trkpt>
      <trkpt lat="52.375084972009063" lon="7.976290974766016">
        <ele>55.79296875</ele>
        <time>2025-10-08T08:58:02Z</time>
      </trkpt>
      <trkpt lat="52.375301979482174" lon="7.976181004196405">
        <ele>56.3125</ele>
        <time>2025-10-08T08:58:06Z</time>
      </trkpt>
      <trkpt lat="52.375515969470143" lon="7.976054018363357">
        <ele>56.828125</ele>
        <time>2025-10-08T08:58:10Z</time>
      </trkpt>
      <trkpt lat="52.375709004700184" lon="7.975942036136985">
        <ele>57.89453125</ele>
        <time>2025-10-08T08:58:14Z</time>
      </trkpt>
      <trkpt lat="52.375902961939573" lon="7.975840028375387">
        <ele>59.24609375</ele>
        <time>2025-10-08T08:58:18Z</time>
      </trkpt>
      <trkpt lat="52.376107983291149" lon="7.975724022835493">
        <ele>60.484375</ele>
        <time>2025-10-08T08:58:22Z</time>
      </trkpt>
      <trkpt lat="52.376295989379287" lon="7.975624026730657">
        <ele>61.44921875</ele>
        <time>2025-10-08T08:58:26Z</time>
      </trkpt>
      <trkpt lat="52.376489024609327" lon="7.975501986220479">
        <ele>61.9609375</ele>
        <time>2025-10-08T08:58:30Z</time>
      </trkpt>
      <trkpt lat="52.376678036525846" lon="7.975386986508966">
        <ele>62.02734375</ele>
        <time>2025-10-08T08:58:34Z</time>
      </trkpt>
      <trkpt lat="52.376865036785603" lon="7.975282967090607">
        <ele>62.2265625</ele>
        <time>2025-10-08T08:58:38Z</time>
      </trkpt>
      <trkpt lat="52.377053964883089" lon="7.975183976814151">
        <ele>62.546875</ele>
        <time>2025-10-08T08:58:42Z</time>
      </trkpt>
      <trkpt lat="52.377252029255033" lon="7.975066965445876">
        <ele>62.90625</ele>
        <time>2025-10-08T08:58:46Z</time>
      </trkpt>
      <trkpt lat="52.377445986494422" lon="7.974960012361407">
        <ele>62.93359375</ele>
        <time>2025-10-08T08:58:50Z</time>
      </trkpt>
      <trkpt lat="52.377639021724463" lon="7.974848030135036">
        <ele>63.13671875</ele>
        <time>2025-10-08T08:58:54Z</time>
      </trkpt>
      <trkpt lat="52.377852005884051" lon="7.974718026816845">
        <ele>63.5859375</ele>
        <time>2025-10-08T08:58:58Z</time>
      </trkpt>
      <trkpt lat="52.378077981993556" lon="7.974592968821526">
        <ele>64.296875</ele>
        <time>2025-10-08T08:59:02Z</time>
      </trkpt>
      <trkpt lat="52.378315022215247" lon="7.974447039887309">
        <ele>65.26171875</ele>
        <time>2025-10-08T08:59:06Z</time>
      </trkpt>
      <trkpt lat="52.378562958911061" lon="7.974303038790822">
        <ele>66.15234375</ele>
        <time>2025-10-08T08:59:10Z</time>
      </trkpt>
      <trkpt lat="52.378821037709713" lon="7.974158031865954">
        <ele>67.1015625</ele>
        <time>2025-10-08T08:59:14Z</time>
      </trkpt>
      <trkpt lat="52.379068974405527" lon="7.974006989970803">
        <ele>67.69140625</ele>
        <time>2025-10-08T08:59:18Z</time>
      </trkpt>
      <trkpt lat="52.379325041547418" lon="7.973857959732413">
        <ele>67.4765625</ele>
        <time>2025-10-08T08:59:22Z</time>
      </trkpt>
      <trkpt lat="52.379588987678289" lon="7.973714964464307">
        <ele>66.59765625</ele>
        <time>2025-10-08T08:59:26Z</time>
      </trkpt>
      <trkpt lat="52.379840025678277" lon="7.973579009994865">
        <ele>64.87890625</ele>
        <time>2025-10-08T08:59:30Z</time>
      </trkpt>
      <trkpt lat="52.380066001787782" lon="7.973435008898377">
        <ele>62.515625</ele>
        <time>2025-10-08T08:59:34Z</time>
      </trkpt>
      <trkpt lat="52.380305975675583" lon="7.973297964781523">
        <ele>60.0859375</ele>
        <time>2025-10-08T08:59:38Z</time>
      </trkpt>
      <trkpt lat="52.380562964826822" lon="7.97326703555882">
        <ele>58.15234375</ele>
        <time>2025-10-08T08:59:42Z</time>
      </trkpt>
      <trkpt lat="52.380806040018797" lon="7.973322020843625">
        <ele>57.3984375</ele>
        <time>2025-10-08T08:59:46Z</time>
      </trkpt>
      <trkpt lat="52.381046013906598" lon="7.973371976986527">
        <ele>56.5625</ele>
        <time>2025-10-08T08:59:50Z</time>
      </trkpt>
      <trkpt lat="52.381266038864851" lon="7.97344297170639">
        <ele>55.69921875</ele>
        <time>2025-10-08T08:59:54Z</time>
      </trkpt>
      <trkpt lat="52.381491009145975" lon="7.973489994183183">
        <ele>55.12109375</ele>
        <time>2025-10-08T08:59:58Z</time>
      </trkpt>
      <trkpt lat="52.381708016619086" lon="7.973552020266652">
        <ele>55.5</ele>
        <time>2025-10-08T09:00:02Z</time>
      </trkpt>
      <trkpt lat="52.381921000778675" lon="7.973622009158135">
        <ele>55.8515625</ele>
        <time>2025-10-08T09:00:06Z</time>
      </trkpt>
      <trkpt lat="52.382133984938264" lon="7.973670037463307">
        <ele>56.125</ele>
        <time>2025-10-08T09:00:10Z</time>
      </trkpt>
      <trkpt lat="52.382345963269472" lon="7.973742038011551">
        <ele>56.3984375</ele>
        <time>2025-10-08T09:00:15Z</time>
      </trkpt>
      <trkpt lat="52.382566994056106" lon="7.97380599193275">
        <ele>56.625</ele>
        <time>2025-10-08T09:00:20Z</time>
      </trkpt>
      <trkpt lat="52.382760029286146" lon="7.973851002752781">
        <ele>56.78515625</ele>
        <time>2025-10-08T09:00:24Z</time>
      </trkpt>
      <trkpt lat="52.382949963212013" lon="7.973894001916051">
        <ele>56.921875</ele>
        <time>2025-10-08T09:00:28Z</time>
      </trkpt>
      <trkpt lat="52.383182980120182" lon="7.973960973322392">
        <ele>57.59765625</ele>
        <time>2025-10-08T09:00:33Z</time>
      </trkpt>
      <trkpt lat="52.383366962894797" lon="7.974038003012538">
        <ele>58.703125</ele>
        <time>2025-10-08T09:00:37Z</time>
      </trkpt>
      <trkpt lat="52.383547006174922" lon="7.974145039916039">
        <ele>59.78515625</ele>
        <time>2025-10-08T09:00:41Z</time>
      </trkpt>
      <trkpt lat="52.383728977292776" lon="7.974248975515366">
        <ele>60.875</ele>
        <time>2025-10-08T09:00:45Z</time>
      </trkpt>
      <trkpt lat="52.383913965895772" lon="7.974317958578467">
        <ele>61.97265625</ele>
        <time>2025-10-08T09:00:49Z</time>
      </trkpt>
      <trkpt lat="52.38414203748107" lon="7.974421977996826">
        <ele>64.265625</ele>
        <time>2025-10-08T09:00:55Z</time>
      </trkpt>
      <trkpt lat="52.384364996105433" lon="7.974496996030211">
        <ele>66.5</ele>
        <time>2025-10-08T09:01:01Z</time>
      </trkpt>
      <trkpt lat="52.384568005800247" lon="7.974575031548739">
        <ele>68.47265625</ele>
        <time>2025-10-08T09:01:07Z</time>
      </trkpt>
      <trkpt lat="52.384757017716765" lon="7.974647032096982">
        <ele>70.26171875</ele>
        <time>2025-10-08T09:01:13Z</time>
      </trkpt>
      <trkpt lat="52.384939994663" lon="7.97473001293838">
        <ele>71.8203125</ele>
        <time>2025-10-08T09:01:19Z</time>
      </trkpt>
      <trkpt lat="52.38513202406466" lon="7.974850041791797">
        <ele>73.37890625</ele>
        <time>2025-10-08T09:01:25Z</time>
      </trkpt>
      <trkpt lat="52.385307960212231" lon="7.975028995424509">
        <ele>74.63671875</ele>
        <time>2025-10-08T09:01:31Z</time>
      </trkpt>
      <trkpt lat="52.385478029027581" lon="7.975156987085939">
        <ele>75.9453125</ele>
        <time>2025-10-08T09:01:37Z</time>
      </trkpt>
      <trkpt lat="52.385714985430241" lon="7.975223958492279">
        <ele>76.875</ele>
        <time>2025-10-08T09:01:45Z</time>
      </trkpt>
      <trkpt lat="52.385923024266958" lon="7.975256983190775">
        <ele>77.046875</ele>
        <time>2025-10-08T09:01:52Z</time>
      </trkpt>
      <trkpt lat="52.386131985113025" lon="7.975318003445864">
        <ele>77.1640625</ele>
        <time>2025-10-08T09:01:58Z</time>
      </trkpt>
      <trkpt lat="52.386386962607503" lon="7.975386986508966">
        <ele>77.3671875</ele>
        <time>2025-10-08T09:02:04Z</time>
      </trkpt>
      <trkpt lat="52.386581003665924" lon="7.975454041734338">
        <ele>77.046875</ele>
        <time>2025-10-08T09:02:08Z</time>
      </trkpt>
      <trkpt lat="52.386772027239203" lon="7.975521013140678">
        <ele>76.65625</ele>
        <time>2025-10-08T09:02:12Z</time>
      </trkpt>
      <trkpt lat="52.386965984478593" lon="7.975624026730657">
        <ele>76.17578125</ele>
        <time>2025-10-08T09:02:16Z</time>
      </trkpt>
      <trkpt lat="52.387154996395111" lon="7.975775990635157">
        <ele>75.5859375</ele>
        <time>2025-10-08T09:02:20Z</time>
      </trkpt>
      <trkpt lat="52.387376027181745" lon="7.975765010342002">
        <ele>75.65625</ele>
        <time>2025-10-08T09:02:24Z</time>
      </trkpt>
      <trkpt lat="52.387593034654856" lon="7.975740032270551">
        <ele>75.9765625</ele>
        <time>2025-10-08T09:02:29Z</time>
      </trkpt>
      <trkpt lat="52.387717003002763" lon="7.976055024191737">
        <ele>75.53515625</ele>
        <time>2025-10-08T09:02:35Z</time>
      </trkpt>
      <trkpt lat="52.387839965522289" lon="7.97640597447753">
        <ele>75.78125</ele>
        <time>2025-10-08T09:05:03Z</time>
      </trkpt>
      <trkpt lat="52.387950019910932" lon="7.976743010804057">
        <ele>76.33203125</ele>
        <time>2025-10-08T09:05:09Z</time>
      </trkpt>
      <trkpt lat="52.388065019622445" lon="7.977059008553624">
        <ele>76.3203125</ele>
        <time>2025-10-08T09:05:14Z</time>
      </trkpt>
      <trkpt lat="52.388154035434127" lon="7.977323960512877">
        <ele>76.765625</ele>
        <time>2025-10-08T09:05:18Z</time>
      </trkpt>
      <trkpt lat="52.388250008225441" lon="7.977588996291161">
        <ele>77.375</ele>
        <time>2025-10-08T09:05:22Z</time>
      </trkpt>
      <trkpt lat="52.388342963531613" lon="7.977897031232715">
        <ele>77.8828125</ele>
        <time>2025-10-08T09:05:26Z</time>
      </trkpt>
      <trkpt lat="52.388437008485198" lon="7.978192996233702">
        <ele>78.00390625</ele>
        <time>2025-10-08T09:05:30Z</time>
      </trkpt>
      <trkpt lat="52.388532981276512" lon="7.978498013690114">
        <ele>77.66796875</ele>
        <time>2025-10-08T09:05:34Z</time>
      </trkpt>
      <trkpt lat="52.388631971552968" lon="7.978804036974907">
        <ele>77.6484375</ele>
        <time>2025-10-08T09:05:38Z</time>
      </trkpt>
      <trkpt lat="52.388740014284849" lon="7.979124980047345">
        <ele>77.5546875</ele>
        <time>2025-10-08T09:05:42Z</time>
      </trkpt>
      <trkpt lat="52.388884015381336" lon="7.979415999725461">
        <ele>77.7265625</ele>
        <time>2025-10-08T09:05:46Z</time>
      </trkpt>
      <trkpt lat="52.389101022854447" lon="7.979504009708762">
        <ele>78.6640625</ele>
        <time>2025-10-08T09:05:50Z</time>
      </trkpt>
      <trkpt lat="52.389313001185656" lon="7.979554971680045">
        <ele>79.62109375</ele>
        <time>2025-10-08T09:05:54Z</time>
      </trkpt>
      <trkpt lat="52.389507964253426" lon="7.979648010805249">
        <ele>80.4453125</ele>
        <time>2025-10-08T09:05:58Z</time>
      </trkpt>
      <trkpt lat="52.389647020027041" lon="7.979836016893387">
        <ele>80.88671875</ele>
        <time>2025-10-08T09:06:02Z</time>
      </trkpt>
      <trkpt lat="52.389713991433382" lon="7.980133993551135">
        <ele>80.8515625</ele>
        <time>2025-10-08T09:06:06Z</time>
      </trkpt>
      <trkpt lat="52.389898980036378" lon="7.980276988819242">
        <ele>81.19921875</ele>
        <time>2025-10-08T09:06:10Z</time>
      </trkpt>
      <trkpt lat="52.39009503275156" lon="7.980387965217233">
        <ele>81.5390625</ele>
        <time>2025-10-08T09:06:14Z</time>
      </trkpt>
      <trkpt lat="52.390254959464073" lon="7.980550993233919">
        <ele>81.7265625</ele>
        <time>2025-10-08T09:06:18Z</time>
      </trkpt>
      <trkpt lat="52.390427961945534" lon="7.980820974335074">
        <ele>81.81640625</ele>
        <time>2025-10-08T09:06:24Z</time>
      </trkpt>
      <trkpt lat="52.390630971640348" lon="7.981020966544747">
        <ele>81.8125</ele>
        <time>2025-10-08T09:06:29Z</time>
      </trkpt>
      <trkpt lat="52.390835992991924" lon="7.981180977076292">
        <ele>81.12890625</ele>
        <time>2025-10-08T09:06:33Z</time>
      </trkpt>
      <trkpt lat="52.391051994636655" lon="7.981332018971443">
        <ele>80.4296875</ele>
        <time>2025-10-08T09:06:37Z</time>
      </trkpt>
      <trkpt lat="52.391271013766527" lon="7.981493035331368">
        <ele>79.7109375</ele>
        <time>2025-10-08T09:06:41Z</time>
      </trkpt>
      <trkpt lat="52.391478968784213" lon="7.98164701089263">
        <ele>78.54296875</ele>
        <time>2025-10-08T09:06:45Z</time>
      </trkpt>
      <trkpt lat="52.391692036762834" lon="7.981791011989117">
        <ele>76.3203125</ele>
        <time>2025-10-08T09:06:49Z</time>
      </trkpt>
      <trkpt lat="52.39183796569705" lon="7.982032997533679">
        <ele>74.91015625</ele>
        <time>2025-10-08T09:06:53Z</time>
      </trkpt>
      <trkpt lat="52.39179496653378" lon="7.982376990839839">
        <ele>75.26171875</ele>
        <time>2025-10-08T09:06:57Z</time>
      </trkpt>
      <trkpt lat="52.391755990684032" lon="7.982701035216451">
        <ele>75.56640625</ele>
        <time>2025-10-08T09:07:01Z</time>
      </trkpt>
      <trkpt lat="52.391719026491046" lon="7.983017032966018">
        <ele>76.07421875</ele>
        <time>2025-10-08T09:07:05Z</time>
      </trkpt>
      <trkpt lat="52.391687007620931" lon="7.983347028493881">
        <ele>76.5859375</ele>
        <time>2025-10-08T09:07:09Z</time>
      </trkpt>
      <trkpt lat="52.391655994579196" lon="7.983661014586687">
        <ele>76.58203125</ele>
        <time>2025-10-08T09:07:13Z</time>
      </trkpt>
      <trkpt lat="52.391618024557829" lon="7.983991010114551">
        <ele>76.328125</ele>
        <time>2025-10-08T09:07:17Z</time>
      </trkpt>
      <trkpt lat="52.391584999859333" lon="7.984357969835401">
        <ele>76.05859375</ele>
        <time>2025-10-08T09:07:21Z</time>
      </trkpt>
      <trkpt lat="52.391551975160837" lon="7.984715960919857">
        <ele>75.98828125</ele>
        <time>2025-10-08T09:07:25Z</time>
      </trkpt>
      <trkpt lat="52.391517022624612" lon="7.985105970874429">
        <ele>75.89453125</ele>
        <time>2025-10-08T09:07:29Z</time>
      </trkpt>
      <trkpt lat="52.391473017632961" lon="7.985509978607297">
        <ele>75.01953125</ele>
        <time>2025-10-08T09:07:33Z</time>
      </trkpt>
      <trkpt lat="52.391437981277704" lon="7.985910968855023">
        <ele>73.94921875</ele>
        <time>2025-10-08T09:07:37Z</time>
      </trkpt>
      <trkpt lat="52.391400011256337" lon="7.986334003508091">
        <ele>73.625</ele>
        <time>2025-10-08T09:07:41Z</time>
      </trkpt>
      <trkpt lat="52.39136204123497" lon="7.986738011240959">
        <ele>73.31640625</ele>
        <time>2025-10-08T09:07:45Z</time>
      </trkpt>
      <trkpt lat="52.39132197573781" lon="7.987142018973827">
        <ele>72.2890625</ele>
        <time>2025-10-08T09:07:49Z</time>
      </trkpt>
      <trkpt lat="52.391274031251669" lon="7.987531023100019">
        <ele>71.3203125</ele>
        <time>2025-10-08T09:07:53Z</time>
      </trkpt>
      <trkpt lat="52.391216028481722" lon="7.987922038882971">
        <ele>70.796875</ele>
        <time>2025-10-08T09:07:57Z</time>
      </trkpt>
      <trkpt lat="52.391192978248" lon="7.988253040239215">
        <ele>70.28125</ele>
        <time>2025-10-08T09:08:01Z</time>
      </trkpt>
      <trkpt lat="52.39123497158289" lon="7.988578006625176">
        <ele>69.16015625</ele>
        <time>2025-10-08T09:08:05Z</time>
      </trkpt>
      <trkpt lat="52.391338991001248" lon="7.988873971626163">
        <ele>67.546875</ele>
        <time>2025-10-08T09:08:11Z</time>
      </trkpt>
      <trkpt lat="52.39151400513947" lon="7.989021996036172">
        <ele>65.92578125</ele>
        <time>2025-10-08T09:08:15Z</time>
      </trkpt>
      <trkpt lat="52.391698993742466" lon="7.989260964095593">
        <ele>64.01953125</ele>
        <time>2025-10-08T09:08:19Z</time>
      </trkpt>
      <trkpt lat="52.391889011487365" lon="7.989587020128965">
        <ele>62.4140625</ele>
        <time>2025-10-08T09:08:23Z</time>
      </trkpt>
      <trkpt lat="52.392081040889025" lon="7.989988010376692">
        <ele>61.015625</ele>
        <time>2025-10-08T09:08:27Z</time>
      </trkpt>
      <trkpt lat="52.392299976199865" lon="7.990409033372998">
        <ele>59.046875</ele>
        <time>2025-10-08T09:08:31Z</time>
      </trkpt>
      <trkpt lat="52.392584038898349" lon="7.990750009194017">
        <ele>57.08203125</ele>
        <time>2025-10-08T09:08:35Z</time>
      </trkpt>
      <trkpt lat="52.392757041379809" lon="7.990866014733911">
        <ele>56.24609375</ele>
        <time>2025-10-08T09:08:37Z</time>
      </trkpt>
      <trkpt lat="52.39293297752738" lon="7.990962993353605">
        <ele>55.51953125</ele>
        <time>2025-10-08T09:08:39Z</time>
      </trkpt>
      <trkpt lat="52.393128024414182" lon="7.991015966981649">
        <ele>54.75390625</ele>
        <time>2025-10-08T09:08:41Z</time>
      </trkpt>
      <trkpt lat="52.3933170363307" lon="7.991045974195004">
        <ele>54.0390625</ele>
        <time>2025-10-08T09:08:43Z</time>
      </trkpt>
      <trkpt lat="52.393504958599806" lon="7.991069024428725">
        <ele>53.3359375</ele>
        <time>2025-10-08T09:08:45Z</time>
      </trkpt>
      <trkpt lat="52.393691958859563" lon="7.991077993065119">
        <ele>52.6484375</ele>
        <time>2025-10-08T09:08:47Z</time>
      </trkpt>
      <trkpt lat="52.393874013796449" lon="7.991092996671796">
        <ele>51.9765625</ele>
        <time>2025-10-08T09:08:49Z</time>
      </trkpt>
      <trkpt lat="52.394137037917972" lon="7.991097019985318">
        <ele>51.06640625</ele>
        <time>2025-10-08T09:08:52Z</time>
      </trkpt>
      <trkpt lat="52.394460998475552" lon="7.991111017763615">
        <ele>49.95703125</ele>
        <time>2025-10-08T09:08:56Z</time>
      </trkpt>
      <trkpt lat="52.39475998096168" lon="7.991130966693163">
        <ele>48.98046875</ele>
        <time>2025-10-08T09:09:00Z</time>
      </trkpt>
      <trkpt lat="52.395018981769681" lon="7.991153011098504">
        <ele>48.66796875</ele>
        <time>2025-10-08T09:09:04Z</time>
      </trkpt>
      <trkpt lat="52.39527303725481" lon="7.991173965856433">
        <ele>48.36328125</ele>
        <time>2025-10-08T09:09:08Z</time>
      </trkpt>
      <trkpt lat="52.395527008920908" lon="7.991185029968619">
        <ele>48.05859375</ele>
        <time>2025-10-08T09:09:12Z</time>
      </trkpt>
      <trkpt lat="52.395773017778993" lon="7.991199027746916">
        <ele>48.23828125</ele>
        <time>2025-10-08T09:09:16Z</time>
      </trkpt>
      <trkpt lat="52.396005028858781" lon="7.991219982504845">
        <ele>48.515625</ele>
        <time>2025-10-08T09:09:20Z</time>
      </trkpt>
      <trkpt lat="52.396238967776299" lon="7.991226017475128">
        <ele>48.796875</ele>
        <time>2025-10-08T09:09:24Z</time>
      </trkpt>
      <trkpt lat="52.396459998562932" lon="7.991244960576296">
        <ele>49.0390625</ele>
        <time>2025-10-08T09:09:28Z</time>
      </trkpt>
      <trkpt lat="52.396663008257747" lon="7.991222999989986">
        <ele>49.2109375</ele>
        <time>2025-10-08T09:09:32Z</time>
      </trkpt>
      <trkpt lat="52.396865012124181" lon="7.991211013868451">
        <ele>49.38671875</ele>
        <time>2025-10-08T09:09:36Z</time>
      </trkpt>
      <trkpt lat="52.397087970748544" lon="7.991171032190323">
        <ele>49.61328125</ele>
        <time>2025-10-08T09:09:41Z</time>
      </trkpt>
      <trkpt lat="52.397210011258721" lon="7.991482000797987">
        <ele>49.36328125</ele>
        <time>2025-10-08T09:10:13Z</time>
      </trkpt>
      <trkpt lat="52.397286035120487" lon="7.991842003539205">
        <ele>49.0546875</ele>
        <time>2025-10-08T09:10:18Z</time>
      </trkpt>
      <trkpt lat="52.397346971556544" lon="7.992202006280422">
        <ele>49.484375</ele>
        <time>2025-10-08T09:10:22Z</time>
      </trkpt>
      <trkpt lat="52.397408997640014" lon="7.992618000134826">
        <ele>49.984375</ele>
        <time>2025-10-08T09:10:26Z</time>
      </trkpt>
      <trkpt lat="52.397469012066722" lon="7.993046985939145">
        <ele>49.63671875</ele>
        <time>2025-10-08T09:10:30Z</time>
      </trkpt>
      <trkpt lat="52.397552998736501" lon="7.993504973128438">
        <ele>49.32421875</ele>
        <time>2025-10-08T09:10:34Z</time>
      </trkpt>
      <trkpt lat="52.397620975971222" lon="7.993933958932757">
        <ele>48.890625</ele>
        <time>2025-10-08T09:10:38Z</time>
      </trkpt>
      <trkpt lat="52.397704040631652" lon="7.994379037991166">
        <ele>48.64453125</ele>
        <time>2025-10-08T09:10:42Z</time>
      </trkpt>
      <trkpt lat="52.397775035351515" lon="7.994825039058924">
        <ele>49.09765625</ele>
        <time>2025-10-08T09:10:46Z</time>
      </trkpt>
      <trkpt lat="52.397845024242997" lon="7.995242960751057">
        <ele>49.3515625</ele>
        <time>2025-10-08T09:10:50Z</time>
      </trkpt>
      <trkpt lat="52.397914007306099" lon="7.995639005675912">
        <ele>49.4296875</ele>
        <time>2025-10-08T09:10:54Z</time>
      </trkpt>
      <trkpt lat="52.397994976490736" lon="7.99604301340878">
        <ele>49.27734375</ele>
        <time>2025-10-08T09:10:58Z</time>
      </trkpt>
      <trkpt lat="52.398079968988895" lon="7.99642900004983">
        <ele>48.984375</ele>
        <time>2025-10-08T09:11:02Z</time>
      </trkpt>
      <trkpt lat="52.398165967315435" lon="7.996804006397724">
        <ele>48.79296875</ele>
        <time>2025-10-08T09:11:06Z</time>
      </trkpt>
      <trkpt lat="52.398245008662343" lon="7.997184963896871">
        <ele>49.05859375</ele>
        <time>2025-10-08T09:11:10Z</time>
      </trkpt>
      <trkpt lat="52.398331006988883" lon="7.997543960809708">
        <ele>49.28515625</ele>
        <time>2025-10-08T09:11:14Z</time>
      </trkpt>
      <trkpt lat="52.398412982001901" lon="7.997926007956266">
        <ele>49.33203125</ele>
        <time>2025-10-08T09:11:18Z</time>
      </trkpt>
      <trkpt lat="52.39849797450006" lon="7.998283999040723">
        <ele>49.3828125</ele>
        <time>2025-10-08T09:11:22Z</time>
      </trkpt>
      <trkpt lat="52.398590007796884" lon="7.998648025095463">
        <ele>49.66015625</ele>
        <time>2025-10-08T09:11:26Z</time>
      </trkpt>
      <trkpt lat="52.398686986416578" lon="7.999014984816313">
        <ele>50.24609375</ele>
        <time>2025-10-08T09:11:30Z</time>
      </trkpt>
      <trkpt lat="52.398780025541782" lon="7.99937398172915">
        <ele>50.9609375</ele>
        <time>2025-10-08T09:11:34Z</time>
      </trkpt>
      <trkpt lat="52.398872980847955" lon="7.999762985855341">
        <ele>51.546875</ele>
        <time>2025-10-08T09:11:38Z</time>
      </trkpt>
      <trkpt lat="52.398949004709721" lon="8.000133968889713">
        <ele>51.9609375</ele>
        <time>2025-10-08T09:11:42Z</time>
      </trkpt>
      <trkpt lat="52.398892007768154" lon="8.000509981065989">
        <ele>52.46875</ele>
        <time>2025-10-08T09:11:46Z</time>
      </trkpt>
      <trkpt lat="52.398734008893371" lon="8.000797983258963">
        <ele>52.9765625</ele>
        <time>2025-10-08T09:11:50Z</time>
      </trkpt>
      <trkpt lat="52.39856100641191" lon="8.001097971573472">
        <ele>53.1796875</ele>
        <time>2025-10-08T09:11:54Z</time>
      </trkpt>
      <trkpt lat="52.398423040285707" lon="8.001389997079969">
        <ele>52.76171875</ele>
        <time>2025-10-08T09:11:58Z</time>
      </trkpt>
      <trkpt lat="52.398417005315423" lon="8.001761985942721">
        <ele>52.0546875</ele>
        <time>2025-10-08T09:12:02Z</time>
      </trkpt>
      <trkpt lat="52.398484982550144" lon="8.002125006169081">
        <ele>51.39453125</ele>
        <time>2025-10-08T09:12:06Z</time>
      </trkpt>
      <trkpt lat="52.398552037775517" lon="8.002485008910298">
        <ele>50.8125</ele>
        <time>2025-10-08T09:12:10Z</time>
      </trkpt>
      <trkpt lat="52.398610040545464" lon="8.002856997773051">
        <ele>50.46484375</ele>
        <time>2025-10-08T09:12:14Z</time>
      </trkpt>
      <trkpt lat="52.398663014173508" lon="8.003236027434468">
        <ele>50.1875</ele>
        <time>2025-10-08T09:12:18Z</time>
      </trkpt>
      <trkpt lat="52.398713976144791" lon="8.003574991598725">
        <ele>50.109375</ele>
        <time>2025-10-08T09:12:22Z</time>
      </trkpt>
      <trkpt lat="52.398763010278344" lon="8.003915967419744">
        <ele>50.45703125</ele>
        <time>2025-10-08T09:12:26Z</time>
      </trkpt>
      <trkpt lat="52.398826964199543" lon="8.004277981817722">
        <ele>50.890625</ele>
        <time>2025-10-08T09:12:30Z</time>
      </trkpt>
      <trkpt lat="52.398868035525084" lon="8.004633961245418">
        <ele>50.97265625</ele>
        <time>2025-10-08T09:12:34Z</time>
      </trkpt>
      <trkpt lat="52.398921009153128" lon="8.005007039755583">
        <ele>50.984375</ele>
        <time>2025-10-08T09:12:38Z</time>
      </trkpt>
      <trkpt lat="52.398981023579836" lon="8.005380034446716">
        <ele>51.24609375</ele>
        <time>2025-10-08T09:12:42Z</time>
      </trkpt>
      <trkpt lat="52.399037014693022" lon="8.005765015259385">
        <ele>51.734375</ele>
        <time>2025-10-08T09:12:46Z</time>
      </trkpt>
      <trkpt lat="52.399069033563137" lon="8.00614002160728">
        <ele>52.0859375</ele>
        <time>2025-10-08T09:12:50Z</time>
      </trkpt>
      <trkpt lat="52.399061992764473" lon="8.006562972441316">
        <ele>52.26953125</ele>
        <time>2025-10-08T09:12:54Z</time>
      </trkpt>
      <trkpt lat="52.399078002199531" lon="8.00697703845799">
        <ele>52.27734375</ele>
        <time>2025-10-08T09:12:58Z</time>
      </trkpt>
      <trkpt lat="52.399095017462969" lon="8.00738800317049">
        <ele>52.0546875</ele>
        <time>2025-10-08T09:13:02Z</time>
      </trkpt>
      <trkpt lat="52.399096023291349" lon="8.007800979539752">
        <ele>51.859375</ele>
        <time>2025-10-08T09:13:06Z</time>
      </trkpt>
      <trkpt lat="52.399107003584504" lon="8.008185960352421">
        <ele>51.796875</ele>
        <time>2025-10-08T09:13:10Z</time>
      </trkpt>
      <trkpt lat="52.399139022454619" lon="8.008516961708665">
        <ele>51.85546875</ele>
        <time>2025-10-08T09:13:14Z</time>
      </trkpt>
      <trkpt lat="52.399225020781159" lon="8.008866989985108">
        <ele>52.3359375</ele>
        <time>2025-10-08T09:13:19Z</time>
      </trkpt>
      <trkpt lat="52.399352006614208" lon="8.009117022156715">
        <ele>53.02734375</ele>
        <time>2025-10-08T09:13:23Z</time>
      </trkpt>
      <trkpt lat="52.399453008547425" lon="8.009388009086251">
        <ele>53.54296875</ele>
        <time>2025-10-08T09:13:27Z</time>
      </trkpt>
      <trkpt lat="52.399373967200518" lon="8.009723033756018">
        <ele>52.94921875</ele>
        <time>2025-10-08T09:13:31Z</time>
      </trkpt>
      <trkpt lat="52.399247987195849" lon="8.010081024840474">
        <ele>52.24609375</ele>
        <time>2025-10-08T09:13:35Z</time>
      </trkpt>
      <trkpt lat="52.399131981655955" lon="8.010456031188369">
        <ele>51.296875</ele>
        <time>2025-10-08T09:13:39Z</time>
      </trkpt>
      <trkpt lat="52.399036008864641" lon="8.010869007557631">
        <ele>50.42578125</ele>
        <time>2025-10-08T09:13:43Z</time>
      </trkpt>
      <trkpt lat="52.398960990831256" lon="8.011280978098512">
        <ele>50.12890625</ele>
        <time>2025-10-08T09:13:47Z</time>
      </trkpt>
      <trkpt lat="52.398917991667986" lon="8.011700995266438">
        <ele>50.02734375</ele>
        <time>2025-10-08T09:13:51Z</time>
      </trkpt>
      <trkpt lat="52.398889996111393" lon="8.012127969413996">
        <ele>49.98046875</ele>
        <time>2025-10-08T09:13:55Z</time>
      </trkpt>
      <trkpt lat="52.398874992504716" lon="8.012537006288767">
        <ele>49.9609375</ele>
        <time>2025-10-08T09:13:59Z</time>
      </trkpt>
      <trkpt lat="52.398891001939774" lon="8.012955011799932">
        <ele>50.38671875</ele>
        <time>2025-10-08T09:14:03Z</time>
      </trkpt>
      <trkpt lat="52.398912040516734" lon="8.01336295902729">
        <ele>50.90625</ele>
        <time>2025-10-08T09:14:07Z</time>
      </trkpt>
      <trkpt lat="52.398945987224579" lon="8.013770990073681">
        <ele>50.70703125</ele>
        <time>2025-10-08T09:14:11Z</time>
      </trkpt>
      <trkpt lat="52.398977000266314" lon="8.014182960614562">
        <ele>50.2890625</ele>
        <time>2025-10-08T09:14:15Z</time>
      </trkpt>
      <trkpt lat="52.398988986387849" lon="8.014610018581152">
        <ele>50.1953125</ele>
        <time>2025-10-08T09:14:19Z</time>
      </trkpt>
      <trkpt lat="52.399000972509384" lon="8.015025006607175">
        <ele>50.2265625</ele>
        <time>2025-10-08T09:14:23Z</time>
      </trkpt>
      <trkpt lat="52.398987980559468" lon="8.015439994633198">
        <ele>50.97265625</ele>
        <time>2025-10-08T09:14:27Z</time>
      </trkpt>
      <trkpt lat="52.398958979174495" lon="8.015866968780756">
        <ele>51.92578125</ele>
        <time>2025-10-08T09:14:31Z</time>
      </trkpt>
      <trkpt lat="52.398914974182844" lon="8.016276005655527">
        <ele>52.01171875</ele>
        <time>2025-10-08T09:14:35Z</time>
      </trkpt>
      <trkpt lat="52.398854959756136" lon="8.016684036701918">
        <ele>51.8828125</ele>
        <time>2025-10-08T09:14:39Z</time>
      </trkpt>
      <trkpt lat="52.398768961429596" lon="8.017097013071179">
        <ele>51.984375</ele>
        <time>2025-10-08T09:14:43Z</time>
      </trkpt>
      <trkpt lat="52.398692015558481" lon="8.017494985833764">
        <ele>52.1171875</ele>
        <time>2025-10-08T09:14:47Z</time>
      </trkpt>
      <trkpt lat="52.398622026666999" lon="8.017886001616716">
        <ele>51.546875</ele>
        <time>2025-10-08T09:14:51Z</time>
      </trkpt>
      <trkpt lat="52.398552959784865" lon="8.018261007964611">
        <ele>50.83203125</ele>
        <time>2025-10-08T09:14:55Z</time>
      </trkpt>
      <trkpt lat="52.39847500808537" lon="8.018648000434041">
        <ele>50.73046875</ele>
        <time>2025-10-08T09:14:59Z</time>
      </trkpt>
      <trkpt lat="52.398398984223604" lon="8.019040022045374">
        <ele>51.2578125</ele>
        <time>2025-10-08T09:15:03Z</time>
      </trkpt>
      <trkpt lat="52.398318015038967" lon="8.01944000646472">
        <ele>51.70703125</ele>
        <time>2025-10-08T09:15:07Z</time>
      </trkpt>
      <trkpt lat="52.398235034197569" lon="8.019832028076053">
        <ele>51.80859375</ele>
        <time>2025-10-08T09:15:11Z</time>
      </trkpt>
      <trkpt lat="52.398161021992564" lon="8.020217008888722">
        <ele>51.76953125</ele>
        <time>2025-10-08T09:15:15Z</time>
      </trkpt>
      <trkpt lat="52.398104025050998" lon="8.020552033558488">
        <ele>51.4375</ele>
        <time>2025-10-08T09:15:19Z</time>
      </trkpt>
      <trkpt lat="52.398047028109431" lon="8.020864007994533">
        <ele>51.0625</ele>
        <time>2025-10-08T09:15:24Z</time>
      </trkpt>
      <trkpt lat="52.398268980905414" lon="8.020857973024249">
        <ele>50.87109375</ele>
        <time>2025-10-08T09:15:55Z</time>
      </trkpt>
      <trkpt lat="52.398480037227273" lon="8.020813968032599">
        <ele>50.671875</ele>
        <time>2025-10-08T09:15:59Z</time>
      </trkpt>
      <trkpt lat="52.398719005286694" lon="8.020809022709727">
        <ele>50.390625</ele>
        <time>2025-10-08T09:16:03Z</time>
      </trkpt>
      <trkpt lat="52.398949004709721" lon="8.02096601575613">
        <ele>49.9296875</ele>
        <time>2025-10-08T09:16:07Z</time>
      </trkpt>
      <trkpt lat="52.39918302744627" lon="8.021124014630914">
        <ele>49.59765625</ele>
        <time>2025-10-08T09:16:11Z</time>
      </trkpt>
      <trkpt lat="52.399400034919381" lon="8.021301962435246">
        <ele>49.48828125</ele>
        <time>2025-10-08T09:16:15Z</time>
      </trkpt>
      <trkpt lat="52.39961301907897" lon="8.021449986845255">
        <ele>49.57421875</ele>
        <time>2025-10-08T09:16:19Z</time>
      </trkpt>
      <trkpt lat="52.399812005460262" lon="8.021608991548419">
        <ele>49.8984375</ele>
        <time>2025-10-08T09:16:23Z</time>
      </trkpt>
      <trkpt lat="52.400007974356413" lon="8.021757015958428">
        <ele>50.3046875</ele>
        <time>2025-10-08T09:16:27Z</time>
      </trkpt>
      <trkpt lat="52.40019497461617" lon="8.021861035376787">
        <ele>50.546875</ele>
        <time>2025-10-08T09:16:31Z</time>
      </trkpt>
      <trkpt lat="52.400401001796126" lon="8.021897999569774">
        <ele>50.79296875</ele>
        <time>2025-10-08T09:16:35Z</time>
      </trkpt>
      <trkpt lat="52.400607028976083" lon="8.021918032318354">
        <ele>50.96484375</ele>
        <time>2025-10-08T09:16:39Z</time>
      </trkpt>
      <trkpt lat="52.400820013135672" lon="8.021876960992813">
        <ele>50.73828125</ele>
        <time>2025-10-08T09:16:43Z</time>
      </trkpt>
      <trkpt lat="52.401025034487247" lon="8.02180303260684">
        <ele>50.47265625</ele>
        <time>2025-10-08T09:16:47Z</time>
      </trkpt>
      <trkpt lat="52.401219997555017" lon="8.021735977381468">
        <ele>50.26171875</ele>
        <time>2025-10-08T09:16:51Z</time>
      </trkpt>
      <trkpt lat="52.401422001421452" lon="8.021665988489986">
        <ele>50.12890625</ele>
        <time>2025-10-08T09:16:55Z</time>
      </trkpt>
      <trkpt lat="52.401627022773027" lon="8.02158803679049">
        <ele>50.10546875</ele>
        <time>2025-10-08T09:16:59Z</time>
      </trkpt>
      <trkpt lat="52.401817962527275" lon="8.021702030673623">
        <ele>50</ele>
        <time>2025-10-08T09:17:03Z</time>
      </trkpt>
      <trkpt lat="52.401954000815749" lon="8.022002018988133">
        <ele>50.26953125</ele>
        <time>2025-10-08T09:17:07Z</time>
      </trkpt>
      <trkpt lat="52.402137983590364" lon="8.022326985374093">
        <ele>50.65625</ele>
        <time>2025-10-08T09:17:11Z</time>
      </trkpt>
      <trkpt lat="52.402336969971657" lon="8.022681036964059">
        <ele>50.98828125</ele>
        <time>2025-10-08T09:17:15Z</time>
      </trkpt>
      <trkpt lat="52.402545008808374" lon="8.023026036098599">
        <ele>50.81640625</ele>
        <time>2025-10-08T09:17:19Z</time>
      </trkpt>
      <trkpt lat="52.402731003239751" lon="8.023378998041153">
        <ele>50.45703125</ele>
        <time>2025-10-08T09:17:23Z</time>
      </trkpt>
      <trkpt lat="52.402935018762946" lon="8.023727014660835">
        <ele>50.4453125</ele>
        <time>2025-10-08T09:17:27Z</time>
      </trkpt>
      <trkpt lat="52.403122019022703" lon="8.024085005745292">
        <ele>50.75390625</ele>
        <time>2025-10-08T09:17:31Z</time>
      </trkpt>
      <trkpt lat="52.403293009847403" lon="8.024422964081168">
        <ele>51.17578125</ele>
        <time>2025-10-08T09:17:35Z</time>
      </trkpt>
      <trkpt lat="52.403470035642385" lon="8.024753965437412">
        <ele>51.5703125</ele>
        <time>2025-10-08T09:17:39Z</time>
      </trkpt>
      <trkpt lat="52.403627028688788" lon="8.025054037570953">
        <ele>51.93359375</ele>
        <time>2025-10-08T09:17:43Z</time>
      </trkpt>
      <trkpt lat="52.403873959556222" lon="8.025138024240732">
        <ele>51.90234375</ele>
        <time>2025-10-08T09:17:47Z</time>
      </trkpt>
      <trkpt lat="52.404122985899448" lon="8.02507096901536">
        <ele>51.46484375</ele>
        <time>2025-10-08T09:17:51Z</time>
      </trkpt>
      <trkpt lat="52.404343010857701" lon="8.024878017604351">
        <ele>51.109375</ele>
        <time>2025-10-08T09:17:55Z</time>
      </trkpt>
      <trkpt lat="52.404566975310445" lon="8.024692023172975">
        <ele>51.10546875</ele>
        <time>2025-10-08T09:17:59Z</time>
      </trkpt>
      <trkpt lat="52.404794963076711" lon="8.024519020691514">
        <ele>51.3515625</ele>
        <time>2025-10-08T09:18:03Z</time>
      </trkpt>
      <trkpt lat="52.405024040490389" lon="8.024364961311221">
        <ele>51.4453125</ele>
        <time>2025-10-08T09:18:07Z</time>
      </trkpt>
      <trkpt lat="52.405263008549809" lon="8.024226995185018">
        <ele>51.36328125</ele>
        <time>2025-10-08T09:18:11Z</time>
      </trkpt>
      <trkpt lat="52.405496025457978" lon="8.024088023230434">
        <ele>51.25390625</ele>
        <time>2025-10-08T09:18:15Z</time>
      </trkpt>
      <trkpt lat="52.405727030709386" lon="8.023944022133946">
        <ele>50.83203125</ele>
        <time>2025-10-08T09:18:19Z</time>
      </trkpt>
      <trkpt lat="52.40592903457582" lon="8.023706981912255">
        <ele>50.390625</ele>
        <time>2025-10-08T09:18:23Z</time>
      </trkpt>
      <trkpt lat="52.406046967953444" lon="8.023329963907599">
        <ele>50.4375</ele>
        <time>2025-10-08T09:18:27Z</time>
      </trkpt>
      <trkpt lat="52.406119974330068" lon="8.022941965609789">
        <ele>50.81640625</ele>
        <time>2025-10-08T09:18:31Z</time>
      </trkpt>
      <trkpt lat="52.406178982928395" lon="8.022566959261894">
        <ele>51.23828125</ele>
        <time>2025-10-08T09:18:35Z</time>
      </trkpt>
      <trkpt lat="52.40631602704525" lon="8.022307036444545">
        <ele>51.02734375</ele>
        <time>2025-10-08T09:18:39Z</time>
      </trkpt>
      <trkpt lat="52.406557006761432" lon="8.02234198898077">
        <ele>50.87890625</ele>
        <time>2025-10-08T09:18:43Z</time>
      </trkpt>
      <trkpt lat="52.406793963164091" lon="8.022398985922337">
        <ele>50.7578125</ele>
        <time>2025-10-08T09:18:47Z</time>
      </trkpt>
      <trkpt lat="52.407038966193795" lon="8.022462017834187">
        <ele>50.7265625</ele>
        <time>2025-10-08T09:18:51Z</time>
      </trkpt>
      <trkpt lat="52.407287992537022" lon="8.02253401838243">
        <ele>50.75</ele>
        <time>2025-10-08T09:18:55Z</time>
      </trkpt>
      <trkpt lat="52.40754397585988" lon="8.022601995617151">
        <ele>50.60546875</ele>
        <time>2025-10-08T09:18:59Z</time>
      </trkpt>
      <trkpt lat="52.407784033566713" lon="8.022648012265563">
        <ele>50.296875</ele>
        <time>2025-10-08T09:19:03Z</time>
      </trkpt>
      <trkpt lat="52.408039011061192" lon="8.022712972015142">
        <ele>50.0234375</ele>
        <time>2025-10-08T09:19:07Z</time>
      </trkpt>
      <trkpt lat="52.408292982727289" lon="8.02277097478509">
        <ele>50.3203125</ele>
        <time>2025-10-08T09:19:11Z</time>
      </trkpt>
      <trkpt lat="52.40855298936367" lon="8.022843981161714">
        <ele>50.74609375</ele>
        <time>2025-10-08T09:19:15Z</time>
      </trkpt>
      <trkpt lat="52.408806039020419" lon="8.022923022508621">
        <ele>51.21875</ele>
        <time>2025-10-08T09:19:19Z</time>
      </trkpt>
      <trkpt lat="52.409063028171659" lon="8.022972978651524">
        <ele>51.0703125</ele>
        <time>2025-10-08T09:19:23Z</time>
      </trkpt>
      <trkpt lat="52.409311970695853" lon="8.023055959492922">
        <ele>50.51171875</ele>
        <time>2025-10-08T09:19:27Z</time>
      </trkpt>
      <trkpt lat="52.409549010917544" lon="8.023117985576391">
        <ele>49.8828125</ele>
        <time>2025-10-08T09:19:31Z</time>
      </trkpt>
      <trkpt lat="52.409744979813695" lon="8.02309300750494">
        <ele>49.375</ele>
        <time>2025-10-08T09:19:36Z</time>
      </trkpt>
      <trkpt lat="52.409870037809014" lon="8.023386038839817">
        <ele>48.56640625</ele>
        <time>2025-10-08T09:19:44Z</time>
      </trkpt>
      <trkpt lat="52.409927034750581" lon="8.023719973862171">
        <ele>47.97265625</ele>
        <time>2025-10-08T09:19:48Z</time>
      </trkpt>
      <trkpt lat="52.410014038905501" lon="8.024088023230434">
        <ele>47.21875</ele>
        <time>2025-10-08T09:19:52Z</time>
      </trkpt>
      <trkpt lat="52.410088973119855" lon="8.024454982951284">
        <ele>46.5078125</ele>
        <time>2025-10-08T09:19:56Z</time>
      </trkpt>
      <trkpt lat="52.41016298532486" lon="8.024815991520882">
        <ele>45.80859375</ele>
        <time>2025-10-08T09:20:00Z</time>
      </trkpt>
      <trkpt lat="52.410328024998307" lon="8.024909030646086">
        <ele>45.1015625</ele>
        <time>2025-10-08T09:20:04Z</time>
      </trkpt>
      <trkpt lat="52.41054997779429" lon="8.024883968755603">
        <ele>44.33203125</ele>
        <time>2025-10-08T09:20:08Z</time>
      </trkpt>
      <trkpt lat="52.410795986652374" lon="8.024841975420713">
        <ele>44.32421875</ele>
        <time>2025-10-08T09:20:12Z</time>
      </trkpt>
      <trkpt lat="52.411039983853698" lon="8.024796964600682">
        <ele>44.375</ele>
        <time>2025-10-08T09:20:16Z</time>
      </trkpt>
      <trkpt lat="52.411282975226641" lon="8.024744996801019">
        <ele>44.4375</ele>
        <time>2025-10-08T09:20:20Z</time>
      </trkpt>
      <trkpt lat="52.411536024883389" lon="8.024712977930903">
        <ele>44.640625</ele>
        <time>2025-10-08T09:20:24Z</time>
      </trkpt>
      <trkpt lat="52.411785973235965" lon="8.024670984596014">
        <ele>44.9921875</ele>
        <time>2025-10-08T09:20:28Z</time>
      </trkpt>
      <trkpt lat="52.412043968215585" lon="8.024624967947602">
        <ele>45.35546875</ele>
        <time>2025-10-08T09:20:32Z</time>
      </trkpt>
      <trkpt lat="52.412298023700714" lon="8.024577023461461">
        <ele>45.640625</ele>
        <time>2025-10-08T09:20:36Z</time>
      </trkpt>
      <trkpt lat="52.412556018680334" lon="8.024536035954952">
        <ele>45.69140625</ele>
        <time>2025-10-08T09:20:40Z</time>
      </trkpt>
      <trkpt lat="52.412793980911374" lon="8.024432016536593">
        <ele>45.81640625</ele>
        <time>2025-10-08T09:20:44Z</time>
      </trkpt>
      <trkpt lat="52.413005037233233" lon="8.024216014891863">
        <ele>46.1484375</ele>
        <time>2025-10-08T09:20:48Z</time>
      </trkpt>
      <trkpt lat="52.413218021392822" lon="8.024009987711906">
        <ele>46.3984375</ele>
        <time>2025-10-08T09:20:52Z</time>
      </trkpt>
      <trkpt lat="52.413421031087637" lon="8.023774959146977">
        <ele>46.5234375</ele>
        <time>2025-10-08T09:20:56Z</time>
      </trkpt>
      <trkpt lat="52.413632003590465" lon="8.023553006350994">
        <ele>46.46875</ele>
        <time>2025-10-08T09:21:00Z</time>
      </trkpt>
      <trkpt lat="52.413838030770421" lon="8.023333987221122">
        <ele>46.14453125</ele>
        <time>2025-10-08T09:21:04Z</time>
      </trkpt>
      <trkpt lat="52.41405101493001" lon="8.023110022768378">
        <ele>45.7421875</ele>
        <time>2025-10-08T09:21:08Z</time>
      </trkpt>
      <trkpt lat="52.414251007139683" lon="8.02287801168859">
        <ele>45.2890625</ele>
        <time>2025-10-08T09:21:12Z</time>
      </trkpt>
      <trkpt lat="52.414462985470891" lon="8.022652035579085">
        <ele>44.67578125</ele>
        <time>2025-10-08T09:21:16Z</time>
      </trkpt>
      <trkpt lat="52.414669012650847" lon="8.022431004792452">
        <ele>44.33203125</ele>
        <time>2025-10-08T09:21:20Z</time>
      </trkpt>
      <trkpt lat="52.414884008467197" lon="8.022227995097637">
        <ele>44.4609375</ele>
        <time>2025-10-08T09:21:24Z</time>
      </trkpt>
      <trkpt lat="52.415090035647154" lon="8.022005958482623">
        <ele>44.7265625</ele>
        <time>2025-10-08T09:21:28Z</time>
      </trkpt>
      <trkpt lat="52.415300002321601" lon="8.021790962666273">
        <ele>44.984375</ele>
        <time>2025-10-08T09:21:32Z</time>
      </trkpt>
      <trkpt lat="52.415499994531274" lon="8.021557023748756">
        <ele>45.265625</ele>
        <time>2025-10-08T09:21:36Z</time>
      </trkpt>
      <trkpt lat="52.415710967034101" lon="8.021334987133741">
        <ele>45.53515625</ele>
        <time>2025-10-08T09:21:40Z</time>
      </trkpt>
      <trkpt lat="52.415913976728916" lon="8.021118985489011">
        <ele>45.79296875</ele>
        <time>2025-10-08T09:21:44Z</time>
      </trkpt>
      <trkpt lat="52.416116986423731" lon="8.020899966359139">
        <ele>46.0546875</ele>
        <time>2025-10-08T09:21:48Z</time>
      </trkpt>
      <trkpt lat="52.416317984461784" lon="8.020668961107731">
        <ele>46.5703125</ele>
        <time>2025-10-08T09:21:52Z</time>
      </trkpt>
      <trkpt lat="52.41652199998498" lon="8.020452037453651">
        <ele>47.16015625</ele>
        <time>2025-10-08T09:21:56Z</time>
      </trkpt>
      <trkpt lat="52.416731966659427" lon="8.020231006667018">
        <ele>47.4296875</ele>
        <time>2025-10-08T09:22:00Z</time>
      </trkpt>
      <trkpt lat="52.416934976354241" lon="8.020003018900752">
        <ele>47.22265625</ele>
        <time>2025-10-08T09:22:04Z</time>
      </trkpt>
      <trkpt lat="52.417138991877437" lon="8.019772013649344">
        <ele>46.69921875</ele>
        <time>2025-10-08T09:22:08Z</time>
      </trkpt>
      <trkpt lat="52.417348958551884" lon="8.019561041146517">
        <ele>46</ele>
        <time>2025-10-08T09:22:12Z</time>
      </trkpt>
      <trkpt lat="52.417549034580588" lon="8.019349984824657">
        <ele>45.28515625</ele>
        <time>2025-10-08T09:22:16Z</time>
      </trkpt>
      <trkpt lat="52.417760007083416" lon="8.019123002886772">
        <ele>44.51953125</ele>
        <time>2025-10-08T09:22:20Z</time>
      </trkpt>
      <trkpt lat="52.417968967929482" lon="8.01890498958528">
        <ele>44.07421875</ele>
        <time>2025-10-08T09:22:24Z</time>
      </trkpt>
      <trkpt lat="52.418178012594581" lon="8.018674990162253">
        <ele>43.9609375</ele>
        <time>2025-10-08T09:22:28Z</time>
      </trkpt>
      <trkpt lat="52.418381022289395" lon="8.018462006002665">
        <ele>43.9921875</ele>
        <time>2025-10-08T09:22:32Z</time>
      </trkpt>
      <trkpt lat="52.418590988963842" lon="8.018252961337566">
        <ele>43.9140625</ele>
        <time>2025-10-08T09:22:36Z</time>
      </trkpt>
      <trkpt lat="52.418791987001896" lon="8.01802396774292">
        <ele>43.9375</ele>
        <time>2025-10-08T09:22:40Z</time>
      </trkpt>
      <trkpt lat="52.418996002525091" lon="8.017794974148274">
        <ele>44.09375</ele>
        <time>2025-10-08T09:22:44Z</time>
      </trkpt>
      <trkpt lat="52.419213009998202" lon="8.017565980553627">
        <ele>44.3828125</ele>
        <time>2025-10-08T09:22:48Z</time>
      </trkpt>
      <trkpt lat="52.419434962794185" lon="8.017333969473839">
        <ele>44.6484375</ele>
        <time>2025-10-08T09:22:52Z</time>
      </trkpt>
      <trkpt lat="52.419635960832238" lon="8.017108999192715">
        <ele>44.890625</ele>
        <time>2025-10-08T09:22:56Z</time>
      </trkpt>
      <trkpt lat="52.419865960255265" lon="8.016911018639803">
        <ele>45.11328125</ele>
        <time>2025-10-08T09:23:00Z</time>
      </trkpt>
      <trkpt lat="52.42010903544724" lon="8.016768023371697">
        <ele>45.44140625</ele>
        <time>2025-10-08T09:23:04Z</time>
      </trkpt>
      <trkpt lat="52.420363007113338" lon="8.016631985083222">
        <ele>45.67578125</ele>
        <time>2025-10-08T09:23:08Z</time>
      </trkpt>
      <trkpt lat="52.420601975172758" lon="8.016507010906935">
        <ele>46.08203125</ele>
        <time>2025-10-08T09:23:12Z</time>
      </trkpt>
      <trkpt lat="52.420846978202462" lon="8.016363009810448">
        <ele>46.69140625</ele>
        <time>2025-10-08T09:23:16Z</time>
      </trkpt>
      <trkpt lat="52.421074965968728" lon="8.016222026199102">
        <ele>47.44921875</ele>
        <time>2025-10-08T09:23:20Z</time>
      </trkpt>
      <trkpt lat="52.421305971220136" lon="8.016079030930996">
        <ele>48.40625</ele>
        <time>2025-10-08T09:23:24Z</time>
      </trkpt>
      <trkpt lat="52.421544017270207" lon="8.015921032056212">
        <ele>48.70703125</ele>
        <time>2025-10-08T09:23:28Z</time>
      </trkpt>
      <trkpt lat="52.421778962016106" lon="8.015770995989442">
        <ele>48.50390625</ele>
        <time>2025-10-08T09:23:32Z</time>
      </trkpt>
      <trkpt lat="52.422008039429784" lon="8.01563504152">
        <ele>48.27734375</ele>
        <time>2025-10-08T09:23:36Z</time>
      </trkpt>
      <trkpt lat="52.422252958640456" lon="8.015513001009822">
        <ele>47.953125</ele>
        <time>2025-10-08T09:23:40Z</time>
      </trkpt>
      <trkpt lat="52.422471977770329" lon="8.015359025448561">
        <ele>47.53125</ele>
        <time>2025-10-08T09:23:44Z</time>
      </trkpt>
      <trkpt lat="52.422715974971652" lon="8.015213012695313">
        <ele>47.00390625</ele>
        <time>2025-10-08T09:23:48Z</time>
      </trkpt>
      <trkpt lat="52.422943962737918" lon="8.015064988285303">
        <ele>46.23046875</ele>
        <time>2025-10-08T09:23:52Z</time>
      </trkpt>
      <trkpt lat="52.423187037929893" lon="8.014914030209184">
        <ele>45.07421875</ele>
        <time>2025-10-08T09:23:56Z</time>
      </trkpt>
      <trkpt lat="52.423401027917862" lon="8.014775980263948">
        <ele>44.45703125</ele>
        <time>2025-10-08T09:24:00Z</time>
      </trkpt>
      <trkpt lat="52.423642007634044" lon="8.014645976945758">
        <ele>44.08984375</ele>
        <time>2025-10-08T09:24:04Z</time>
      </trkpt>
      <trkpt lat="52.423867983743548" lon="8.014495018869638">
        <ele>43.9921875</ele>
        <time>2025-10-08T09:24:08Z</time>
      </trkpt>
      <trkpt lat="52.424107035622001" lon="8.014366021379829">
        <ele>44.234375</ele>
        <time>2025-10-08T09:24:12Z</time>
      </trkpt>
      <trkpt lat="52.424323037266731" lon="8.014226965606213">
        <ele>44.4140625</ele>
        <time>2025-10-08T09:24:16Z</time>
      </trkpt>
      <trkpt lat="52.424541972577572" lon="8.014092016965151">
        <ele>44.37109375</ele>
        <time>2025-10-08T09:24:20Z</time>
      </trkpt>
      <trkpt lat="52.424769960343838" lon="8.01394198089838">
        <ele>44.234375</ele>
        <time>2025-10-08T09:24:24Z</time>
      </trkpt>
      <trkpt lat="52.425037007778883" lon="8.013804014772177">
        <ele>44.22265625</ele>
        <time>2025-10-08T09:24:28Z</time>
      </trkpt>
      <trkpt lat="52.425282010808587" lon="8.013653978705406">
        <ele>44.15625</ele>
        <time>2025-10-08T09:24:32Z</time>
      </trkpt>
      <trkpt lat="52.425497006624937" lon="8.013593964278698">
        <ele>44.26953125</ele>
        <time>2025-10-08T09:24:36Z</time>
      </trkpt>
      <trkpt lat="52.4257199652493" lon="8.013785993680358">
        <ele>45</ele>
        <time>2025-10-08T09:24:40Z</time>
      </trkpt>
      <trkpt lat="52.425951976329088" lon="8.013910967856646">
        <ele>45.578125</ele>
        <time>2025-10-08T09:24:44Z</time>
      </trkpt>
      <trkpt lat="52.426181975752115" lon="8.014055974781513">
        <ele>46.203125</ele>
        <time>2025-10-08T09:24:48Z</time>
      </trkpt>
      <trkpt lat="52.426402000710368" lon="8.01419897004962">
        <ele>46.80859375</ele>
        <time>2025-10-08T09:24:52Z</time>
      </trkpt>
      <trkpt lat="52.42664298042655" lon="8.014352023601532">
        <ele>46.9765625</ele>
        <time>2025-10-08T09:24:56Z</time>
      </trkpt>
      <trkpt lat="52.426883960142732" lon="8.014490995556116">
        <ele>46.59765625</ele>
        <time>2025-10-08T09:25:00Z</time>
      </trkpt>
      <trkpt lat="52.427113959565759" lon="8.014632984995842">
        <ele>46.19140625</ele>
        <time>2025-10-08T09:25:04Z</time>
      </trkpt>
      <trkpt lat="52.427343036979437" lon="8.014774974435568">
        <ele>45.5234375</ele>
        <time>2025-10-08T09:25:08Z</time>
      </trkpt>
      <trkpt lat="52.427591979503632" lon="8.01493096165359">
        <ele>44.6953125</ele>
        <time>2025-10-08T09:25:12Z</time>
      </trkpt>
      <trkpt lat="52.427832037210464" lon="8.015086026862264">
        <ele>44.09375</ele>
        <time>2025-10-08T09:25:16Z</time>
      </trkpt>
      <trkpt lat="52.428058013319969" lon="8.01522801630199">
        <ele>43.99609375</ele>
        <time>2025-10-08T09:25:20Z</time>
      </trkpt>
      <trkpt lat="52.428294969722629" lon="8.015372017398477">
        <ele>43.6015625</ele>
        <time>2025-10-08T09:25:24Z</time>
      </trkpt>
      <trkpt lat="52.428521029651165" lon="8.015524987131357">
        <ele>43.4296875</ele>
        <time>2025-10-08T09:25:28Z</time>
      </trkpt>
      <trkpt lat="52.428753962740302" lon="8.01568198017776">
        <ele>43.4609375</ele>
        <time>2025-10-08T09:25:32Z</time>
      </trkpt>
      <trkpt lat="52.428994020447135" lon="8.015824975445867">
        <ele>43.703125</ele>
        <time>2025-10-08T09:25:36Z</time>
      </trkpt>
      <trkpt lat="52.429231982678175" lon="8.015965959057212">
        <ele>43.98046875</ele>
        <time>2025-10-08T09:25:40Z</time>
      </trkpt>
      <trkpt lat="52.429472962394357" lon="8.01610903814435">
        <ele>43.80859375</ele>
        <time>2025-10-08T09:25:44Z</time>
      </trkpt>
      <trkpt lat="52.429705979302526" lon="8.016272988170385">
        <ele>43.609375</ele>
        <time>2025-10-08T09:25:48Z</time>
      </trkpt>
      <trkpt lat="52.429943019524217" lon="8.016417995095253">
        <ele>43.5859375</ele>
        <time>2025-10-08T09:25:52Z</time>
      </trkpt>
      <trkpt lat="52.430190034210682" lon="8.016584040597081">
        <ele>43.66796875</ele>
        <time>2025-10-08T09:25:56Z</time>
      </trkpt>
      <trkpt lat="52.430417016148567" lon="8.016724018380046">
        <ele>43.84765625</ele>
        <time>2025-10-08T09:26:00Z</time>
      </trkpt>
      <trkpt lat="52.430642992258072" lon="8.016860978677869">
        <ele>44.10546875</ele>
        <time>2025-10-08T09:26:04Z</time>
      </trkpt>
      <trkpt lat="52.430843990296125" lon="8.016968015581369">
        <ele>44.34765625</ele>
        <time>2025-10-08T09:26:08Z</time>
      </trkpt>
      <trkpt lat="52.431009029969573" lon="8.016855027526617">
        <ele>44.546875</ele>
        <time>2025-10-08T09:26:12Z</time>
      </trkpt>
      <trkpt lat="52.431122018024325" lon="8.016543975099921">
        <ele>44.48828125</ele>
        <time>2025-10-08T09:26:16Z</time>
      </trkpt>
      <trkpt lat="52.431214973330498" lon="8.016210962086916">
        <ele>44.25</ele>
        <time>2025-10-08T09:26:20Z</time>
      </trkpt>
      <trkpt lat="52.431337013840675" lon="8.015856994315982">
        <ele>43.8828125</ele>
        <time>2025-10-08T09:26:24Z</time>
      </trkpt>
      <trkpt lat="52.431465005502105" lon="8.015503026545048">
        <ele>43.328125</ele>
        <time>2025-10-08T09:26:28Z</time>
      </trkpt>
      <trkpt lat="52.431572964414954" lon="8.015168001875281">
        <ele>42.82421875</ele>
        <time>2025-10-08T09:26:32Z</time>
      </trkpt>
      <trkpt lat="52.43169198743999" lon="8.014816967770457">
        <ele>42.6328125</ele>
        <time>2025-10-08T09:26:36Z</time>
      </trkpt>
      <trkpt lat="52.431801036000252" lon="8.014469034969807">
        <ele>42.50390625</ele>
        <time>2025-10-08T09:26:40Z</time>
      </trkpt>
      <trkpt lat="52.431812016293406" lon="8.014087993651629">
        <ele>42.37109375</ele>
        <time>2025-10-08T09:26:44Z</time>
      </trkpt>
      <trkpt lat="52.431786032393575" lon="8.013681974261999">
        <ele>42.17578125</ele>
        <time>2025-10-08T09:26:48Z</time>
      </trkpt>
      <trkpt lat="52.431819979101419" lon="8.013290958479047">
        <ele>42.16015625</ele>
        <time>2025-10-08T09:26:52Z</time>
      </trkpt>
      <trkpt lat="52.431883011013269" lon="8.012923998758197">
        <ele>42.5625</ele>
        <time>2025-10-08T09:26:56Z</time>
      </trkpt>
      <trkpt lat="52.431941013783216" lon="8.012553015723825">
        <ele>43.05078125</ele>
        <time>2025-10-08T09:27:00Z</time>
      </trkpt>
      <trkpt lat="52.432003961876035" lon="8.01217800937593">
        <ele>43.390625</ele>
        <time>2025-10-08T09:27:04Z</time>
      </trkpt>
      <trkpt lat="52.432061964645982" lon="8.011819012463093">
        <ele>43.77734375</ele>
        <time>2025-10-08T09:27:08Z</time>
      </trkpt>
      <trkpt lat="52.432112004607916" lon="8.011458003893495">
        <ele>44.2109375</ele>
        <time>2025-10-08T09:27:12Z</time>
      </trkpt>
      <trkpt lat="52.432072022929788" lon="8.011095989495516">
        <ele>44.50390625</ele>
        <time>2025-10-08T09:27:16Z</time>
      </trkpt>
      <trkpt lat="52.431955011561513" lon="8.010773034766316">
        <ele>44.28515625</ele>
        <time>2025-10-08T09:27:20Z</time>
      </trkpt>
      <trkpt lat="52.431842023506761" lon="8.010461982339621">
        <ele>44.0390625</ele>
        <time>2025-10-08T09:27:24Z</time>
      </trkpt>
      <trkpt lat="52.431730963289738" lon="8.010154031217098">
        <ele>43.9921875</ele>
        <time>2025-10-08T09:27:28Z</time>
      </trkpt>
      <trkpt lat="52.431616969406605" lon="8.009838033467531">
        <ele>44</ele>
        <time>2025-10-08T09:27:32Z</time>
      </trkpt>
      <trkpt lat="52.431516973301768" lon="8.00951398909092">
        <ele>44</ele>
        <time>2025-10-08T09:27:36Z</time>
      </trkpt>
      <trkpt lat="52.431509010493755" lon="8.009123979136348">
        <ele>44</ele>
        <time>2025-10-08T09:27:40Z</time>
      </trkpt>
      <trkpt lat="52.431543963029981" lon="8.008746039122343">
        <ele>44</ele>
        <time>2025-10-08T09:27:44Z</time>
      </trkpt>
      <trkpt lat="52.431561984121799" lon="8.008372038602829">
        <ele>44.17578125</ele>
        <time>2025-10-08T09:27:48Z</time>
      </trkpt>
      <trkpt lat="52.431586962193251" lon="8.007995020598173">
        <ele>44.96875</ele>
        <time>2025-10-08T09:27:52Z</time>
      </trkpt>
      <trkpt lat="52.431670026853681" lon="8.007683968171477">
        <ele>45.53515625</ele>
        <time>2025-10-08T09:27:56Z</time>
      </trkpt>
      <trkpt lat="52.431814027950168" lon="8.007390014827251">
        <ele>44.93359375</ele>
        <time>2025-10-08T09:28:01Z</time>
      </trkpt>
      <trkpt lat="52.431705985218287" lon="8.00712900236249">
        <ele>44.4375</ele>
        <time>2025-10-08T09:28:05Z</time>
      </trkpt>
      <trkpt lat="52.431554021313787" lon="8.006882993504405">
        <ele>44.02734375</ele>
        <time>2025-10-08T09:28:09Z</time>
      </trkpt>
      <trkpt lat="52.431401973590255" lon="8.006641007959843">
        <ele>43.98046875</ele>
        <time>2025-10-08T09:28:13Z</time>
      </trkpt>
      <trkpt lat="52.431238023564219" lon="8.006410002708435">
        <ele>44.09765625</ele>
        <time>2025-10-08T09:28:17Z</time>
      </trkpt>
      <trkpt lat="52.431080024689436" lon="8.006154019385576">
        <ele>44.08984375</ele>
        <time>2025-10-08T09:28:21Z</time>
      </trkpt>
      <trkpt lat="52.430923031643033" lon="8.005909016355872">
        <ele>44.03125</ele>
        <time>2025-10-08T09:28:25Z</time>
      </trkpt>
      <trkpt lat="52.430753968656063" lon="8.005660995841026">
        <ele>44.26953125</ele>
        <time>2025-10-08T09:28:29Z</time>
      </trkpt>
      <trkpt lat="52.430580966174603" lon="8.005451029166579">
        <ele>44.5859375</ele>
        <time>2025-10-08T09:28:33Z</time>
      </trkpt>
      <trkpt lat="52.430564034730196" lon="8.005162021145225">
        <ele>44.94140625</ele>
        <time>2025-10-08T09:28:38Z</time>
      </trkpt>
      <trkpt lat="52.430661013349891" lon="8.004860021173954">
        <ele>45.1484375</ele>
        <time>2025-10-08T09:28:42Z</time>
      </trkpt>
      <trkpt lat="52.430766960605979" lon="8.004567995667458">
        <ele>45.2421875</ele>
        <time>2025-10-08T09:28:46Z</time>
      </trkpt>
      <trkpt lat="52.430893024429679" lon="8.004260966554284">
        <ele>45.1171875</ele>
        <time>2025-10-08T09:28:50Z</time>
      </trkpt>
      <trkpt lat="52.431040965020657" lon="8.00401302985847">
        <ele>44.16796875</ele>
        <time>2025-10-08T09:28:54Z</time>
      </trkpt>
      <trkpt lat="52.431226037442684" lon="8.003770960494876">
        <ele>43.140625</ele>
        <time>2025-10-08T09:28:58Z</time>
      </trkpt>
      <trkpt lat="52.431412031874061" lon="8.003537021577358">
        <ele>42.19140625</ele>
        <time>2025-10-08T09:29:02Z</time>
      </trkpt>
      <trkpt lat="52.431584028527141" lon="8.003323031589389">
        <ele>41.87890625</ele>
        <time>2025-10-08T09:29:06Z</time>
      </trkpt>
      <trkpt lat="52.431762982159853" lon="8.003080040216446">
        <ele>41.75</ele>
        <time>2025-10-08T09:29:10Z</time>
      </trkpt>
      <trkpt lat="52.431944031268358" lon="8.002848029136658">
        <ele>41.7578125</ele>
        <time>2025-10-08T09:29:14Z</time>
      </trkpt>
      <trkpt lat="52.432114016264677" lon="8.002602020278573">
        <ele>41.875</ele>
        <time>2025-10-08T09:29:18Z</time>
      </trkpt>
      <trkpt lat="52.43220797739923" lon="8.00227303057909">
        <ele>41.9921875</ele>
        <time>2025-10-08T09:29:22Z</time>
      </trkpt>
      <trkpt lat="52.432270003482699" lon="8.001900035887957">
        <ele>42.015625</ele>
        <time>2025-10-08T09:29:26Z</time>
      </trkpt>
      <trkpt lat="52.43233404122293" lon="8.001530980691314">
        <ele>41.95703125</ele>
        <time>2025-10-08T09:29:30Z</time>
      </trkpt>
      <trkpt lat="52.432391038164496" lon="8.001191010698676">
        <ele>41.8515625</ele>
        <time>2025-10-08T09:29:34Z</time>
      </trkpt>
      <trkpt lat="52.432475024834275" lon="8.000870989635587">
        <ele>41.80078125</ele>
        <time>2025-10-08T09:29:38Z</time>
      </trkpt>
      <trkpt lat="52.432564962655306" lon="8.000545017421246">
        <ele>42.08203125</ele>
        <time>2025-10-08T09:29:42Z</time>
      </trkpt>
      <trkpt lat="52.432659007608891" lon="8.00021099857986">
        <ele>42.37109375</ele>
        <time>2025-10-08T09:29:46Z</time>
      </trkpt>
      <trkpt lat="52.432779036462307" lon="7.999897012487054">
        <ele>42.69921875</ele>
        <time>2025-10-08T09:29:50Z</time>
      </trkpt>
      <trkpt lat="52.432932006195188" lon="7.999629965052009">
        <ele>43.1640625</ele>
        <time>2025-10-08T09:29:54Z</time>
      </trkpt>
      <trkpt lat="52.433081958442926" lon="7.999366018921137">
        <ele>43.79296875</ele>
        <time>2025-10-08T09:29:58Z</time>
      </trkpt>
      <trkpt lat="52.433279016986489" lon="7.999162003397942">
        <ele>43.8125</ele>
        <time>2025-10-08T09:30:02Z</time>
      </trkpt>
      <trkpt lat="52.43349895812571" lon="7.99903099425137">
        <ele>43.80078125</ele>
        <time>2025-10-08T09:30:06Z</time>
      </trkpt>
      <trkpt lat="52.433712026104331" lon="7.998868972063065">
        <ele>44.015625</ele>
        <time>2025-10-08T09:30:10Z</time>
      </trkpt>
      <trkpt lat="52.433892991393805" lon="7.998619023710489">
        <ele>44.6015625</ele>
        <time>2025-10-08T09:30:14Z</time>
      </trkpt>
      <trkpt lat="52.43403104133904" lon="7.998292967677116">
        <ele>44.81640625</ele>
        <time>2025-10-08T09:30:18Z</time>
      </trkpt>
      <trkpt lat="52.434216029942036" lon="7.998070009052753">
        <ele>44.48828125</ele>
        <time>2025-10-08T09:30:22Z</time>
      </trkpt>
      <trkpt lat="52.434427002444863" lon="7.997936988249421">
        <ele>43.921875</ele>
        <time>2025-10-08T09:30:26Z</time>
      </trkpt>
      <trkpt lat="52.434575026854873" lon="7.997640017420054">
        <ele>43.515625</ele>
        <time>2025-10-08T09:30:30Z</time>
      </trkpt>
      <trkpt lat="52.434658007696271" lon="7.997312033548951">
        <ele>43.19140625</ele>
        <time>2025-10-08T09:30:34Z</time>
      </trkpt>
      <trkpt lat="52.434644009917974" lon="7.996944990009069">
        <ele>43.1953125</ele>
        <time>2025-10-08T09:30:38Z</time>
      </trkpt>
      <trkpt lat="52.434631017968059" lon="7.996569983661175">
        <ele>43.15234375</ele>
        <time>2025-10-08T09:30:42Z</time>
      </trkpt>
      <trkpt lat="52.434641998261213" lon="7.996203023940325">
        <ele>43.0546875</ele>
        <time>2025-10-08T09:30:46Z</time>
      </trkpt>
      <trkpt lat="52.434664964675903" lon="7.99585098400712">
        <ele>42.875</ele>
        <time>2025-10-08T09:30:50Z</time>
      </trkpt>
      <trkpt lat="52.43467703461647" lon="7.995469020679593">
        <ele>42.4375</ele>
        <time>2025-10-08T09:30:54Z</time>
      </trkpt>
      <trkpt lat="52.434707963839173" lon="7.995107006281614">
        <ele>42.01171875</ele>
        <time>2025-10-08T09:30:58Z</time>
      </trkpt>
      <trkpt lat="52.434876020997763" lon="7.994901984930039">
        <ele>41.94921875</ele>
        <time>2025-10-08T09:31:02Z</time>
      </trkpt>
      <trkpt lat="52.435104008764029" lon="7.994926040992141">
        <ele>41.88671875</ele>
        <time>2025-10-08T09:31:06Z</time>
      </trkpt>
      <trkpt lat="52.435340965166688" lon="7.994940960779786">
        <ele>41.83203125</ele>
        <time>2025-10-08T09:31:10Z</time>
      </trkpt>
      <trkpt lat="52.435567025095224" lon="7.995037017390132">
        <ele>41.875</ele>
        <time>2025-10-08T09:31:14Z</time>
      </trkpt>
      <trkpt lat="52.435776991769671" lon="7.995086973533034">
        <ele>41.69140625</ele>
        <time>2025-10-08T09:31:18Z</time>
      </trkpt>
      <trkpt lat="52.435943959280849" lon="7.994909025728703">
        <ele>41.390625</ele>
        <time>2025-10-08T09:31:22Z</time>
      </trkpt>
      <trkpt lat="52.436105981469154" lon="7.994691012427211">
        <ele>41.16015625</ele>
        <time>2025-10-08T09:31:26Z</time>
      </trkpt>
      <trkpt lat="52.436303962022066" lon="7.994498983025551">
        <ele>41.0234375</ele>
        <time>2025-10-08T09:31:30Z</time>
      </trkpt>
      <trkpt lat="52.436547037214041" lon="7.994413990527391">
        <ele>40.97265625</ele>
        <time>2025-10-08T09:31:34Z</time>
      </trkpt>
      <trkpt lat="52.436788016930223" lon="7.994383983314037">
        <ele>40.94921875</ele>
        <time>2025-10-08T09:31:38Z</time>
      </trkpt>
      <trkpt lat="52.437036037445068" lon="7.994360011070967">
        <ele>40.94140625</ele>
        <time>2025-10-08T09:31:42Z</time>
      </trkpt>
      <trkpt lat="52.437286991626024" lon="7.994258003309369">
        <ele>41.171875</ele>
        <time>2025-10-08T09:31:46Z</time>
      </trkpt>
      <trkpt lat="52.437509028241038" lon="7.994106961414218">
        <ele>41.72265625</ele>
        <time>2025-10-08T09:31:50Z</time>
      </trkpt>
      <trkpt lat="52.437683958560228" lon="7.993929013609886">
        <ele>42.1953125</ele>
        <time>2025-10-08T09:31:54Z</time>
      </trkpt>
      <trkpt lat="52.437860984355211" lon="7.993732960894704">
        <ele>42.6015625</ele>
        <time>2025-10-08T09:32:07Z</time>
      </trkpt>
      <trkpt lat="52.437744978815317" lon="7.993455016985536">
        <ele>42.9921875</ele>
        <time>2025-10-08T09:32:12Z</time>
      </trkpt>
      <trkpt lat="52.437618998810649" lon="7.993176989257336">
        <ele>42.8359375</ele>
        <time>2025-10-08T09:32:16Z</time>
      </trkpt>
      <trkpt lat="52.437496036291122" lon="7.992923017591238">
        <ele>42.78125</ele>
        <time>2025-10-08T09:32:20Z</time>
      </trkpt>
      <trkpt lat="52.437422024086118" lon="7.992614982649684">
        <ele>42.73828125</ele>
        <time>2025-10-08T09:32:25Z</time>
      </trkpt>
      <trkpt lat="52.437585974112153" lon="7.992423037067056">
        <ele>42.41796875</ele>
        <time>2025-10-08T09:32:29Z</time>
      </trkpt>
      <trkpt lat="52.437766017392278" lon="7.992210974916816">
        <ele>42.16796875</ele>
        <time>2025-10-08T09:32:33Z</time>
      </trkpt>
      <trkpt lat="52.437930973246694" lon="7.991998996585608">
        <ele>42.03515625</ele>
        <time>2025-10-08T09:32:37Z</time>
      </trkpt>
      <trkpt lat="52.438088972121477" lon="7.991757011041045">
        <ele>42</ele>
        <time>2025-10-08T09:32:41Z</time>
      </trkpt>
      <trkpt lat="52.438247976824641" lon="7.991495998576284">
        <ele>42.125</ele>
        <time>2025-10-08T09:32:45Z</time>
      </trkpt>
      <trkpt lat="52.438402036204934" lon="7.991243032738566">
        <ele>42.2421875</ele>
        <time>2025-10-08T09:32:49Z</time>
      </trkpt>
      <trkpt lat="52.438561040908098" lon="7.990968022495508">
        <ele>42.3828125</ele>
        <time>2025-10-08T09:32:53Z</time>
      </trkpt>
      <trkpt lat="52.438708981499076" lon="7.990659987553954">
        <ele>42.49609375</ele>
        <time>2025-10-08T09:32:57Z</time>
      </trkpt>
      <trkpt lat="52.438861029222608" lon="7.990364022552967">
        <ele>42.7265625</ele>
        <time>2025-10-08T09:33:01Z</time>
      </trkpt>
      <trkpt lat="52.439009975641966" lon="7.990049030631781">
        <ele>43.0859375</ele>
        <time>2025-10-08T09:33:05Z</time>
      </trkpt>
      <trkpt lat="52.439158000051975" lon="7.989740995690227">
        <ele>43.3125</ele>
        <time>2025-10-08T09:33:09Z</time>
      </trkpt>
      <trkpt lat="52.439299989491701" lon="7.989417035132647">
        <ele>43.4296875</ele>
        <time>2025-10-08T09:33:13Z</time>
      </trkpt>
      <trkpt lat="52.43944700807333" lon="7.989083016291261">
        <ele>43.5</ele>
        <time>2025-10-08T09:33:17Z</time>
      </trkpt>
      <trkpt lat="52.439595032483339" lon="7.988755032420158">
        <ele>43.703125</ele>
        <time>2025-10-08T09:33:21Z</time>
      </trkpt>
      <trkpt lat="52.439737021923065" lon="7.988425958901644">
        <ele>44</ele>
        <time>2025-10-08T09:33:25Z</time>
      </trkpt>
      <trkpt lat="52.439875993877649" lon="7.988099986687303">
        <ele>44</ele>
        <time>2025-10-08T09:33:29Z</time>
      </trkpt>
      <trkpt lat="52.440025024116039" lon="7.987778959795833">
        <ele>44</ele>
        <time>2025-10-08T09:33:33Z</time>
      </trkpt>
      <trkpt lat="52.440172964707017" lon="7.98745097592473">
        <ele>43.90234375</ele>
        <time>2025-10-08T09:33:37Z</time>
      </trkpt>
      <trkpt lat="52.440316965803504" lon="7.987114023417234">
        <ele>43.828125</ele>
        <time>2025-10-08T09:33:41Z</time>
      </trkpt>
      <trkpt lat="52.440453004091978" lon="7.986794002354145">
        <ele>43.88671875</ele>
        <time>2025-10-08T09:33:45Z</time>
      </trkpt>
      <trkpt lat="52.440598011016846" lon="7.98648496158421">
        <ele>44.0234375</ele>
        <time>2025-10-08T09:33:49Z</time>
      </trkpt>
      <trkpt lat="52.440747041255236" lon="7.986179022118449">
        <ele>44.1796875</ele>
        <time>2025-10-08T09:33:53Z</time>
      </trkpt>
      <trkpt lat="52.440892970189452" lon="7.985877022147179">
        <ele>44.3046875</ele>
        <time>2025-10-08T09:33:57Z</time>
      </trkpt>
      <trkpt lat="52.441046023741364" lon="7.985596982762218">
        <ele>44.15234375</ele>
        <time>2025-10-08T09:34:01Z</time>
      </trkpt>
      <trkpt lat="52.441217014566064" lon="7.985313003882766">
        <ele>44.015625</ele>
        <time>2025-10-08T09:34:05Z</time>
      </trkpt>
      <trkpt lat="52.441380964592099" lon="7.985063977539539">
        <ele>43.9140625</ele>
        <time>2025-10-08T09:34:09Z</time>
      </trkpt>
      <trkpt lat="52.44155396707356" lon="7.984816962853074">
        <ele>43.41015625</ele>
        <time>2025-10-08T09:34:13Z</time>
      </trkpt>
      <trkpt lat="52.441730992868543" lon="7.984571037814021">
        <ele>42.90234375</ele>
        <time>2025-10-08T09:34:17Z</time>
      </trkpt>
      <trkpt lat="52.441910030320287" lon="7.984359981492162">
        <ele>42.43359375</ele>
        <time>2025-10-08T09:34:21Z</time>
      </trkpt>
      <trkpt lat="52.442055959254503" lon="7.984143979847431">
        <ele>42</ele>
        <time>2025-10-08T09:34:25Z</time>
      </trkpt>
      <trkpt lat="52.442204989492893" lon="7.983832005411387">
        <ele>41.4453125</ele>
        <time>2025-10-08T09:34:31Z</time>
      </trkpt>
      <trkpt lat="52.442338010296226" lon="7.983577027916908">
        <ele>41.2578125</ele>
        <time>2025-10-08T09:34:35Z</time>
      </trkpt>
      <trkpt lat="52.442515036091208" lon="7.983337976038456">
        <ele>41.40625</ele>
        <time>2025-10-08T09:34:39Z</time>
      </trkpt>
      <trkpt lat="52.44269298389554" lon="7.983104959130287">
        <ele>41.5078125</ele>
        <time>2025-10-08T09:34:43Z</time>
      </trkpt>
      <trkpt lat="52.442846959456801" lon="7.982823997735977">
        <ele>41.35546875</ele>
        <time>2025-10-08T09:34:47Z</time>
      </trkpt>
      <trkpt lat="52.442916026338935" lon="7.982472041621804">
        <ele>41.32421875</ele>
        <time>2025-10-08T09:34:51Z</time>
      </trkpt>
      <trkpt lat="52.442961959168315" lon="7.982085971161723">
        <ele>41.6953125</ele>
        <time>2025-10-08T09:34:55Z</time>
      </trkpt>
      <trkpt lat="52.443010993301868" lon="7.981720017269254">
        <ele>42.09765625</ele>
        <time>2025-10-08T09:34:59Z</time>
      </trkpt>
      <trkpt lat="52.443052986636758" lon="7.981336964294314">
        <ele>42.55859375</ele>
        <time>2025-10-08T09:35:03Z</time>
      </trkpt>
      <trkpt lat="52.443102020770311" lon="7.980976039543748">
        <ele>42.9921875</ele>
        <time>2025-10-08T09:35:07Z</time>
      </trkpt>
      <trkpt lat="52.443151976913214" lon="7.98059499822557">
        <ele>43.7890625</ele>
        <time>2025-10-08T09:35:11Z</time>
      </trkpt>
      <trkpt lat="52.443198999390006" lon="7.980229966342449">
        <ele>44.453125</ele>
        <time>2025-10-08T09:35:15Z</time>
      </trkpt>
      <trkpt lat="52.443246021866798" lon="7.979854959994555">
        <ele>44.18359375</ele>
        <time>2025-10-08T09:35:19Z</time>
      </trkpt>
      <trkpt lat="52.44329497218132" lon="7.979472996667028">
        <ele>43.60546875</ele>
        <time>2025-10-08T09:35:23Z</time>
      </trkpt>
      <trkpt lat="52.44333696551621" lon="7.979121040552855">
        <ele>43.16015625</ele>
        <time>2025-10-08T09:35:27Z</time>
      </trkpt>
      <trkpt lat="52.443385999649763" lon="7.978753997012973">
        <ele>42.79296875</ele>
        <time>2025-10-08T09:35:31Z</time>
      </trkpt>
      <trkpt lat="52.443425981327891" lon="7.978371027857065">
        <ele>42.54296875</ele>
        <time>2025-10-08T09:35:35Z</time>
      </trkpt>
      <trkpt lat="52.443474009633064" lon="7.978012030944228">
        <ele>42.48828125</ele>
        <time>2025-10-08T09:35:39Z</time>
      </trkpt>
      <trkpt lat="52.443524971604347" lon="7.977654039859772">
        <ele>42.42578125</ele>
        <time>2025-10-08T09:35:43Z</time>
      </trkpt>
      <trkpt lat="52.443566964939237" lon="7.977303005754948">
        <ele>42.4765625</ele>
        <time>2025-10-08T09:35:47Z</time>
      </trkpt>
      <trkpt lat="52.443609964102507" lon="7.976937973871827">
        <ele>42.62109375</ele>
        <time>2025-10-08T09:35:51Z</time>
      </trkpt>
      <trkpt lat="52.443649023771286" lon="7.976585011929274">
        <ele>42.72265625</ele>
        <time>2025-10-08T09:35:55Z</time>
      </trkpt>
      <trkpt lat="52.443695040419698" lon="7.976230038329959">
        <ele>42.77734375</ele>
        <time>2025-10-08T09:35:59Z</time>
      </trkpt>
      <trkpt lat="52.443751031532884" lon="7.975859977304936">
        <ele>43.078125</ele>
        <time>2025-10-08T09:36:03Z</time>
      </trkpt>
      <trkpt lat="52.443797970190644" lon="7.97548396512866">
        <ele>43.9609375</ele>
        <time>2025-10-08T09:36:07Z</time>
      </trkpt>
      <trkpt lat="52.443842981010675" lon="7.975108036771417">
        <ele>44.83203125</ele>
        <time>2025-10-08T09:36:11Z</time>
      </trkpt>
      <trkpt lat="52.443885980173945" lon="7.974734036251903">
        <ele>44.5</ele>
        <time>2025-10-08T09:36:15Z</time>
      </trkpt>
      <trkpt lat="52.443938031792641" lon="7.974375039339066">
        <ele>44.00390625</ele>
        <time>2025-10-08T09:36:19Z</time>
      </trkpt>
      <trkpt lat="52.443988993763924" lon="7.973989974707365">
        <ele>43.8671875</ele>
        <time>2025-10-08T09:36:23Z</time>
      </trkpt>
      <trkpt lat="52.444028975442052" lon="7.973624020814896">
        <ele>43.8203125</ele>
        <time>2025-10-08T09:36:27Z</time>
      </trkpt>
      <trkpt lat="52.444080021232367" lon="7.973250020295382">
        <ele>43.7578125</ele>
        <time>2025-10-08T09:36:31Z</time>
      </trkpt>
      <trkpt lat="52.444124026224017" lon="7.972874008119106">
        <ele>43.70703125</ele>
        <time>2025-10-08T09:36:35Z</time>
      </trkpt>
      <trkpt lat="52.444168031215668" lon="7.972505958750844">
        <ele>43.81640625</ele>
        <time>2025-10-08T09:36:39Z</time>
      </trkpt>
      <trkpt lat="52.444212958216667" lon="7.972113015130162">
        <ele>44.234375</ele>
        <time>2025-10-08T09:36:43Z</time>
      </trkpt>
      <trkpt lat="52.444268027320504" lon="7.971751000732184">
        <ele>44.56640625</ele>
        <time>2025-10-08T09:36:47Z</time>
      </trkpt>
      <trkpt lat="52.444314965978265" lon="7.971395021304488">
        <ele>44.73828125</ele>
        <time>2025-10-08T09:36:51Z</time>
      </trkpt>
      <trkpt lat="52.444359976798296" lon="7.971024960279465">
        <ele>44.96484375</ele>
        <time>2025-10-08T09:36:55Z</time>
      </trkpt>
      <trkpt lat="52.444399958476424" lon="7.970654983073473">
        <ele>45.38671875</ele>
        <time>2025-10-08T09:36:59Z</time>
      </trkpt>
      <trkpt lat="52.444444969296455" lon="7.970287017524242">
        <ele>45.828125</ele>
        <time>2025-10-08T09:37:03Z</time>
      </trkpt>
      <trkpt lat="52.444483023136854" lon="7.96991502866149">
        <ele>46.5</ele>
        <time>2025-10-08T09:37:07Z</time>
      </trkpt>
      <trkpt lat="52.444540020078421" lon="7.969547985121608">
        <ele>47.16015625</ele>
        <time>2025-10-08T09:37:11Z</time>
      </trkpt>
      <trkpt lat="52.444583019241691" lon="7.969181025400758">
        <ele>47.62109375</ele>
        <time>2025-10-08T09:37:15Z</time>
      </trkpt>
      <trkpt lat="52.444632975384593" lon="7.96879998408258">
        <ele>47.8984375</ele>
        <time>2025-10-08T09:37:19Z</time>
      </trkpt>
      <trkpt lat="52.444678992033005" lon="7.968427995219827">
        <ele>47.99609375</ele>
        <time>2025-10-08T09:37:23Z</time>
      </trkpt>
      <trkpt lat="52.444738000631332" lon="7.968055000528693">
        <ele>46.875</ele>
        <time>2025-10-08T09:37:27Z</time>
      </trkpt>
      <trkpt lat="52.444765996187925" lon="7.967727016657591">
        <ele>45.99609375</ele>
        <time>2025-10-08T09:37:31Z</time>
      </trkpt>
      <trkpt lat="52.444689972326159" lon="7.967462986707687">
        <ele>45.80078125</ele>
        <time>2025-10-08T09:37:35Z</time>
      </trkpt>
      <trkpt lat="52.444472964853048" lon="7.967420993372798">
        <ele>45.94140625</ele>
        <time>2025-10-08T09:37:39Z</time>
      </trkpt>
      <trkpt lat="52.444241959601641" lon="7.967437002807856">
        <ele>46.171875</ele>
        <time>2025-10-08T09:37:43Z</time>
      </trkpt>
      <trkpt lat="52.44400299154222" lon="7.967431973665953">
        <ele>46.37890625</ele>
        <time>2025-10-08T09:37:47Z</time>
      </trkpt>
      <trkpt lat="52.443757988512516" lon="7.96744697727263">
        <ele>46.30078125</ele>
        <time>2025-10-08T09:37:51Z</time>
      </trkpt>
      <trkpt lat="52.443516002967954" lon="7.967441026121378">
        <ele>45.8515625</ele>
        <time>2025-10-08T09:37:55Z</time>
      </trkpt>
      <trkpt lat="52.443298995494843" lon="7.967337006703019">
        <ele>45.3828125</ele>
        <time>2025-10-08T09:37:59Z</time>
      </trkpt>
      <trkpt lat="52.443140996620059" lon="7.967069037258625">
        <ele>45.0703125</ele>
        <time>2025-10-08T09:38:03Z</time>
      </trkpt>
      <trkpt lat="52.442903034389019" lon="7.967031989246607">
        <ele>45</ele>
        <time>2025-10-08T09:38:07Z</time>
      </trkpt>
      <trkpt lat="52.442664988338947" lon="7.967056967318058">
        <ele>45</ele>
        <time>2025-10-08T09:38:11Z</time>
      </trkpt>
      <trkpt lat="52.442443035542965" lon="7.966940961778164">
        <ele>45</ele>
        <time>2025-10-08T09:38:15Z</time>
      </trkpt>
      <trkpt lat="52.442371034994721" lon="7.966580959036946">
        <ele>45</ele>
        <time>2025-10-08T09:38:19Z</time>
      </trkpt>
      <trkpt lat="52.442329041659832" lon="7.966205030679703">
        <ele>45</ele>
        <time>2025-10-08T09:38:23Z</time>
      </trkpt>
      <trkpt lat="52.442274978384376" lon="7.965842010453343">
        <ele>45.15234375</ele>
        <time>2025-10-08T09:38:27Z</time>
      </trkpt>
      <trkpt lat="52.442225022241473" lon="7.965525006875396">
        <ele>45.5390625</ele>
        <time>2025-10-08T09:38:32Z</time>
      </trkpt>
      <trkpt lat="52.442000973969698" lon="7.965554008260369">
        <ele>45.63671875</ele>
        <time>2025-10-08T09:38:59Z</time>
      </trkpt>
      <trkpt lat="52.441771980375051" lon="7.965616034343839">
        <ele>45.734375</ele>
        <time>2025-10-08T09:39:04Z</time>
      </trkpt>
      <trkpt lat="52.44164097122848" lon="7.965390980243683">
        <ele>45.91015625</ele>
        <time>2025-10-08T09:39:08Z</time>
      </trkpt>
      <trkpt lat="52.441572993993759" lon="7.965077999979258">
        <ele>45.98046875</ele>
        <time>2025-10-08T09:39:12Z</time>
      </trkpt>
      <trkpt lat="52.441501999273896" lon="7.964777005836368">
        <ele>45.9375</ele>
        <time>2025-10-08T09:39:16Z</time>
      </trkpt>
      <trkpt lat="52.441279040649533" lon="7.964678015559912">
        <ele>46</ele>
        <time>2025-10-08T09:39:21Z</time>
      </trkpt>
      <trkpt lat="52.441047029569745" lon="7.964657982811332">
        <ele>46</ele>
        <time>2025-10-08T09:39:25Z</time>
      </trkpt>
      <trkpt lat="52.44082298129797" lon="7.96458899974823">
        <ele>46</ele>
        <time>2025-10-08T09:39:29Z</time>
      </trkpt>
      <trkpt lat="52.440661964938045" lon="7.964431000873447">
        <ele>46</ele>
        <time>2025-10-08T09:39:33Z</time>
      </trkpt>
      <trkpt lat="52.440744023770094" lon="7.964153978973627">
        <ele>45.953125</ele>
        <time>2025-10-08T09:39:37Z</time>
      </trkpt>
      <trkpt lat="52.440897999331355" lon="7.963875029236078">
        <ele>45.77734375</ele>
        <time>2025-10-08T09:39:41Z</time>
      </trkpt>
      <trkpt lat="52.4410580098629" lon="7.963590966537595">
        <ele>45.46875</ele>
        <time>2025-10-08T09:39:45Z</time>
      </trkpt>
      <trkpt lat="52.441222965717316" lon="7.963281003758311">
        <ele>45.19140625</ele>
        <time>2025-10-08T09:39:50Z</time>
      </trkpt>
      <trkpt lat="52.441380964592099" lon="7.963013034313917">
        <ele>45</ele>
        <time>2025-10-08T09:39:54Z</time>
      </trkpt>
      <trkpt lat="52.441566959023476" lon="7.962755961343646">
        <ele>44.8046875</ele>
        <time>2025-10-08T09:39:58Z</time>
      </trkpt>
      <trkpt lat="52.441739961504936" lon="7.962553035467863">
        <ele>44.5546875</ele>
        <time>2025-10-08T09:40:02Z</time>
      </trkpt>
      <trkpt lat="52.44191899895668" lon="7.96233301050961">
        <ele>44.46484375</ele>
        <time>2025-10-08T09:40:06Z</time>
      </trkpt>
      <trkpt lat="52.442118991166353" lon="7.962119020521641">
        <ele>44.60546875</ele>
        <time>2025-10-08T09:40:10Z</time>
      </trkpt>
      <trkpt lat="52.442300962284207" lon="7.96186001971364">
        <ele>44.9453125</ele>
        <time>2025-10-08T09:40:14Z</time>
      </trkpt>
      <trkpt lat="52.442443035542965" lon="7.961543016135693">
        <ele>45.328125</ele>
        <time>2025-10-08T09:40:18Z</time>
      </trkpt>
      <trkpt lat="52.442594999447465" lon="7.961240010336042">
        <ele>45.69140625</ele>
        <time>2025-10-08T09:40:22Z</time>
      </trkpt>
      <trkpt lat="52.442739000543952" lon="7.960942033678293">
        <ele>46</ele>
        <time>2025-10-08T09:40:26Z</time>
      </trkpt>
      <trkpt lat="52.442887024953961" lon="7.960628969594836">
        <ele>46</ele>
        <time>2025-10-08T09:40:30Z</time>
      </trkpt>
      <trkpt lat="52.443020967766643" lon="7.96033501625061">
        <ele>46</ele>
        <time>2025-10-08T09:40:34Z</time>
      </trkpt>
      <trkpt lat="52.443145019933581" lon="7.959996974095702">
        <ele>45.9140625</ele>
        <time>2025-10-08T09:40:38Z</time>
      </trkpt>
      <trkpt lat="52.443263959139585" lon="7.959653986617923">
        <ele>45.51171875</ele>
        <time>2025-10-08T09:40:42Z</time>
      </trkpt>
      <trkpt lat="52.44339999742806" lon="7.959342012181878">
        <ele>45.04296875</ele>
        <time>2025-10-08T09:40:46Z</time>
      </trkpt>
      <trkpt lat="52.443545004352927" lon="7.95904403552413">
        <ele>44.8671875</ele>
        <time>2025-10-08T09:40:50Z</time>
      </trkpt>
      <trkpt lat="52.443687999621034" lon="7.958741029724479">
        <ele>44.83984375</ele>
        <time>2025-10-08T09:40:54Z</time>
      </trkpt>
      <trkpt lat="52.443821020424366" lon="7.958421008661389">
        <ele>45</ele>
        <time>2025-10-08T09:40:58Z</time>
      </trkpt>
      <trkpt lat="52.44395999237895" lon="7.958097970113158">
        <ele>45.41796875</ele>
        <time>2025-10-08T09:41:02Z</time>
      </trkpt>
      <trkpt lat="52.444093013182282" lon="7.957765040919185">
        <ele>45.640625</ele>
        <time>2025-10-08T09:41:06Z</time>
      </trkpt>
      <trkpt lat="52.444215975701809" lon="7.957426998764277">
        <ele>45.59765625</ele>
        <time>2025-10-08T09:41:10Z</time>
      </trkpt>
      <trkpt lat="52.444373974576592" lon="7.957120975479484">
        <ele>45.40625</ele>
        <time>2025-10-08T09:41:14Z</time>
      </trkpt>
      <trkpt lat="52.444531973451376" lon="7.956828027963638">
        <ele>45.21484375</ele>
        <time>2025-10-08T09:41:18Z</time>
      </trkpt>
      <trkpt lat="52.444688966497779" lon="7.956559974700213">
        <ele>44.7265625</ele>
        <time>2025-10-08T09:41:22Z</time>
      </trkpt>
      <trkpt lat="52.444829028099775" lon="7.956266021355987">
        <ele>44.2890625</ele>
        <time>2025-10-08T09:41:27Z</time>
      </trkpt>
      <trkpt lat="52.444648984819651" lon="7.956084972247481">
        <ele>44.26171875</ele>
        <time>2025-10-08T09:41:32Z</time>
      </trkpt>
      <trkpt lat="52.444439018145204" lon="7.955979024991393">
        <ele>44.65625</ele>
        <time>2025-10-08T09:41:36Z</time>
      </trkpt>
      <trkpt lat="52.444230979308486" lon="7.955851033329964">
        <ele>45.15625</ele>
        <time>2025-10-08T09:41:40Z</time>
      </trkpt>
      <trkpt lat="52.444020006805658" lon="7.955728992819786">
        <ele>45.6640625</ele>
        <time>2025-10-08T09:41:44Z</time>
      </trkpt>
      <trkpt lat="52.443811967968941" lon="7.955612987279892">
        <ele>46.19921875</ele>
        <time>2025-10-08T09:41:48Z</time>
      </trkpt>
      <trkpt lat="52.443588003516197" lon="7.955504022538662">
        <ele>46.90234375</ele>
        <time>2025-10-08T09:41:52Z</time>
      </trkpt>
      <trkpt lat="52.443363033235073" lon="7.95539396815002">
        <ele>47.6796875</ele>
        <time>2025-10-08T09:41:56Z</time>
      </trkpt>
      <trkpt lat="52.443160023540258" lon="7.95526597648859">
        <ele>48.4765625</ele>
        <time>2025-10-08T09:42:00Z</time>
      </trkpt>
      <trkpt lat="52.442939998582006" lon="7.95515600591898">
        <ele>48.8671875</ele>
        <time>2025-10-08T09:42:04Z</time>
      </trkpt>
      <trkpt lat="52.442704970017076" lon="7.955063972622156">
        <ele>48.58984375</ele>
        <time>2025-10-08T09:42:08Z</time>
      </trkpt>
      <trkpt lat="52.442492991685867" lon="7.955017033964396">
        <ele>48.3359375</ele>
        <time>2025-10-08T09:42:12Z</time>
      </trkpt>
      <trkpt lat="52.44226198643446" lon="7.954991972073913">
        <ele>48.05859375</ele>
        <time>2025-10-08T09:42:16Z</time>
      </trkpt>
      <trkpt lat="52.442033998668194" lon="7.954981997609139">
        <ele>47.78515625</ele>
        <time>2025-10-08T09:42:20Z</time>
      </trkpt>
      <trkpt lat="52.44181003421545" lon="7.954928018152714">
        <ele>47.515625</ele>
        <time>2025-10-08T09:42:24Z</time>
      </trkpt>
      <trkpt lat="52.441577017307281" lon="7.954891975969076">
        <ele>47.234375</ele>
        <time>2025-10-08T09:42:28Z</time>
      </trkpt>
      <trkpt lat="52.441355986520648" lon="7.954880995675921">
        <ele>47.03125</ele>
        <time>2025-10-08T09:42:32Z</time>
      </trkpt>
      <trkpt lat="52.441127998754382" lon="7.954866997897625">
        <ele>47.3046875</ele>
        <time>2025-10-08T09:42:36Z</time>
      </trkpt>
      <trkpt lat="52.440896993502975" lon="7.954801032319665">
        <ele>47.58203125</ele>
        <time>2025-10-08T09:42:40Z</time>
      </trkpt>
      <trkpt lat="52.440676968544722" lon="7.954768007621169">
        <ele>47.84375</ele>
        <time>2025-10-08T09:42:44Z</time>
      </trkpt>
      <trkpt lat="52.440462978556752" lon="7.954742023721337">
        <ele>48</ele>
        <time>2025-10-08T09:42:48Z</time>
      </trkpt>
      <trkpt lat="52.44024395942688" lon="7.954699024558067">
        <ele>47.96875</ele>
        <time>2025-10-08T09:42:53Z</time>
      </trkpt>
      <trkpt lat="52.440031981095672" lon="7.954645967110992">
        <ele>47.86328125</ele>
        <time>2025-10-08T09:43:07Z</time>
      </trkpt>
      <trkpt lat="52.439818996936083" lon="7.954649990424514">
        <ele>47.81640625</ele>
        <time>2025-10-08T09:43:12Z</time>
      </trkpt>
      <trkpt lat="52.439579023048282" lon="7.954659964889288">
        <ele>47.71875</ele>
        <time>2025-10-08T09:43:18Z</time>
      </trkpt>
      <trkpt lat="52.439353968948126" lon="7.954644961282611">
        <ele>47.515625</ele>
        <time>2025-10-08T09:43:24Z</time>
      </trkpt>
      <trkpt lat="52.439148025587201" lon="7.954655019566417">
        <ele>47.3984375</ele>
        <time>2025-10-08T09:43:28Z</time>
      </trkpt>
      <trkpt lat="52.438921965658665" lon="7.954731965437532">
        <ele>47.5078125</ele>
        <time>2025-10-08T09:43:32Z</time>
      </trkpt>
      <trkpt lat="52.438705964013934" lon="7.95479298569262">
        <ele>48.03515625</ele>
        <time>2025-10-08T09:43:36Z</time>
      </trkpt>
      <trkpt lat="52.438477976247668" lon="7.95485601760447">
        <ele>48.73046875</ele>
        <time>2025-10-08T09:43:40Z</time>
      </trkpt>
      <trkpt lat="52.438260968774557" lon="7.954932963475585">
        <ele>49.50390625</ele>
        <time>2025-10-08T09:43:44Z</time>
      </trkpt>
      <trkpt lat="52.438032981008291" lon="7.954991972073913">
        <ele>50.2734375</ele>
        <time>2025-10-08T09:43:48Z</time>
      </trkpt>
      <trkpt lat="52.437800969928503" lon="7.955055003985763">
        <ele>51.19921875</ele>
        <time>2025-10-08T09:43:52Z</time>
      </trkpt>
      <trkpt lat="52.437575999647379" lon="7.955112000927329">
        <ele>51.99609375</ele>
        <time>2025-10-08T09:43:56Z</time>
      </trkpt>
      <trkpt lat="52.437336025759578" lon="7.95519900508225">
        <ele>52.82421875</ele>
        <time>2025-10-08T09:44:00Z</time>
      </trkpt>
      <trkpt lat="52.437095968052745" lon="7.955289026722312">
        <ele>53.40234375</ele>
        <time>2025-10-08T09:44:04Z</time>
      </trkpt>
      <trkpt lat="52.436854988336563" lon="7.955382987856865">
        <ele>53.625</ele>
        <time>2025-10-08T09:44:08Z</time>
      </trkpt>
      <trkpt lat="52.436630018055439" lon="7.955461023375392">
        <ele>53.6640625</ele>
        <time>2025-10-08T09:44:12Z</time>
      </trkpt>
      <trkpt lat="52.436410998925567" lon="7.955534029752016">
        <ele>53.5546875</ele>
        <time>2025-10-08T09:44:16Z</time>
      </trkpt>
      <trkpt lat="52.436198014765978" lon="7.955622039735317">
        <ele>52.9609375</ele>
        <time>2025-10-08T09:44:20Z</time>
      </trkpt>
      <trkpt lat="52.435961980372667" lon="7.955710971727967">
        <ele>52.14453125</ele>
        <time>2025-10-08T09:44:24Z</time>
      </trkpt>
      <trkpt lat="52.435725023970008" lon="7.955780038610101">
        <ele>51.26171875</ele>
        <time>2025-10-08T09:44:28Z</time>
      </trkpt>
      <trkpt lat="52.435498964041471" lon="7.955835023894906">
        <ele>50.56640625</ele>
        <time>2025-10-08T09:44:32Z</time>
      </trkpt>
      <trkpt lat="52.435292014852166" lon="7.955728992819786">
        <ele>51.1171875</ele>
        <time>2025-10-08T09:44:37Z</time>
      </trkpt>
      <trkpt lat="52.435196964070201" lon="7.955432021990418">
        <ele>52.5625</ele>
        <time>2025-10-08T09:44:41Z</time>
      </trkpt>
      <trkpt lat="52.435089005157351" lon="7.955119963735342">
        <ele>54.23046875</ele>
        <time>2025-10-08T09:44:45Z</time>
      </trkpt>
      <trkpt lat="52.434968976303935" lon="7.954788040369749">
        <ele>55.71484375</ele>
        <time>2025-10-08T09:44:49Z</time>
      </trkpt>
      <trkpt lat="52.434861017391086" lon="7.954486040398479">
        <ele>57.05859375</ele>
        <time>2025-10-08T09:44:53Z</time>
      </trkpt>
      <trkpt lat="52.434759009629488" lon="7.954178005456924">
        <ele>58.234375</ele>
        <time>2025-10-08T09:44:57Z</time>
      </trkpt>
      <trkpt lat="52.434635041281581" lon="7.953877011314035">
        <ele>58.76171875</ele>
        <time>2025-10-08T09:45:01Z</time>
      </trkpt>
      <trkpt lat="52.434510989114642" lon="7.953576017171145">
        <ele>59.0390625</ele>
        <time>2025-10-08T09:45:05Z</time>
      </trkpt>
      <trkpt lat="52.434396995231509" lon="7.953283991664648">
        <ele>59.1796875</ele>
        <time>2025-10-08T09:45:09Z</time>
      </trkpt>
      <trkpt lat="52.434280989691615" lon="7.95298702083528">
        <ele>59.33984375</ele>
        <time>2025-10-08T09:45:13Z</time>
      </trkpt>
      <trkpt lat="52.434156015515327" lon="7.952682003378868">
        <ele>59.59375</ele>
        <time>2025-10-08T09:45:17Z</time>
      </trkpt>
      <trkpt lat="52.434040009975433" lon="7.952389977872372">
        <ele>59.0546875</ele>
        <time>2025-10-08T09:45:21Z</time>
      </trkpt>
      <trkpt lat="52.433936996385455" lon="7.952094012871385">
        <ele>58.44921875</ele>
        <time>2025-10-08T09:45:25Z</time>
      </trkpt>
      <trkpt lat="52.433832976967096" lon="7.951803999021649">
        <ele>58.25390625</ele>
        <time>2025-10-08T09:45:29Z</time>
      </trkpt>
      <trkpt lat="52.433715965598822" lon="7.951492024585605">
        <ele>57.9140625</ele>
        <time>2025-10-08T09:45:33Z</time>
      </trkpt>
      <trkpt lat="52.433602977544069" lon="7.951190024614334">
        <ele>57.6796875</ele>
        <time>2025-10-08T09:45:37Z</time>
      </trkpt>
      <trkpt lat="52.433499963954091" lon="7.950890036299825">
        <ele>57.43359375</ele>
        <time>2025-10-08T09:45:41Z</time>
      </trkpt>
      <trkpt lat="52.433394016698003" lon="7.950573032721877">
        <ele>56.953125</ele>
        <time>2025-10-08T09:45:45Z</time>
      </trkpt>
      <trkpt lat="52.433289997279644" lon="7.950243959203363">
        <ele>56.22265625</ele>
        <time>2025-10-08T09:45:49Z</time>
      </trkpt>
      <trkpt lat="52.433193018659949" lon="7.949947994202375">
        <ele>56.78515625</ele>
        <time>2025-10-08T09:45:53Z</time>
      </trkpt>
      <trkpt lat="52.433133004233241" lon="7.94965697452426">
        <ele>57.7578125</ele>
        <time>2025-10-08T09:45:57Z</time>
      </trkpt>
      <trkpt lat="52.433245992287993" lon="7.949366038665175">
        <ele>57.75</ele>
        <time>2025-10-08T09:46:01Z</time>
      </trkpt>
      <trkpt lat="52.433379013091326" lon="7.94907895848155">
        <ele>58.45703125</ele>
        <time>2025-10-08T09:46:05Z</time>
      </trkpt>
      <trkpt lat="52.43351798504591" lon="7.948780981823802">
        <ele>59.0234375</ele>
        <time>2025-10-08T09:46:09Z</time>
      </trkpt>
      <trkpt lat="52.433671960607171" lon="7.948491973802447">
        <ele>59.046875</ele>
        <time>2025-10-08T09:46:13Z</time>
      </trkpt>
      <trkpt lat="52.433828031644225" lon="7.94821503572166">
        <ele>59.1171875</ele>
        <time>2025-10-08T09:46:17Z</time>
      </trkpt>
      <trkpt lat="52.433997010812163" lon="7.947942959144712">
        <ele>59.7109375</ele>
        <time>2025-10-08T09:46:21Z</time>
      </trkpt>
      <trkpt lat="52.434156015515327" lon="7.947674989700317">
        <ele>60.28515625</ele>
        <time>2025-10-08T09:46:25Z</time>
      </trkpt>
      <trkpt lat="52.434318037703633" lon="7.947385981678963">
        <ele>59.41796875</ele>
        <time>2025-10-08T09:46:29Z</time>
      </trkpt>
      <trkpt lat="52.434481987729669" lon="7.947128992527723">
        <ele>58.6953125</ele>
        <time>2025-10-08T09:46:33Z</time>
      </trkpt>
      <trkpt lat="52.434402024373412" lon="7.946860017254949">
        <ele>59.12890625</ele>
        <time>2025-10-08T09:46:38Z</time>
      </trkpt>
      <trkpt lat="52.434173030778766" lon="7.946793967857957">
        <ele>60.015625</ele>
        <time>2025-10-08T09:46:42Z</time>
      </trkpt>
      <trkpt lat="52.433984018862247" lon="7.94669296592474">
        <ele>60.72265625</ele>
        <time>2025-10-08T09:46:46Z</time>
      </trkpt>
      <trkpt lat="52.433790983632207" lon="7.946608979254961">
        <ele>61.2265625</ele>
        <time>2025-10-08T09:46:50Z</time>
      </trkpt>
      <trkpt lat="52.433601971715689" lon="7.946515018120408">
        <ele>61.6796875</ele>
        <time>2025-10-08T09:46:54Z</time>
      </trkpt>
      <trkpt lat="52.433399967849255" lon="7.946466989815235">
        <ele>62.16796875</ele>
        <time>2025-10-08T09:46:58Z</time>
      </trkpt>
      <trkpt lat="52.433211961761117" lon="7.94632600620389">
        <ele>62.6171875</ele>
        <time>2025-10-08T09:47:02Z</time>
      </trkpt>
      <trkpt lat="52.433084975928068" lon="7.946032974869013">
        <ele>62.921875</ele>
        <time>2025-10-08T09:47:06Z</time>
      </trkpt>
      <trkpt lat="52.433047005906701" lon="7.945669032633305">
        <ele>63.78515625</ele>
        <time>2025-10-08T09:47:10Z</time>
      </trkpt>
      <trkpt lat="52.433016998693347" lon="7.945355968549848">
        <ele>64.625</ele>
        <time>2025-10-08T09:47:14Z</time>
      </trkpt>
      <trkpt lat="52.432978022843599" lon="7.945018010213971">
        <ele>65.26953125</ele>
        <time>2025-10-08T09:47:18Z</time>
      </trkpt>
      <trkpt lat="52.43293896317482" lon="7.944709975272417">
        <ele>65.41015625</ele>
        <time>2025-10-08T09:47:22Z</time>
      </trkpt>
      <trkpt lat="52.432898981496692" lon="7.944405041635037">
        <ele>65.5546875</ele>
        <time>2025-10-08T09:47:26Z</time>
      </trkpt>
      <trkpt lat="52.432866962626576" lon="7.944087032228708">
        <ele>65.25390625</ele>
        <time>2025-10-08T09:47:30Z</time>
      </trkpt>
      <trkpt lat="52.432866040617228" lon="7.943772040307522">
        <ele>64.7109375</ele>
        <time>2025-10-08T09:47:34Z</time>
      </trkpt>
      <trkpt lat="52.432846007868648" lon="7.943457970395684">
        <ele>64.33203125</ele>
        <time>2025-10-08T09:47:38Z</time>
      </trkpt>
      <trkpt lat="52.432822035625577" lon="7.943077012896538">
        <ele>65.22265625</ele>
        <time>2025-10-08T09:47:43Z</time>
      </trkpt>
      <trkpt lat="52.432803008705378" lon="7.942718015983701">
        <ele>65.9765625</ele>
        <time>2025-10-08T09:47:48Z</time>
      </trkpt>
      <trkpt lat="52.432752968743443" lon="7.942361030727625">
        <ele>68.41015625</ele>
        <time>2025-10-08T09:47:53Z</time>
      </trkpt>
      <trkpt lat="52.432703012600541" lon="7.942047966644168">
        <ele>70.6953125</ele>
        <time>2025-10-08T09:47:57Z</time>
      </trkpt>
      <trkpt lat="52.432580972090364" lon="7.941723000258207">
        <ele>72.03125</ele>
        <time>2025-10-08T09:48:02Z</time>
      </trkpt>
      <trkpt lat="52.432421967387199" lon="7.941528959199786">
        <ele>71.6171875</ele>
        <time>2025-10-08T09:48:06Z</time>
      </trkpt>
      <trkpt lat="52.432159027084708" lon="7.941456958651543">
        <ele>70.22265625</ele>
        <time>2025-10-08T09:48:10Z</time>
      </trkpt>
      <trkpt lat="52.431876976042986" lon="7.941375989466906">
        <ele>70.02734375</ele>
        <time>2025-10-08T09:48:14Z</time>
      </trkpt>
      <trkpt lat="52.431598026305437" lon="7.94129703193903">
        <ele>69.89453125</ele>
        <time>2025-10-08T09:48:18Z</time>
      </trkpt>
      <trkpt lat="52.431346988305449" lon="7.941227965056896">
        <ele>69.7265625</ele>
        <time>2025-10-08T09:48:22Z</time>
      </trkpt>
      <trkpt lat="52.431126963347197" lon="7.941158981993794">
        <ele>69.1484375</ele>
        <time>2025-10-08T09:48:26Z</time>
      </trkpt>
      <trkpt lat="52.430922025814652" lon="7.941117994487286">
        <ele>68.421875</ele>
        <time>2025-10-08T09:48:30Z</time>
      </trkpt>
      <trkpt lat="52.43072496727109" lon="7.941088993102312">
        <ele>67.63671875</ele>
        <time>2025-10-08T09:48:34Z</time>
      </trkpt>
      <trkpt lat="52.430494967848063" lon="7.941016992554069">
        <ele>67.3359375</ele>
        <time>2025-10-08T09:48:39Z</time>
      </trkpt>
      <trkpt lat="52.430259017273784" lon="7.940954966470599">
        <ele>68.78515625</ele>
        <time>2025-10-08T09:48:44Z</time>
      </trkpt>
      <trkpt lat="52.430061036720872" lon="7.940938035026193">
        <ele>69.8984375</ele>
        <time>2025-10-08T09:48:48Z</time>
      </trkpt>
      <trkpt lat="52.42980002425611" lon="7.94086997397244">
        <ele>71.1484375</ele>
        <time>2025-10-08T09:48:54Z</time>
      </trkpt>
      <trkpt lat="52.42958796210587" lon="7.940732007846236">
        <ele>72.4453125</ele>
        <time>2025-10-08T09:49:00Z</time>
      </trkpt>
      <trkpt lat="52.429386964067817" lon="7.940567974001169">
        <ele>73.87109375</ele>
        <time>2025-10-08T09:49:06Z</time>
      </trkpt>
      <trkpt lat="52.429192001000047" lon="7.940403018146753">
        <ele>75.140625</ele>
        <time>2025-10-08T09:49:12Z</time>
      </trkpt>
      <trkpt lat="52.428991002961993" lon="7.940248036757112">
        <ele>76.41796875</ele>
        <time>2025-10-08T09:49:19Z</time>
      </trkpt>
      <trkpt lat="52.428798973560333" lon="7.940081991255283">
        <ele>78.125</ele>
        <time>2025-10-08T09:49:25Z</time>
      </trkpt>
      <trkpt lat="52.428615996614099" lon="7.939915023744106">
        <ele>80.0859375</ele>
        <time>2025-10-08T09:49:31Z</time>
      </trkpt>
      <trkpt lat="52.428418016061187" lon="7.939770016819239">
        <ele>81.79296875</ele>
        <time>2025-10-08T09:49:38Z</time>
      </trkpt>
      <trkpt lat="52.428235039114952" lon="7.939670020714402">
        <ele>83.12109375</ele>
        <time>2025-10-08T09:49:44Z</time>
      </trkpt>
      <trkpt lat="52.428052984178066" lon="7.93960003182292">
        <ele>84.31640625</ele>
        <time>2025-10-08T09:49:50Z</time>
      </trkpt>
      <trkpt lat="52.427833965048194" lon="7.939544962719083">
        <ele>85.30859375</ele>
        <time>2025-10-08T09:49:57Z</time>
      </trkpt>
      <trkpt lat="52.427635984495282" lon="7.939488971605897">
        <ele>86.07421875</ele>
        <time>2025-10-08T09:50:03Z</time>
      </trkpt>
      <trkpt lat="52.427442027255893" lon="7.939457036554813">
        <ele>86.90234375</ele>
        <time>2025-10-08T09:50:09Z</time>
      </trkpt>
      <trkpt lat="52.427246980369091" lon="7.939435997977853">
        <ele>87.76953125</ele>
        <time>2025-10-08T09:50:15Z</time>
      </trkpt>
      <trkpt lat="52.427057968452573" lon="7.939411019906402">
        <ele>89.4140625</ele>
        <time>2025-10-08T09:50:21Z</time>
      </trkpt>
      <trkpt lat="52.426856970414519" lon="7.939386963844299">
        <ele>91.3515625</ele>
        <time>2025-10-08T09:50:27Z</time>
      </trkpt>
      <trkpt lat="52.426659995689988" lon="7.939328961074352">
        <ele>93.0859375</ele>
        <time>2025-10-08T09:50:33Z</time>
      </trkpt>
      <trkpt lat="52.426475007086992" lon="7.939203986898065">
        <ele>94.94921875</ele>
        <time>2025-10-08T09:50:39Z</time>
      </trkpt>
      <trkpt lat="52.426303010433912" lon="7.939058979973197">
        <ele>96.828125</ele>
        <time>2025-10-08T09:50:45Z</time>
      </trkpt>
      <trkpt lat="52.426135959103703" lon="7.93884901329875">
        <ele>98.78515625</ele>
        <time>2025-10-08T09:50:51Z</time>
      </trkpt>
      <trkpt lat="52.425978966057301" lon="7.938609039410949">
        <ele>100.5703125</ele>
        <time>2025-10-08T09:50:58Z</time>
      </trkpt>
      <trkpt lat="52.425813004374504" lon="7.938384991139174">
        <ele>101.99609375</ele>
        <time>2025-10-08T09:51:05Z</time>
      </trkpt>
      <trkpt lat="52.425665985792875" lon="7.938154991716147">
        <ele>102.5703125</ele>
        <time>2025-10-08T09:51:12Z</time>
      </trkpt>
      <trkpt lat="52.425479991361499" lon="7.93790596537292">
        <ele>102.83984375</ele>
        <time>2025-10-08T09:51:20Z</time>
      </trkpt>
      <trkpt lat="52.42533003911376" lon="7.937661968171597">
        <ele>102.3515625</ele>
        <time>2025-10-08T09:51:27Z</time>
      </trkpt>
      <trkpt lat="52.425195006653666" lon="7.937450995668769">
        <ele>101.5</ele>
        <time>2025-10-08T09:51:33Z</time>
      </trkpt>
      <trkpt lat="52.425046982243657" lon="7.93719501234591">
        <ele>100.47265625</ele>
        <time>2025-10-08T09:51:40Z</time>
      </trkpt>
      <trkpt lat="52.424893006682396" lon="7.936953026801348">
        <ele>99.69921875</ele>
        <time>2025-10-08T09:51:46Z</time>
      </trkpt>
      <trkpt lat="52.424712963402271" lon="7.936710035428405">
        <ele>99.41015625</ele>
        <time>2025-10-08T09:51:52Z</time>
      </trkpt>
      <trkpt lat="52.424539960920811" lon="7.936530997976661">
        <ele>98.578125</ele>
        <time>2025-10-08T09:51:58Z</time>
      </trkpt>
      <trkpt lat="52.424384979531169" lon="7.936282977461815">
        <ele>97.765625</ele>
        <time>2025-10-08T09:52:04Z</time>
      </trkpt>
      <trkpt lat="52.424226980656385" lon="7.93601299636066">
        <ele>97.234375</ele>
        <time>2025-10-08T09:52:10Z</time>
      </trkpt>
      <trkpt lat="52.424098988994956" lon="7.935763970017433">
        <ele>97.1484375</ele>
        <time>2025-10-08T09:52:16Z</time>
      </trkpt>
      <trkpt lat="52.423915006220341" lon="7.935545034706593">
        <ele>96.90234375</ele>
        <time>2025-10-08T09:53:10Z</time>
      </trkpt>
      <trkpt lat="52.42376103065908" lon="7.935268012806773">
        <ele>95.73828125</ele>
        <time>2025-10-08T09:53:15Z</time>
      </trkpt>
      <trkpt lat="52.423602025955915" lon="7.934964001178742">
        <ele>94.55859375</ele>
        <time>2025-10-08T09:53:19Z</time>
      </trkpt>
      <trkpt lat="52.423425000160933" lon="7.934652026742697">
        <ele>93.4296875</ele>
        <time>2025-10-08T09:53:23Z</time>
      </trkpt>
      <trkpt lat="52.42324898019433" lon="7.934332005679607">
        <ele>92.45703125</ele>
        <time>2025-10-08T09:53:27Z</time>
      </trkpt>
      <trkpt lat="52.423086035996675" lon="7.933946019038558">
        <ele>91.6171875</ele>
        <time>2025-10-08T09:53:31Z</time>
      </trkpt>
      <trkpt lat="52.422938011586666" lon="7.933533964678645">
        <ele>90.75</ele>
        <time>2025-10-08T09:53:35Z</time>
      </trkpt>
      <trkpt lat="52.422794010490179" lon="7.933130040764809">
        <ele>90.36328125</ele>
        <time>2025-10-08T09:53:39Z</time>
      </trkpt>
      <trkpt lat="52.42264598608017" lon="7.93272502720356">
        <ele>90.0078125</ele>
        <time>2025-10-08T09:53:43Z</time>
      </trkpt>
      <trkpt lat="52.422507014125586" lon="7.932325964793563">
        <ele>90.35546875</ele>
        <time>2025-10-08T09:53:47Z</time>
      </trkpt>
      <trkpt lat="52.422354966402054" lon="7.931936038658023">
        <ele>90.9296875</ele>
        <time>2025-10-08T09:53:51Z</time>
      </trkpt>
      <trkpt lat="52.422220017760992" lon="7.931532030925155">
        <ele>90.26171875</ele>
        <time>2025-10-08T09:53:55Z</time>
      </trkpt>
      <trkpt lat="52.422080961987376" lon="7.931150989606977">
        <ele>89.01171875</ele>
        <time>2025-10-08T09:53:59Z</time>
      </trkpt>
      <trkpt lat="52.42193897254765" lon="7.930742036551237">
        <ele>88.40625</ele>
        <time>2025-10-08T09:54:03Z</time>
      </trkpt>
      <trkpt lat="52.421798994764686" lon="7.930350014939904">
        <ele>87.953125</ele>
        <time>2025-10-08T09:54:07Z</time>
      </trkpt>
      <trkpt lat="52.421647030860186" lon="7.929957993328571">
        <ele>87.140625</ele>
        <time>2025-10-08T09:54:11Z</time>
      </trkpt>
      <trkpt lat="52.421510992571712" lon="7.929563038051128">
        <ele>86.4609375</ele>
        <time>2025-10-08T09:54:15Z</time>
      </trkpt>
      <trkpt lat="52.421366991475224" lon="7.929163975641131">
        <ele>86</ele>
        <time>2025-10-08T09:54:19Z</time>
      </trkpt>
      <trkpt lat="52.421230031177402" lon="7.92873197235167">
        <ele>86</ele>
        <time>2025-10-08T09:54:23Z</time>
      </trkpt>
      <trkpt lat="52.421133974567056" lon="7.928260993212462">
        <ele>86.19921875</ele>
        <time>2025-10-08T09:54:27Z</time>
      </trkpt>
      <trkpt lat="52.421043030917645" lon="7.927821027114987">
        <ele>86.47265625</ele>
        <time>2025-10-08T09:54:31Z</time>
      </trkpt>
      <trkpt lat="52.420957032591105" lon="7.927395980805159">
        <ele>87.7578125</ele>
        <time>2025-10-08T09:54:35Z</time>
      </trkpt>
      <trkpt lat="52.420872962102294" lon="7.9269880335778">
        <ele>89.2421875</ele>
        <time>2025-10-08T09:54:39Z</time>
      </trkpt>
      <trkpt lat="52.420760979875922" lon="7.926599029451609">
        <ele>89.765625</ele>
        <time>2025-10-08T09:54:43Z</time>
      </trkpt>
      <trkpt lat="52.420624019578099" lon="7.926222011446953">
        <ele>89.34375</ele>
        <time>2025-10-08T09:54:47Z</time>
      </trkpt>
      <trkpt lat="52.42045596241951" lon="7.925836024805903">
        <ele>87.33984375</ele>
        <time>2025-10-08T09:54:51Z</time>
      </trkpt>
      <trkpt lat="52.420295029878616" lon="7.925439979881048">
        <ele>84.74609375</ele>
        <time>2025-10-08T09:54:55Z</time>
      </trkpt>
      <trkpt lat="52.420145999640226" lon="7.925045024603605">
        <ele>83.01171875</ele>
        <time>2025-10-08T09:54:59Z</time>
      </trkpt>
      <trkpt lat="52.419995963573456" lon="7.924659037962556">
        <ele>82.37109375</ele>
        <time>2025-10-08T09:55:03Z</time>
      </trkpt>
      <trkpt lat="52.419833019375801" lon="7.924247989431024">
        <ele>82.36328125</ele>
        <time>2025-10-08T09:55:07Z</time>
      </trkpt>
      <trkpt lat="52.419678037986159" lon="7.923859991133213">
        <ele>82.5234375</ele>
        <time>2025-10-08T09:55:11Z</time>
      </trkpt>
      <trkpt lat="52.419534958899021" lon="7.923468975350261">
        <ele>82.9453125</ele>
        <time>2025-10-08T09:55:15Z</time>
      </trkpt>
      <trkpt lat="52.419397998601198" lon="7.923067985102534">
        <ele>82.265625</ele>
        <time>2025-10-08T09:55:19Z</time>
      </trkpt>
      <trkpt lat="52.419218039140105" lon="7.922698007896543">
        <ele>81.4375</ele>
        <time>2025-10-08T09:55:23Z</time>
      </trkpt>
      <trkpt lat="52.419004971161485" lon="7.922385027632117">
        <ele>80.83203125</ele>
        <time>2025-10-08T09:55:27Z</time>
      </trkpt>
      <trkpt lat="52.418802967295051" lon="7.922096019610763">
        <ele>80.5703125</ele>
        <time>2025-10-08T09:55:31Z</time>
      </trkpt>
      <trkpt lat="52.418604986742139" lon="7.921797037124634">
        <ele>80.9921875</ele>
        <time>2025-10-08T09:55:35Z</time>
      </trkpt>
      <trkpt lat="52.418431984260678" lon="7.921567959710956">
        <ele>81.33984375</ele>
        <time>2025-10-08T09:55:39Z</time>
      </trkpt>
      <trkpt lat="52.418268034234643" lon="7.921314993873239">
        <ele>81.62890625</ele>
        <time>2025-10-08T09:55:46Z</time>
      </trkpt>
      <trkpt lat="52.418120009824634" lon="7.921096980571747">
        <ele>81.8984375</ele>
        <time>2025-10-08T09:55:52Z</time>
      </trkpt>
      <trkpt lat="52.417970979586244" lon="7.920856000855565">
        <ele>81.5546875</ele>
        <time>2025-10-08T09:55:58Z</time>
      </trkpt>
      <trkpt lat="52.41778900846839" lon="7.920604962855578">
        <ele>81.34375</ele>
        <time>2025-10-08T09:56:02Z</time>
      </trkpt>
      <trkpt lat="52.417593039572239" lon="7.920335987582803">
        <ele>81.8515625</ele>
        <time>2025-10-08T09:56:06Z</time>
      </trkpt>
      <trkpt lat="52.417409978806973" lon="7.920043962076306">
        <ele>82.9140625</ele>
        <time>2025-10-08T09:56:10Z</time>
      </trkpt>
      <trkpt lat="52.417194982990623" lon="7.919738022610545">
        <ele>83.85546875</ele>
        <time>2025-10-08T09:56:14Z</time>
      </trkpt>
      <trkpt lat="52.416986022144556" lon="7.919449014589191">
        <ele>83.0859375</ele>
        <time>2025-10-08T09:56:18Z</time>
      </trkpt>
      <trkpt lat="52.416784018278122" lon="7.919154977425933">
        <ele>81.05078125</ele>
        <time>2025-10-08T09:56:22Z</time>
      </trkpt>
      <trkpt lat="52.416568016633391" lon="7.918817019090056">
        <ele>77.83984375</ele>
        <time>2025-10-08T09:56:26Z</time>
      </trkpt>
      <trkpt lat="52.416352014988661" lon="7.918475037440658">
        <ele>74.58984375</ele>
        <time>2025-10-08T09:56:30Z</time>
      </trkpt>
      <trkpt lat="52.416144981980324" lon="7.918164990842342">
        <ele>71.9765625</ele>
        <time>2025-10-08T09:56:34Z</time>
      </trkpt>
      <trkpt lat="52.415918000042439" lon="7.917801970615983">
        <ele>69.43359375</ele>
        <time>2025-10-08T09:56:38Z</time>
      </trkpt>
      <trkpt lat="52.415691018104553" lon="7.917467029765248">
        <ele>68.09375</ele>
        <time>2025-10-08T09:56:42Z</time>
      </trkpt>
      <trkpt lat="52.415482979267836" lon="7.917199982330203">
        <ele>67.25</ele>
        <time>2025-10-08T09:56:46Z</time>
      </trkpt>
      <trkpt lat="52.415214003995061" lon="7.917208028957248">
        <ele>66.65234375</ele>
        <time>2025-10-08T09:56:50Z</time>
      </trkpt>
      <trkpt lat="52.414941005408764" lon="7.917216997593641">
        <ele>66.03125</ele>
        <time>2025-10-08T09:56:54Z</time>
      </trkpt>
      <trkpt lat="52.414680998772383" lon="7.917177015915513">
        <ele>65.4453125</ele>
        <time>2025-10-08T09:56:58Z</time>
      </trkpt>
      <trkpt lat="52.414522999897599" lon="7.917446997016668">
        <ele>64.70703125</ele>
        <time>2025-10-08T09:57:02Z</time>
      </trkpt>
      <trkpt lat="52.414381010457873" lon="7.917797025293112">
        <ele>64.18359375</ele>
        <time>2025-10-08T09:57:06Z</time>
      </trkpt>
      <trkpt lat="52.414247989654541" lon="7.918159039691091">
        <ele>63.75</ele>
        <time>2025-10-08T09:57:10Z</time>
      </trkpt>
      <trkpt lat="52.414093008264899" lon="7.918507978320122">
        <ele>62.9375</ele>
        <time>2025-10-08T09:57:14Z</time>
      </trkpt>
      <trkpt lat="52.413907013833523" lon="7.918792041018605">
        <ele>62.71875</ele>
        <time>2025-10-08T09:57:18Z</time>
      </trkpt>
      <trkpt lat="52.41375396028161" lon="7.919120024889708">
        <ele>63.12109375</ele>
        <time>2025-10-08T09:57:22Z</time>
      </trkpt>
      <trkpt lat="52.413710039108992" lon="7.919522020965815">
        <ele>63.5</ele>
        <time>2025-10-08T09:57:26Z</time>
      </trkpt>
      <trkpt lat="52.413734011352062" lon="7.919968022033572">
        <ele>63.45703125</ele>
        <time>2025-10-08T09:57:30Z</time>
      </trkpt>
      <trkpt lat="52.413799976930022" lon="7.92037202976644">
        <ele>63.4375</ele>
        <time>2025-10-08T09:57:34Z</time>
      </trkpt>
      <trkpt lat="52.413841970264912" lon="7.920773020014167">
        <ele>63.12890625</ele>
        <time>2025-10-08T09:57:38Z</time>
      </trkpt>
      <trkpt lat="52.41383995860815" lon="7.92118800804019">
        <ele>62.859375</ele>
        <time>2025-10-08T09:57:42Z</time>
      </trkpt>
      <trkpt lat="52.413822021335363" lon="7.921585980802774">
        <ele>62.81640625</ele>
        <time>2025-10-08T09:57:46Z</time>
      </trkpt>
      <trkpt lat="52.413763012737036" lon="7.921984037384391">
        <ele>62.73046875</ele>
        <time>2025-10-08T09:57:50Z</time>
      </trkpt>
      <trkpt lat="52.413696963340044" lon="7.922358037903905">
        <ele>62.81640625</ele>
        <time>2025-10-08T09:57:54Z</time>
      </trkpt>
      <trkpt lat="52.413609959185123" lon="7.922709994018078">
        <ele>63.07421875</ele>
        <time>2025-10-08T09:57:58Z</time>
      </trkpt>
      <trkpt lat="52.413476016372442" lon="7.922985004261136">
        <ele>63.55859375</ele>
        <time>2025-10-08T09:58:02Z</time>
      </trkpt>
      <trkpt lat="52.413324974477291" lon="7.923261020332575">
        <ele>63.92578125</ele>
        <time>2025-10-08T09:58:06Z</time>
      </trkpt>
      <trkpt lat="52.413166975602508" lon="7.923533013090491">
        <ele>64.1796875</ele>
        <time>2025-10-08T09:58:10Z</time>
      </trkpt>
      <trkpt lat="52.41301903501153" lon="7.92378899641335">
        <ele>64.79296875</ele>
        <time>2025-10-08T09:58:14Z</time>
      </trkpt>
      <trkpt lat="52.412873022258282" lon="7.924027964472771">
        <ele>65.71484375</ele>
        <time>2025-10-08T09:58:18Z</time>
      </trkpt>
      <trkpt lat="52.412729021161795" lon="7.924274979159236">
        <ele>66.65625</ele>
        <time>2025-10-08T09:58:22Z</time>
      </trkpt>
      <trkpt lat="52.412588959559798" lon="7.924524005502462">
        <ele>67.8125</ele>
        <time>2025-10-08T09:58:26Z</time>
      </trkpt>
      <trkpt lat="52.412463985383511" lon="7.924784012138844">
        <ele>69.046875</ele>
        <time>2025-10-08T09:58:30Z</time>
      </trkpt>
      <trkpt lat="52.412387039512396" lon="7.925108978524804">
        <ele>70.40234375</ele>
        <time>2025-10-08T09:58:35Z</time>
      </trkpt>
      <trkpt lat="52.412313027307391" lon="7.925499994307756">
        <ele>71.59375</ele>
        <time>2025-10-08T09:58:41Z</time>
      </trkpt>
      <trkpt lat="52.412305986508727" lon="7.925922023132443">
        <ele>72.625</ele>
        <time>2025-10-08T09:58:47Z</time>
      </trkpt>
      <trkpt lat="52.412347979843616" lon="7.926337011158466">
        <ele>73.578125</ele>
        <time>2025-10-08T09:58:53Z</time>
      </trkpt>
      <trkpt lat="52.412401959300041" lon="7.926718974485993">
        <ele>74.484375</ele>
        <time>2025-10-08T09:58:59Z</time>
      </trkpt>
      <trkpt lat="52.412473959848285" lon="7.927110996097326">
        <ele>75.55859375</ele>
        <time>2025-10-08T09:59:05Z</time>
      </trkpt>
      <trkpt lat="52.412544032558799" lon="7.927497988566756">
        <ele>76.80859375</ele>
        <time>2025-10-08T09:59:11Z</time>
      </trkpt>
      <trkpt lat="52.412625001743436" lon="7.927886992692947">
        <ele>78.1171875</ele>
        <time>2025-10-08T09:59:17Z</time>
      </trkpt>
      <trkpt lat="52.412727009505033" lon="7.928198967128992">
        <ele>79.2421875</ele>
        <time>2025-10-08T09:59:22Z</time>
      </trkpt>
      <trkpt lat="52.412817031145096" lon="7.92849300429225">
        <ele>80.375</ele>
        <time>2025-10-08T09:59:29Z</time>
      </trkpt>
      <trkpt lat="52.412970000877976" lon="7.92877396568656">
        <ele>80.734375</ele>
        <time>2025-10-08T09:59:36Z</time>
      </trkpt>
      <trkpt lat="52.413039989769459" lon="7.929145032539964">
        <ele>80.91796875</ele>
        <time>2025-10-08T09:59:42Z</time>
      </trkpt>
      <trkpt lat="52.413111990317702" lon="7.92952599003911">
        <ele>80.97265625</ele>
        <time>2025-10-08T09:59:48Z</time>
      </trkpt>
      <trkpt lat="52.413178039714694" lon="7.929857997223735">
        <ele>80.828125</ele>
        <time>2025-10-08T09:59:53Z</time>
      </trkpt>
      <trkpt lat="52.413230007514358" lon="7.930167960003018">
        <ele>80.60546875</ele>
        <time>2025-10-08T09:59:57Z</time>
      </trkpt>
      <trkpt lat="52.413282981142402" lon="7.930528968572617">
        <ele>81.0234375</ele>
        <time>2025-10-08T10:00:02Z</time>
      </trkpt>
      <trkpt lat="52.413275018334389" lon="7.930854018777609">
        <ele>81.52734375</ele>
        <time>2025-10-08T10:00:06Z</time>
      </trkpt>
      <trkpt lat="52.413269989192486" lon="7.931164987385273">
        <ele>81.8515625</ele>
        <time>2025-10-08T10:00:10Z</time>
      </trkpt>
      <trkpt lat="52.413267977535725" lon="7.931495988741517">
        <ele>82.046875</ele>
        <time>2025-10-08T10:00:14Z</time>
      </trkpt>
      <trkpt lat="52.413287004455924" lon="7.931818021461368">
        <ele>82.2578125</ele>
        <time>2025-10-08T10:00:18Z</time>
      </trkpt>
      <trkpt lat="52.41332296282053" lon="7.932153968140483">
        <ele>83.19921875</ele>
        <time>2025-10-08T10:00:22Z</time>
      </trkpt>
      <trkpt lat="52.413350958377123" lon="7.932474995031953">
        <ele>84.1484375</ele>
        <time>2025-10-08T10:00:26Z</time>
      </trkpt>
      <trkpt lat="52.413389012217522" lon="7.932805996388197">
        <ele>85.01171875</ele>
        <time>2025-10-08T10:00:30Z</time>
      </trkpt>
      <trkpt lat="52.413427988067269" lon="7.933167004957795">
        <ele>85.734375</ele>
        <time>2025-10-08T10:00:35Z</time>
      </trkpt>
      <trkpt lat="52.413389012217522" lon="7.93349901214242">
        <ele>86.1640625</ele>
        <time>2025-10-08T10:00:41Z</time>
      </trkpt>
      <trkpt lat="52.413181979209185" lon="7.933633960783482">
        <ele>85.8359375</ele>
        <time>2025-10-08T10:00:47Z</time>
      </trkpt>
      <trkpt lat="52.412954997271299" lon="7.933776034042239">
        <ele>85.77734375</ele>
        <time>2025-10-08T10:00:53Z</time>
      </trkpt>
      <trkpt lat="52.412761962041259" lon="7.933904025703669">
        <ele>85.73828125</ele>
        <time>2025-10-08T10:00:57Z</time>
      </trkpt>
      <trkpt lat="52.412539003416896" lon="7.934044003486633">
        <ele>85.50390625</ele>
        <time>2025-10-08T10:01:01Z</time>
      </trkpt>
      <trkpt lat="52.412292994558811" lon="7.934198984876275">
        <ele>85.03515625</ele>
        <time>2025-10-08T10:01:05Z</time>
      </trkpt>
      <trkpt lat="52.412031982094049" lon="7.934373999014497">
        <ele>84.328125</ele>
        <time>2025-10-08T10:01:09Z</time>
      </trkpt>
      <trkpt lat="52.411773987114429" lon="7.934533003717661">
        <ele>83.58984375</ele>
        <time>2025-10-08T10:01:13Z</time>
      </trkpt>
      <trkpt lat="52.411534013226628" lon="7.93466099537909">
        <ele>82.87890625</ele>
        <time>2025-10-08T10:01:17Z</time>
      </trkpt>
      <trkpt lat="52.411278029903769" lon="7.934735007584095">
        <ele>82.19140625</ele>
        <time>2025-10-08T10:01:21Z</time>
      </trkpt>
      <trkpt lat="52.411010982468724" lon="7.934742970392108">
        <ele>81.55859375</ele>
        <time>2025-10-08T10:01:25Z</time>
      </trkpt>
      <trkpt lat="52.410733960568905" lon="7.934717992320657">
        <ele>80.86328125</ele>
        <time>2025-10-08T10:01:29Z</time>
      </trkpt>
      <trkpt lat="52.410412011668086" lon="7.93468396179378">
        <ele>79.6015625</ele>
        <time>2025-10-08T10:01:33Z</time>
      </trkpt>
      <trkpt lat="52.410059971734881" lon="7.934650015085936">
        <ele>77.71484375</ele>
        <time>2025-10-08T10:01:37Z</time>
      </trkpt>
      <trkpt lat="52.40979602560401" lon="7.934622019529343">
        <ele>76.32421875</ele>
        <time>2025-10-08T10:01:40Z</time>
      </trkpt>
      <trkpt lat="52.409533001482487" lon="7.934599975124002">
        <ele>74.95703125</ele>
        <time>2025-10-08T10:01:43Z</time>
      </trkpt>
      <trkpt lat="52.409233013167977" lon="7.934587989002466">
        <ele>73.41015625</ele>
        <time>2025-10-08T10:01:47Z</time>
      </trkpt>
      <trkpt lat="52.408930007368326" lon="7.934581032022834">
        <ele>71.8515625</ele>
        <time>2025-10-08T10:01:51Z</time>
      </trkpt>
      <trkpt lat="52.408603029325604" lon="7.934556975960732">
        <ele>69.94140625</ele>
        <time>2025-10-08T10:01:55Z</time>
      </trkpt>
      <trkpt lat="52.408283008262515" lon="7.934535015374422">
        <ele>68.046875</ele>
        <time>2025-10-08T10:01:59Z</time>
      </trkpt>
      <trkpt lat="52.407981008291245" lon="7.934469971805811">
        <ele>66.51953125</ele>
        <time>2025-10-08T10:02:03Z</time>
      </trkpt>
      <trkpt lat="52.407681019976735" lon="7.934349020943046">
        <ele>65.5859375</ele>
        <time>2025-10-08T10:02:07Z</time>
      </trkpt>
      <trkpt lat="52.40739201195538" lon="7.93421097099781">
        <ele>64.4453125</ele>
        <time>2025-10-08T10:02:11Z</time>
      </trkpt>
      <trkpt lat="52.407098980620503" lon="7.934083985164762">
        <ele>62.93359375</ele>
        <time>2025-10-08T10:02:15Z</time>
      </trkpt>
      <trkpt lat="52.406788012012839" lon="7.933978037908673">
        <ele>61.1171875</ele>
        <time>2025-10-08T10:02:19Z</time>
      </trkpt>
      <trkpt lat="52.406458016484976" lon="7.933892961591482">
        <ele>59.296875</ele>
        <time>2025-10-08T10:02:23Z</time>
      </trkpt>
      <trkpt lat="52.406160961836576" lon="7.933792965486646">
        <ele>57.65234375</ele>
        <time>2025-10-08T10:02:27Z</time>
      </trkpt>
      <trkpt lat="52.405989971011877" lon="7.933935960754752">
        <ele>56.78125</ele>
        <time>2025-10-08T10:02:32Z</time>
      </trkpt>
      <trkpt lat="52.40601796656847" lon="7.934299986809492">
        <ele>57.13671875</ele>
        <time>2025-10-08T10:02:38Z</time>
      </trkpt>
      <trkpt lat="52.406021989881992" lon="7.934607015922666">
        <ele>56.9921875</ele>
        <time>2025-10-08T10:02:44Z</time>
      </trkpt>
      <trkpt lat="52.406029030680656" lon="7.934940028935671">
        <ele>56.8046875</ele>
        <time>2025-10-08T10:02:51Z</time>
      </trkpt>
      <trkpt lat="52.406055014580488" lon="7.935340013355017">
        <ele>56.66015625</ele>
        <time>2025-10-08T10:02:57Z</time>
      </trkpt>
      <trkpt lat="52.406077980995178" lon="7.935728011652827">
        <ele>56.56640625</ele>
        <time>2025-10-08T10:03:02Z</time>
      </trkpt>
      <trkpt lat="52.406092984601855" lon="7.936053983867168">
        <ele>56.49609375</ele>
        <time>2025-10-08T10:03:06Z</time>
      </trkpt>
      <trkpt lat="52.406113017350435" lon="7.936379034072161">
        <ele>56.46875</ele>
        <time>2025-10-08T10:03:10Z</time>
      </trkpt>
      <trkpt lat="52.406127015128732" lon="7.936709029600024">
        <ele>56.38671875</ele>
        <time>2025-10-08T10:03:14Z</time>
      </trkpt>
      <trkpt lat="52.406145958229899" lon="7.937073977664113">
        <ele>56.47265625</ele>
        <time>2025-10-08T10:03:18Z</time>
      </trkpt>
      <trkpt lat="52.406162973493338" lon="7.937425011768937">
        <ele>56.62890625</ele>
        <time>2025-10-08T10:03:22Z</time>
      </trkpt>
      <trkpt lat="52.406178982928395" lon="7.937784008681774">
        <ele>56.73046875</ele>
        <time>2025-10-08T10:03:26Z</time>
      </trkpt>
      <trkpt lat="52.406185017898679" lon="7.938149962574244">
        <ele>56.73828125</ele>
        <time>2025-10-08T10:03:30Z</time>
      </trkpt>
      <trkpt lat="52.406201027333736" lon="7.938513988628984">
        <ele>56.7734375</ele>
        <time>2025-10-08T10:03:34Z</time>
      </trkpt>
      <trkpt lat="52.406217958778143" lon="7.938888994976878">
        <ele>57.14453125</ele>
        <time>2025-10-08T10:03:38Z</time>
      </trkpt>
      <trkpt lat="52.406234974041581" lon="7.939272969961166">
        <ele>57.54296875</ele>
        <time>2025-10-08T10:03:42Z</time>
      </trkpt>
      <trkpt lat="52.406265987083316" lon="7.939653005450964">
        <ele>58.44921875</ele>
        <time>2025-10-08T10:03:46Z</time>
      </trkpt>
      <trkpt lat="52.406365983188152" lon="7.939995992928743">
        <ele>59.51171875</ele>
        <time>2025-10-08T10:03:50Z</time>
      </trkpt>
      <trkpt lat="52.406473020091653" lon="7.940319031476975">
        <ele>61.11328125</ele>
        <time>2025-10-08T10:03:54Z</time>
      </trkpt>
      <trkpt lat="52.406556000933051" lon="7.940642992034555">
        <ele>63.359375</ele>
        <time>2025-10-08T10:03:58Z</time>
      </trkpt>
      <trkpt lat="52.406657002866268" lon="7.940974999219179">
        <ele>65.55859375</ele>
        <time>2025-10-08T10:04:02Z</time>
      </trkpt>
      <trkpt lat="52.40676898509264" lon="7.941298959776759">
        <ele>66.7734375</ele>
        <time>2025-10-08T10:04:06Z</time>
      </trkpt>
      <trkpt lat="52.406877027824521" lon="7.941608000546694">
        <ele>68.16015625</ele>
        <time>2025-10-08T10:04:10Z</time>
      </trkpt>
      <trkpt lat="52.406977023929358" lon="7.941926009953022">
        <ele>68.9609375</ele>
        <time>2025-10-08T10:04:14Z</time>
      </trkpt>
      <trkpt lat="52.407078025862575" lon="7.942220969125629">
        <ele>68.23046875</ele>
        <time>2025-10-08T10:04:18Z</time>
      </trkpt>
      <trkpt lat="52.407167963683605" lon="7.942507965490222">
        <ele>67.875</ele>
        <time>2025-10-08T10:04:22Z</time>
      </trkpt>
      <trkpt lat="52.407253040000796" lon="7.942785993218422">
        <ele>67.9609375</ele>
        <time>2025-10-08T10:04:26Z</time>
      </trkpt>
      <trkpt lat="52.407353958114982" lon="7.943099979311228">
        <ele>68.3359375</ele>
        <time>2025-10-08T10:04:31Z</time>
      </trkpt>
      <trkpt lat="52.407455965876579" lon="7.94342502951622">
        <ele>68.89453125</ele>
        <time>2025-10-08T10:04:36Z</time>
      </trkpt>
      <trkpt lat="52.40756300278008" lon="7.943844962865114">
        <ele>69</ele>
        <time>2025-10-08T10:04:42Z</time>
      </trkpt>
      <trkpt lat="52.40764900110662" lon="7.944190967828035">
        <ele>68.80859375</ele>
        <time>2025-10-08T10:04:47Z</time>
      </trkpt>
      <trkpt lat="52.407741034403443" lon="7.944529009982944">
        <ele>68.79296875</ele>
        <time>2025-10-08T10:04:52Z</time>
      </trkpt>
      <trkpt lat="52.407877994701266" lon="7.944818018004298">
        <ele>69.26953125</ele>
        <time>2025-10-08T10:04:57Z</time>
      </trkpt>
      <trkpt lat="52.408010009676218" lon="7.945022033527494">
        <ele>69.81640625</ele>
        <time>2025-10-08T10:05:01Z</time>
      </trkpt>
      <trkpt lat="52.408170020207763" lon="7.945267036557198">
        <ele>70.7265625</ele>
        <time>2025-10-08T10:05:06Z</time>
      </trkpt>
      <trkpt lat="52.408327013254166" lon="7.945499969646335">
        <ele>71.8359375</ele>
        <time>2025-10-08T10:05:11Z</time>
      </trkpt>
      <trkpt lat="52.408493980765343" lon="7.945819990709424">
        <ele>72.9453125</ele>
        <time>2025-10-08T10:05:17Z</time>
      </trkpt>
      <trkpt lat="52.408651979640126" lon="7.946144035086036">
        <ele>73.56640625</ele>
        <time>2025-10-08T10:05:23Z</time>
      </trkpt>
      <trkpt lat="52.408780977129936" lon="7.946459027007222">
        <ele>73.78125</ele>
        <time>2025-10-08T10:05:28Z</time>
      </trkpt>
      <trkpt lat="52.40889597684145" lon="7.946764966472983">
        <ele>74.04296875</ele>
        <time>2025-10-08T10:05:33Z</time>
      </trkpt>
      <trkpt lat="52.408910980448127" lon="7.94712102971971">
        <ele>74.765625</ele>
        <time>2025-10-08T10:05:38Z</time>
      </trkpt>
      <trkpt lat="52.408907040953636" lon="7.947420012205839">
        <ele>75.4609375</ele>
        <time>2025-10-08T10:05:42Z</time>
      </trkpt>
      <trkpt lat="52.408888014033437" lon="7.947724023833871">
        <ele>76.09765625</ele>
        <time>2025-10-08T10:05:46Z</time>
      </trkpt>
      <trkpt lat="52.408866975456476" lon="7.948035998269916">
        <ele>76.74609375</ele>
        <time>2025-10-08T10:05:50Z</time>
      </trkpt>
      <trkpt lat="52.408855995163321" lon="7.948406981304288">
        <ele>77.58203125</ele>
        <time>2025-10-08T10:05:55Z</time>
      </trkpt>
      <trkpt lat="52.408904023468494" lon="7.948771007359028">
        <ele>78.34375</ele>
        <time>2025-10-08T10:06:00Z</time>
      </trkpt>
      <trkpt lat="52.408980969339609" lon="7.949105026200414">
        <ele>79</ele>
        <time>2025-10-08T10:06:05Z</time>
      </trkpt>
      <trkpt lat="52.409070990979671" lon="7.949495958164334">
        <ele>79.6953125</ele>
        <time>2025-10-08T10:06:11Z</time>
      </trkpt>
      <trkpt lat="52.409151960164309" lon="7.949812039732933">
        <ele>80.2578125</ele>
        <time>2025-10-08T10:06:17Z</time>
      </trkpt>
      <trkpt lat="52.409294033423066" lon="7.950067017227411">
        <ele>81.2578125</ele>
        <time>2025-10-08T10:06:23Z</time>
      </trkpt>
      <trkpt lat="52.409463012591004" lon="7.950252005830407">
        <ele>82.60546875</ele>
        <time>2025-10-08T10:06:29Z</time>
      </trkpt>
      <trkpt lat="52.409631991758943" lon="7.950460966676474">
        <ele>84.12109375</ele>
        <time>2025-10-08T10:06:36Z</time>
      </trkpt>
      <trkpt lat="52.409802982583642" lon="7.95066699385643">
        <ele>85.39453125</ele>
        <time>2025-10-08T10:06:42Z</time>
      </trkpt>
      <trkpt lat="52.409973973408341" lon="7.950884001329541">
        <ele>86.32421875</ele>
        <time>2025-10-08T10:06:48Z</time>
      </trkpt>
      <trkpt lat="52.410137001425028" lon="7.951089022681117">
        <ele>87.02734375</ele>
        <time>2025-10-08T10:06:54Z</time>
      </trkpt>
      <trkpt lat="52.410304974764585" lon="7.951288009062409">
        <ele>87.6171875</ele>
        <time>2025-10-08T10:07:00Z</time>
      </trkpt>
      <trkpt lat="52.410498009994626" lon="7.951495964080095">
        <ele>88.39453125</ele>
        <time>2025-10-08T10:07:06Z</time>
      </trkpt>
      <trkpt lat="52.410690961405635" lon="7.95167600736022">
        <ele>88.89453125</ele>
        <time>2025-10-08T10:07:12Z</time>
      </trkpt>
      <trkpt lat="52.410875027999282" lon="7.951850015670061">
        <ele>89.41796875</ele>
        <time>2025-10-08T10:07:19Z</time>
      </trkpt>
      <trkpt lat="52.410911992192268" lon="7.95217196457088">
        <ele>90.0078125</ele>
        <time>2025-10-08T10:07:27Z</time>
      </trkpt>
      <trkpt lat="52.410838985815644" lon="7.952617965638638">
        <ele>90.59765625</ele>
        <time>2025-10-08T10:08:11Z</time>
      </trkpt>
      <trkpt lat="52.4107860121876" lon="7.952978974208236">
        <ele>90.62890625</ele>
        <time>2025-10-08T10:08:17Z</time>
      </trkpt>
      <trkpt lat="52.410734966397285" lon="7.953338976949453">
        <ele>90.5703125</ele>
        <time>2025-10-08T10:08:22Z</time>
      </trkpt>
      <trkpt lat="52.410666989162564" lon="7.953741978853941">
        <ele>90.2890625</ele>
        <time>2025-10-08T10:08:28Z</time>
      </trkpt>
      <trkpt lat="52.410650979727507" lon="7.954113967716694">
        <ele>90.15234375</ele>
        <time>2025-10-08T10:08:33Z</time>
      </trkpt>
      <trkpt lat="52.410641005262733" lon="7.954457039013505">
        <ele>90.08984375</ele>
        <time>2025-10-08T10:08:37Z</time>
      </trkpt>
      <trkpt lat="52.410632036626339" lon="7.954801032319665">
        <ele>90.078125</ele>
        <time>2025-10-08T10:08:41Z</time>
      </trkpt>
      <trkpt lat="52.410605968907475" lon="7.955176960676909">
        <ele>90.046875</ele>
        <time>2025-10-08T10:08:45Z</time>
      </trkpt>
      <trkpt lat="52.410573028028011" lon="7.955564958974719">
        <ele>90.0078125</ele>
        <time>2025-10-08T10:08:49Z</time>
      </trkpt>
      <trkpt lat="52.410533968359232" lon="7.955939965322614">
        <ele>89.8828125</ele>
        <time>2025-10-08T10:08:53Z</time>
      </trkpt>
      <trkpt lat="52.410465991124511" lon="7.956300973892212">
        <ele>89.3046875</ele>
        <time>2025-10-08T10:08:57Z</time>
      </trkpt>
      <trkpt lat="52.410336993634701" lon="7.956634992733598">
        <ele>88.609375</ele>
        <time>2025-10-08T10:09:01Z</time>
      </trkpt>
      <trkpt lat="52.410209001973271" lon="7.956992983818054">
        <ele>88.140625</ele>
        <time>2025-10-08T10:09:05Z</time>
      </trkpt>
      <trkpt lat="52.410113029181957" lon="7.957389028742909">
        <ele>87.91015625</ele>
        <time>2025-10-08T10:09:09Z</time>
      </trkpt>
      <trkpt lat="52.41003499366343" lon="7.957808962091804">
        <ele>87.79296875</ele>
        <time>2025-10-08T10:09:13Z</time>
      </trkpt>
      <trkpt lat="52.40994899533689" lon="7.958206012845039">
        <ele>87.6875</ele>
        <time>2025-10-08T10:09:17Z</time>
      </trkpt>
      <trkpt lat="52.40984003059566" lon="7.958599962294102">
        <ele>87.5390625</ele>
        <time>2025-10-08T10:09:21Z</time>
      </trkpt>
      <trkpt lat="52.409727964550257" lon="7.959017967805266">
        <ele>87.6015625</ele>
        <time>2025-10-08T10:09:25Z</time>
      </trkpt>
      <trkpt lat="52.409644983708858" lon="7.959447037428618">
        <ele>87.359375</ele>
        <time>2025-10-08T10:09:29Z</time>
      </trkpt>
      <trkpt lat="52.409589998424053" lon="7.959887003526092">
        <ele>86.96484375</ele>
        <time>2025-10-08T10:09:33Z</time>
      </trkpt>
      <trkpt lat="52.409580023959279" lon="7.960315989330411">
        <ele>86.73046875</ele>
        <time>2025-10-08T10:09:37Z</time>
      </trkpt>
      <trkpt lat="52.409608019515872" lon="7.960709016770124">
        <ele>86.5234375</ele>
        <time>2025-10-08T10:09:41Z</time>
      </trkpt>
      <trkpt lat="52.409652024507523" lon="7.961058039218187">
        <ele>86.4375</ele>
        <time>2025-10-08T10:09:45Z</time>
      </trkpt>
      <trkpt lat="52.409704998135567" lon="7.961416030302644">
        <ele>86.34375</ele>
        <time>2025-10-08T10:09:50Z</time>
      </trkpt>
      <trkpt lat="52.409731987863779" lon="7.961787013337016">
        <ele>86.02734375</ele>
        <time>2025-10-08T10:09:56Z</time>
      </trkpt>
      <trkpt lat="52.409742968156934" lon="7.96216000802815">
        <ele>85.19140625</ele>
        <time>2025-10-08T10:10:00Z</time>
      </trkpt>
      <trkpt lat="52.409718995913863" lon="7.962554041296244">
        <ele>84.203125</ele>
        <time>2025-10-08T10:10:04Z</time>
      </trkpt>
      <trkpt lat="52.40966996178031" lon="7.962951008230448">
        <ele>84.28515625</ele>
        <time>2025-10-08T10:10:08Z</time>
      </trkpt>
      <trkpt lat="52.409634003415704" lon="7.963338000699878">
        <ele>84.70703125</ele>
        <time>2025-10-08T10:10:12Z</time>
      </trkpt>
      <trkpt lat="52.409559991210699" lon="7.96375097706914">
        <ele>84.79296875</ele>
        <time>2025-10-08T10:10:16Z</time>
      </trkpt>
      <trkpt lat="52.409494025632739" lon="7.964154984802008">
        <ele>84.7109375</ele>
        <time>2025-10-08T10:10:20Z</time>
      </trkpt>
      <trkpt lat="52.409424036741257" lon="7.964549018070102">
        <ele>84.34765625</ele>
        <time>2025-10-08T10:10:24Z</time>
      </trkpt>
      <trkpt lat="52.409321023151278" lon="7.964898040518165">
        <ele>83.8046875</ele>
        <time>2025-10-08T10:10:28Z</time>
      </trkpt>
      <trkpt lat="52.409219015389681" lon="7.965266006067395">
        <ele>83.23828125</ele>
        <time>2025-10-08T10:10:32Z</time>
      </trkpt>
      <trkpt lat="52.409100998193026" lon="7.96566397882998">
        <ele>82.62109375</ele>
        <time>2025-10-08T10:10:36Z</time>
      </trkpt>
      <trkpt lat="52.408963032066822" lon="7.966039991006255">
        <ele>81.99609375</ele>
        <time>2025-10-08T10:10:40Z</time>
      </trkpt>
      <trkpt lat="52.408800004050136" lon="7.966428995132446">
        <ele>81.21875</ele>
        <time>2025-10-08T10:10:44Z</time>
      </trkpt>
      <trkpt lat="52.40861602127552" lon="7.966792015358806">
        <ele>80.33984375</ele>
        <time>2025-10-08T10:10:48Z</time>
      </trkpt>
      <trkpt lat="52.408403037115932" lon="7.967128967866302">
        <ele>79.1171875</ele>
        <time>2025-10-08T10:10:52Z</time>
      </trkpt>
      <trkpt lat="52.408191980794072" lon="7.967478996142745">
        <ele>78.2578125</ele>
        <time>2025-10-08T10:10:56Z</time>
      </trkpt>
      <trkpt lat="52.408039011061192" lon="7.967934971675277">
        <ele>76.88671875</ele>
        <time>2025-10-08T10:11:00Z</time>
      </trkpt>
      <trkpt lat="52.407969022169709" lon="7.968440987169743">
        <ele>74.89453125</ele>
        <time>2025-10-08T10:11:04Z</time>
      </trkpt>
      <trkpt lat="52.407889980822802" lon="7.96894901432097">
        <ele>73.88671875</ele>
        <time>2025-10-08T10:11:08Z</time>
      </trkpt>
      <trkpt lat="52.40773499943316" lon="7.969450000673533">
        <ele>72.19921875</ele>
        <time>2025-10-08T10:11:12Z</time>
      </trkpt>
      <trkpt lat="52.407554034143686" lon="7.969926008954644">
        <ele>69.6484375</ele>
        <time>2025-10-08T10:11:16Z</time>
      </trkpt>
      <trkpt lat="52.407475998625159" lon="7.970465971156955">
        <ele>67.46875</ele>
        <time>2025-10-08T10:11:20Z</time>
      </trkpt>
      <trkpt lat="52.40745403803885" lon="7.971011968329549">
        <ele>65.6953125</ele>
        <time>2025-10-08T10:11:24Z</time>
      </trkpt>
      <trkpt lat="52.407442973926663" lon="7.971307011321187">
        <ele>65.35546875</ele>
        <time>2025-10-08T10:11:26Z</time>
      </trkpt>
      <trkpt lat="52.407407015562057" lon="7.971611022949219">
        <ele>65.03125</ele>
        <time>2025-10-08T10:11:28Z</time>
      </trkpt>
      <trkpt lat="52.407312970608473" lon="7.972173029556871">
        <ele>64.07421875</ele>
        <time>2025-10-08T10:11:32Z</time>
      </trkpt>
      <trkpt lat="52.407243987545371" lon="7.972590029239655">
        <ele>63.125</ele>
        <time>2025-10-08T10:11:35Z</time>
      </trkpt>
      <trkpt lat="52.407153965905309" lon="7.973110964521766">
        <ele>62.33984375</ele>
        <time>2025-10-08T10:11:39Z</time>
      </trkpt>
      <trkpt lat="52.407063022255898" lon="7.973627038300037">
        <ele>61.609375</ele>
        <time>2025-10-08T10:11:43Z</time>
      </trkpt>
      <trkpt lat="52.407020023092628" lon="7.97412701882422">
        <ele>60.95703125</ele>
        <time>2025-10-08T10:11:47Z</time>
      </trkpt>
      <trkpt lat="52.407078025862575" lon="7.97460000962019">
        <ele>60.109375</ele>
        <time>2025-10-08T10:11:51Z</time>
      </trkpt>
      <trkpt lat="52.407208029180765" lon="7.975039975717664">
        <ele>59.2109375</ele>
        <time>2025-10-08T10:11:55Z</time>
      </trkpt>
      <trkpt lat="52.407368961721659" lon="7.97537500038743">
        <ele>57.5546875</ele>
        <time>2025-10-08T10:11:59Z</time>
      </trkpt>
      <trkpt lat="52.407442973926663" lon="7.975685968995094">
        <ele>55.8828125</ele>
        <time>2025-10-08T10:12:03Z</time>
      </trkpt>
      <trkpt lat="52.407460995018482" lon="7.976014958694577">
        <ele>54.32421875</ele>
        <time>2025-10-08T10:12:07Z</time>
      </trkpt>
      <trkpt lat="52.407469963654876" lon="7.976417960599065">
        <ele>52.98828125</ele>
        <time>2025-10-08T10:12:11Z</time>
      </trkpt>
      <trkpt lat="52.407482033595443" lon="7.976822974160314">
        <ele>51.671875</ele>
        <time>2025-10-08T10:12:15Z</time>
      </trkpt>
      <trkpt lat="52.407467029988766" lon="7.977257994934917">
        <ele>50.7890625</ele>
        <time>2025-10-08T10:12:19Z</time>
      </trkpt>
      <trkpt lat="52.407459989190102" lon="7.977666025981307">
        <ele>49.96875</ele>
        <time>2025-10-08T10:12:23Z</time>
      </trkpt>
      <trkpt lat="52.407458983361721" lon="7.978085037320852">
        <ele>49.46484375</ele>
        <time>2025-10-08T10:12:27Z</time>
      </trkpt>
      <trkpt lat="52.407474992796779" lon="7.978539001196623">
        <ele>49.08203125</ele>
        <time>2025-10-08T10:12:31Z</time>
      </trkpt>
      <trkpt lat="52.407497959211469" lon="7.978975027799606">
        <ele>49.60546875</ele>
        <time>2025-10-08T10:12:35Z</time>
      </trkpt>
      <trkpt lat="52.407535007223487" lon="7.979365959763527">
        <ele>49.97265625</ele>
        <time>2025-10-08T10:12:41Z</time>
      </trkpt>
      <trkpt lat="52.407573983073235" lon="7.979764016345143">
        <ele>49.77734375</ele>
        <time>2025-10-08T10:12:47Z</time>
      </trkpt>
      <trkpt lat="52.407642966136336" lon="7.980054030194879">
        <ele>49.55859375</ele>
        <time>2025-10-08T10:12:51Z</time>
      </trkpt>
      <trkpt lat="52.407737011089921" lon="7.980333985760808">
        <ele>49.3984375</ele>
        <time>2025-10-08T10:12:55Z</time>
      </trkpt>
      <trkpt lat="52.407862991094589" lon="7.980612013489008">
        <ele>49.24609375</ele>
        <time>2025-10-08T10:13:00Z</time>
      </trkpt>
      <trkpt lat="52.407967010512948" lon="7.980859028175473">
        <ele>49.12109375</ele>
        <time>2025-10-08T10:13:06Z</time>
      </trkpt>
      <trkpt lat="52.407966004684567" lon="7.980844024568796">
        <ele>49.12109375</ele>
        <time>2025-10-08T10:14:45Z</time>
      </trkpt>
      <trkpt lat="52.407938009127975" lon="7.981034964323044">
        <ele>49.15625</ele>
        <time>2025-10-08T10:45:42Z</time>
      </trkpt>
      <trkpt lat="52.408005986362696" lon="7.980794990435243">
        <ele>49.07421875</ele>
        <time>2025-10-08T10:51:39Z</time>
      </trkpt>
      <trkpt lat="52.40801696665585" lon="7.981139989569783">
        <ele>49.0625</ele>
        <time>2025-10-08T11:03:27Z</time>
      </trkpt>
      <trkpt lat="52.408033981919289" lon="7.9815190192312">
        <ele>49.04296875</ele>
        <time>2025-10-08T11:03:33Z</time>
      </trkpt>
      <trkpt lat="52.407985031604767" lon="7.981864018365741">
        <ele>49.02734375</ele>
        <time>2025-10-08T11:03:39Z</time>
      </trkpt>
      <trkpt lat="52.407985031604767" lon="7.982273977249861">
        <ele>48.53515625</ele>
        <time>2025-10-08T11:03:45Z</time>
      </trkpt>
      <trkpt lat="52.408009003847837" lon="7.982587041333318">
        <ele>48.12890625</ele>
        <time>2025-10-08T11:03:49Z</time>
      </trkpt>
      <trkpt lat="52.408048985525966" lon="7.982942014932632">
        <ele>47.6640625</ele>
        <time>2025-10-08T11:03:54Z</time>
      </trkpt>
      <trkpt lat="52.407958041876554" lon="7.983121974393725">
        <ele>47.625</ele>
        <time>2025-10-08T11:04:06Z</time>
      </trkpt>
      <trkpt lat="52.407765006646514" lon="7.983059026300907">
        <ele>48.04296875</ele>
        <time>2025-10-08T11:04:11Z</time>
      </trkpt>
      <trkpt lat="52.407540958374739" lon="7.982967998832464">
        <ele>48.48828125</ele>
        <time>2025-10-08T11:04:16Z</time>
      </trkpt>
      <trkpt lat="52.407359993085265" lon="7.982842018827796">
        <ele>48.8125</ele>
        <time>2025-10-08T11:04:20Z</time>
      </trkpt>
      <trkpt lat="52.407163018360734" lon="7.982681002467871">
        <ele>48.91015625</ele>
        <time>2025-10-08T11:04:24Z</time>
      </trkpt>
      <trkpt lat="52.4069610144943" lon="7.982498025521636">
        <ele>48.78125</ele>
        <time>2025-10-08T11:04:28Z</time>
      </trkpt>
      <trkpt lat="52.406766973435879" lon="7.982380008324981">
        <ele>48.5703125</ele>
        <time>2025-10-08T11:04:32Z</time>
      </trkpt>
      <trkpt lat="52.406548960134387" lon="7.982281018048525">
        <ele>48.25</ele>
        <time>2025-10-08T11:04:37Z</time>
      </trkpt>
      <trkpt lat="52.406505038961768" lon="7.982576983049512">
        <ele>48.1328125</ele>
        <time>2025-10-08T11:04:41Z</time>
      </trkpt>
      <trkpt lat="52.406416023150086" lon="7.982920976355672">
        <ele>47.6796875</ele>
        <time>2025-10-08T11:04:46Z</time>
      </trkpt>
      <trkpt lat="52.406309992074966" lon="7.983263041824102">
        <ele>46.94140625</ele>
        <time>2025-10-08T11:04:51Z</time>
      </trkpt>
      <trkpt lat="52.406130032613873" lon="7.983349040150642">
        <ele>46.2109375</ele>
        <time>2025-10-08T11:04:56Z</time>
      </trkpt>
      <trkpt lat="52.405901039019227" lon="7.983311992138624">
        <ele>45.49609375</ele>
        <time>2025-10-08T11:05:00Z</time>
      </trkpt>
      <trkpt lat="52.405654024332762" lon="7.983282990753651">
        <ele>44.7265625</ele>
        <time>2025-10-08T11:05:04Z</time>
      </trkpt>
      <trkpt lat="52.405404997989535" lon="7.983289025723934">
        <ele>44.19140625</ele>
        <time>2025-10-08T11:05:08Z</time>
      </trkpt>
      <trkpt lat="52.405186984688044" lon="7.983401007950306">
        <ele>43.66796875</ele>
        <time>2025-10-08T11:05:12Z</time>
      </trkpt>
      <trkpt lat="52.404976012185216" lon="7.983533022925258">
        <ele>43.34375</ele>
        <time>2025-10-08T11:05:16Z</time>
      </trkpt>
      <trkpt lat="52.404787000268698" lon="7.983684986829758">
        <ele>43.3046875</ele>
        <time>2025-10-08T11:05:21Z</time>
      </trkpt>
      <trkpt lat="52.404561024159193" lon="7.983700996264815">
        <ele>43.640625</ele>
        <time>2025-10-08T11:05:26Z</time>
      </trkpt>
      <trkpt lat="52.40433999337256" lon="7.983660008758307">
        <ele>44.07421875</ele>
        <time>2025-10-08T11:05:30Z</time>
      </trkpt>
      <trkpt lat="52.404127009212971" lon="7.98356001265347">
        <ele>44.4921875</ele>
        <time>2025-10-08T11:05:34Z</time>
      </trkpt>
      <trkpt lat="52.403929028660059" lon="7.983374018222094">
        <ele>44.83203125</ele>
        <time>2025-10-08T11:05:38Z</time>
      </trkpt>
      <trkpt lat="52.403731970116496" lon="7.983189029619098">
        <ele>44.87109375</ele>
        <time>2025-10-08T11:05:42Z</time>
      </trkpt>
      <trkpt lat="52.403547987341881" lon="7.982981996610761">
        <ele>44.84375</ele>
        <time>2025-10-08T11:05:46Z</time>
      </trkpt>
      <trkpt lat="52.403387976810336" lon="7.982720984145999">
        <ele>44.72265625</ele>
        <time>2025-10-08T11:05:50Z</time>
      </trkpt>
      <trkpt lat="52.403225032612681" lon="7.982455026358366">
        <ele>44.59765625</ele>
        <time>2025-10-08T11:05:54Z</time>
      </trkpt>
      <trkpt lat="52.403059992939234" lon="7.982182027772069">
        <ele>44.44140625</ele>
        <time>2025-10-08T11:05:58Z</time>
      </trkpt>
      <trkpt lat="52.40287902764976" lon="7.981969965621829">
        <ele>43.96875</ele>
        <time>2025-10-08T11:06:02Z</time>
      </trkpt>
      <trkpt lat="52.402652967721224" lon="7.981912968680263">
        <ele>43.62890625</ele>
        <time>2025-10-08T11:06:06Z</time>
      </trkpt>
      <trkpt lat="52.402411988005042" lon="7.981979018077254">
        <ele>43.41796875</ele>
        <time>2025-10-08T11:06:10Z</time>
      </trkpt>
      <trkpt lat="52.402167990803719" lon="7.982029980048537">
        <ele>43.33203125</ele>
        <time>2025-10-08T11:06:14Z</time>
      </trkpt>
      <trkpt lat="52.401940003037453" lon="7.982018999755383">
        <ele>43.5234375</ele>
        <time>2025-10-08T11:06:18Z</time>
      </trkpt>
      <trkpt lat="52.401706986129284" lon="7.981946999207139">
        <ele>43.69921875</ele>
        <time>2025-10-08T11:06:22Z</time>
      </trkpt>
      <trkpt lat="52.401484027504921" lon="7.981867035850883">
        <ele>43.9140625</ele>
        <time>2025-10-08T11:06:26Z</time>
      </trkpt>
      <trkpt lat="52.401260985061526" lon="7.981787994503975">
        <ele>44.34375</ele>
        <time>2025-10-08T11:06:30Z</time>
      </trkpt>
      <trkpt lat="52.401037020608783" lon="7.9816900100559">
        <ele>44.82421875</ele>
        <time>2025-10-08T11:06:34Z</time>
      </trkpt>
      <trkpt lat="52.400801992043853" lon="7.981589008122683">
        <ele>45.26171875</ele>
        <time>2025-10-08T11:06:38Z</time>
      </trkpt>
      <trkpt lat="52.400572998449206" lon="7.981482977047563">
        <ele>45.61328125</ele>
        <time>2025-10-08T11:06:42Z</time>
      </trkpt>
      <trkpt lat="52.400352973490953" lon="7.981383986771107">
        <ele>46.2890625</ele>
        <time>2025-10-08T11:06:46Z</time>
      </trkpt>
      <trkpt lat="52.400125991553068" lon="7.98132698982954">
        <ele>47.0390625</ele>
        <time>2025-10-08T11:06:50Z</time>
      </trkpt>
      <trkpt lat="52.399900015443563" lon="7.981312992051244">
        <ele>47.8359375</ele>
        <time>2025-10-08T11:06:54Z</time>
      </trkpt>
      <trkpt lat="52.399674039334059" lon="7.98134601674974">
        <ele>48.65234375</ele>
        <time>2025-10-08T11:06:58Z</time>
      </trkpt>
      <trkpt lat="52.399436999112368" lon="7.981393961235881">
        <ele>49.4140625</ele>
        <time>2025-10-08T11:07:02Z</time>
      </trkpt>
      <trkpt lat="52.399201970547438" lon="7.981436038389802">
        <ele>50.13671875</ele>
        <time>2025-10-08T11:07:06Z</time>
      </trkpt>
      <trkpt lat="52.398999966681004" lon="7.981537962332368">
        <ele>50.7421875</ele>
        <time>2025-10-08T11:07:10Z</time>
      </trkpt>
      <trkpt lat="52.398783965036273" lon="7.981525976210833">
        <ele>50.94921875</ele>
        <time>2025-10-08T11:07:15Z</time>
      </trkpt>
      <trkpt lat="52.398592019453645" lon="7.981264963746071">
        <ele>50.75390625</ele>
        <time>2025-10-08T11:07:19Z</time>
      </trkpt>
      <trkpt lat="52.398404013365507" lon="7.981071006506681">
        <ele>50.46875</ele>
        <time>2025-10-08T11:07:23Z</time>
      </trkpt>
      <trkpt lat="52.398210978135467" lon="7.980870008468628">
        <ele>50.0234375</ele>
        <time>2025-10-08T11:07:27Z</time>
      </trkpt>
      <trkpt lat="52.398057002574205" lon="7.980631040409207">
        <ele>49.6015625</ele>
        <time>2025-10-08T11:07:31Z</time>
      </trkpt>
      <trkpt lat="52.397908978164196" lon="7.980362987145782">
        <ele>49.4140625</ele>
        <time>2025-10-08T11:07:35Z</time>
      </trkpt>
      <trkpt lat="52.397750979289412" lon="7.980127958580852">
        <ele>49.36328125</ele>
        <time>2025-10-08T11:07:39Z</time>
      </trkpt>
      <trkpt lat="52.397613013163209" lon="7.979883039370179">
        <ele>48.94140625</ele>
        <time>2025-10-08T11:07:43Z</time>
      </trkpt>
      <trkpt lat="52.397480998188257" lon="7.979639964178205">
        <ele>48.515625</ele>
        <time>2025-10-08T11:07:47Z</time>
      </trkpt>
      <trkpt lat="52.397347977384925" lon="7.979380041360855">
        <ele>48.05078125</ele>
        <time>2025-10-08T11:07:51Z</time>
      </trkpt>
      <trkpt lat="52.397219985723495" lon="7.979116011410952">
        <ele>47.85546875</ele>
        <time>2025-10-08T11:07:55Z</time>
      </trkpt>
      <trkpt lat="52.397106997668743" lon="7.978858016431332">
        <ele>48.03515625</ele>
        <time>2025-10-08T11:07:59Z</time>
      </trkpt>
      <trkpt lat="52.397001972422004" lon="7.978600021451712">
        <ele>48.2578125</ele>
        <time>2025-10-08T11:08:03Z</time>
      </trkpt>
      <trkpt lat="52.396913962438703" lon="7.978331968188286">
        <ele>48.5078125</ele>
        <time>2025-10-08T11:08:07Z</time>
      </trkpt>
      <trkpt lat="52.396815977990627" lon="7.978062992915511">
        <ele>48.79296875</ele>
        <time>2025-10-08T11:08:11Z</time>
      </trkpt>
      <trkpt lat="52.396731991320848" lon="7.977773984894157">
        <ele>48.93359375</ele>
        <time>2025-10-08T11:08:15Z</time>
      </trkpt>
      <trkpt lat="52.396653033792973" lon="7.977493023499847">
        <ele>48.890625</ele>
        <time>2025-10-08T11:08:19Z</time>
      </trkpt>
      <trkpt lat="52.396573992446065" lon="7.977219019085169">
        <ele>48.80078125</ele>
        <time>2025-10-08T11:08:23Z</time>
      </trkpt>
      <trkpt lat="52.396487994119525" lon="7.976919030770659">
        <ele>48.765625</ele>
        <time>2025-10-08T11:08:27Z</time>
      </trkpt>
      <trkpt lat="52.396389003843069" lon="7.976644020527601">
        <ele>49.09375</ele>
        <time>2025-10-08T11:08:31Z</time>
      </trkpt>
      <trkpt lat="52.396237039938569" lon="7.976401029154658">
        <ele>49.82421875</ele>
        <time>2025-10-08T11:08:36Z</time>
      </trkpt>
      <trkpt lat="52.395990025252104" lon="7.976519968360663">
        <ele>51.01171875</ele>
        <time>2025-10-08T11:08:42Z</time>
      </trkpt>
      <trkpt lat="52.395801013335586" lon="7.976655000820756">
        <ele>51.91796875</ele>
        <time>2025-10-08T11:08:46Z</time>
      </trkpt>
      <trkpt lat="52.395598003640771" lon="7.976800007745624">
        <ele>52.89453125</ele>
        <time>2025-10-08T11:08:50Z</time>
      </trkpt>
      <trkpt lat="52.395413015037775" lon="7.976862033829093">
        <ele>53.02734375</ele>
        <time>2025-10-08T11:08:54Z</time>
      </trkpt>
      <trkpt lat="52.395312013104558" lon="7.976561039686203">
        <ele>52.90625</ele>
        <time>2025-10-08T11:08:58Z</time>
      </trkpt>
      <trkpt lat="52.395255016162992" lon="7.976177986711264">
        <ele>52.7109375</ele>
        <time>2025-10-08T11:09:02Z</time>
      </trkpt>
      <trkpt lat="52.395196007564664" lon="7.975772973150015">
        <ele>52.0390625</ele>
        <time>2025-10-08T11:09:06Z</time>
      </trkpt>
      <trkpt lat="52.395120989531279" lon="7.975349016487598">
        <ele>51.0234375</ele>
        <time>2025-10-08T11:09:10Z</time>
      </trkpt>
      <trkpt lat="52.395009007304907" lon="7.974886000156403">
        <ele>50.375</ele>
        <time>2025-10-08T11:09:14Z</time>
      </trkpt>
      <trkpt lat="52.394891995936632" lon="7.974435975775123">
        <ele>49.9765625</ele>
        <time>2025-10-08T11:09:18Z</time>
      </trkpt>
      <trkpt lat="52.394782025367022" lon="7.974011013284326">
        <ele>49.9375</ele>
        <time>2025-10-08T11:09:22Z</time>
      </trkpt>
      <trkpt lat="52.39467398263514" lon="7.973621003329754">
        <ele>50.09765625</ele>
        <time>2025-10-08T11:09:26Z</time>
      </trkpt>
      <trkpt lat="52.394573986530304" lon="7.973242979496718">
        <ele>50.203125</ele>
        <time>2025-10-08T11:09:30Z</time>
      </trkpt>
      <trkpt lat="52.394472984597087" lon="7.972870990633965">
        <ele>50.32421875</ele>
        <time>2025-10-08T11:09:34Z</time>
      </trkpt>
      <trkpt lat="52.394381035119295" lon="7.972505958750844">
        <ele>50.3203125</ele>
        <time>2025-10-08T11:09:38Z</time>
      </trkpt>
      <trkpt lat="52.394280033186078" lon="7.972140004858375">
        <ele>50.35546875</ele>
        <time>2025-10-08T11:09:42Z</time>
      </trkpt>
      <trkpt lat="52.394192023202777" lon="7.971784025430679">
        <ele>50.67578125</ele>
        <time>2025-10-08T11:09:46Z</time>
      </trkpt>
      <trkpt lat="52.394105019047856" lon="7.971425028517842">
        <ele>51.52734375</ele>
        <time>2025-10-08T11:09:50Z</time>
      </trkpt>
      <trkpt lat="52.394036035984755" lon="7.971081035211682">
        <ele>52.26953125</ele>
        <time>2025-10-08T11:09:54Z</time>
      </trkpt>
      <trkpt lat="52.39396202377975" lon="7.970735030248761">
        <ele>52.48046875</ele>
        <time>2025-10-08T11:09:58Z</time>
      </trkpt>
      <trkpt lat="52.393882982432842" lon="7.97038902528584">
        <ele>52.3828125</ele>
        <time>2025-10-08T11:10:02Z</time>
      </trkpt>
      <trkpt lat="52.393803019076586" lon="7.970041008666158">
        <ele>52.26171875</ele>
        <time>2025-10-08T11:10:06Z</time>
      </trkpt>
      <trkpt lat="52.393730012699962" lon="7.969684023410082">
        <ele>52.09765625</ele>
        <time>2025-10-08T11:10:10Z</time>
      </trkpt>
      <trkpt lat="52.393656000494957" lon="7.969347992911935">
        <ele>51.9609375</ele>
        <time>2025-10-08T11:10:14Z</time>
      </trkpt>
      <trkpt lat="52.39357796497643" lon="7.969008022919297">
        <ele>51.7578125</ele>
        <time>2025-10-08T11:10:18Z</time>
      </trkpt>
      <trkpt lat="52.393507976084948" lon="7.96867199242115">
        <ele>51.65625</ele>
        <time>2025-10-08T11:10:22Z</time>
      </trkpt>
      <trkpt lat="52.39344603382051" lon="7.968312995508313">
        <ele>51.58984375</ele>
        <time>2025-10-08T11:10:26Z</time>
      </trkpt>
      <trkpt lat="52.393378978595138" lon="7.967952992767096">
        <ele>51.55859375</ele>
        <time>2025-10-08T11:10:30Z</time>
      </trkpt>
      <trkpt lat="52.393313013017178" lon="7.967593995854259">
        <ele>51.48046875</ele>
        <time>2025-10-08T11:10:34Z</time>
      </trkpt>
      <trkpt lat="52.393252998590469" lon="7.967233993113041">
        <ele>51.0625</ele>
        <time>2025-10-08T11:10:38Z</time>
      </trkpt>
      <trkpt lat="52.393199019134045" lon="7.96686602756381">
        <ele>50.53515625</ele>
        <time>2025-10-08T11:10:42Z</time>
      </trkpt>
      <trkpt lat="52.39314503967762" lon="7.966490015387535">
        <ele>51.38671875</ele>
        <time>2025-10-08T11:10:46Z</time>
      </trkpt>
      <trkpt lat="52.393093993887305" lon="7.966129006817937">
        <ele>52.52734375</ele>
        <time>2025-10-08T11:10:50Z</time>
      </trkpt>
      <trkpt lat="52.393040014430881" lon="7.965759029611945">
        <ele>53.08203125</ele>
        <time>2025-10-08T11:10:54Z</time>
      </trkpt>
      <trkpt lat="52.392983017489314" lon="7.965387040749192">
        <ele>53.11328125</ele>
        <time>2025-10-08T11:10:58Z</time>
      </trkpt>
      <trkpt lat="52.392937000840902" lon="7.964999964460731">
        <ele>53.03125</ele>
        <time>2025-10-08T11:11:02Z</time>
      </trkpt>
      <trkpt lat="52.392883021384478" lon="7.964635016396642">
        <ele>53.16015625</ele>
        <time>2025-10-08T11:11:06Z</time>
      </trkpt>
      <trkpt lat="52.392788976430893" lon="7.964279958978295">
        <ele>53.73046875</ele>
        <time>2025-10-08T11:11:10Z</time>
      </trkpt>
      <trkpt lat="52.392700966447592" lon="7.963914005085826">
        <ele>54.1328125</ele>
        <time>2025-10-08T11:11:14Z</time>
      </trkpt>
      <trkpt lat="52.392655033618212" lon="7.963544027879834">
        <ele>54.1328125</ele>
        <time>2025-10-08T11:11:18Z</time>
      </trkpt>
      <trkpt lat="52.392604993656278" lon="7.963159969076514">
        <ele>54.53515625</ele>
        <time>2025-10-08T11:11:22Z</time>
      </trkpt>
      <trkpt lat="52.392554031684995" lon="7.962767025455833">
        <ele>55.02734375</ele>
        <time>2025-10-08T11:11:26Z</time>
      </trkpt>
      <trkpt lat="52.392496028915048" lon="7.962382966652513">
        <ele>55.265625</ele>
        <time>2025-10-08T11:11:30Z</time>
      </trkpt>
      <trkpt lat="52.392443977296352" lon="7.96203101053834">
        <ele>55.34375</ele>
        <time>2025-10-08T11:11:34Z</time>
      </trkpt>
      <trkpt lat="52.392411958426237" lon="7.961705038323999">
        <ele>55.28515625</ele>
        <time>2025-10-08T11:11:38Z</time>
      </trkpt>
      <trkpt lat="52.392355967313051" lon="7.961358027532697">
        <ele>55.453125</ele>
        <time>2025-10-08T11:11:42Z</time>
      </trkpt>
      <trkpt lat="52.392292013391852" lon="7.961046975106001">
        <ele>55.671875</ele>
        <time>2025-10-08T11:11:46Z</time>
      </trkpt>
      <trkpt lat="52.392209032550454" lon="7.960688984021545">
        <ele>56.1875</ele>
        <time>2025-10-08T11:11:52Z</time>
      </trkpt>
      <trkpt lat="52.392111970111728" lon="7.960366029292345">
        <ele>57.2109375</ele>
        <time>2025-10-08T11:12:00Z</time>
      </trkpt>
      <trkpt lat="52.392027983441949" lon="7.960080038756132">
        <ele>57.88671875</ele>
        <time>2025-10-08T11:12:08Z</time>
      </trkpt>
      <trkpt lat="52.391937039792538" lon="7.959747025743127">
        <ele>57.92578125</ele>
        <time>2025-10-08T11:12:14Z</time>
      </trkpt>
      <trkpt lat="52.391869984567165" lon="7.959392974153161">
        <ele>57.3515625</ele>
        <time>2025-10-08T11:12:20Z</time>
      </trkpt>
      <trkpt lat="52.391810975968838" lon="7.959030037745833">
        <ele>56.45703125</ele>
        <time>2025-10-08T11:12:26Z</time>
      </trkpt>
      <trkpt lat="52.391748027876019" lon="7.958673974499106">
        <ele>55.44140625</ele>
        <time>2025-10-08T11:12:31Z</time>
      </trkpt>
      <trkpt lat="52.391681978479028" lon="7.958297962322831">
        <ele>54.52734375</ele>
        <time>2025-10-08T11:12:36Z</time>
      </trkpt>
      <trkpt lat="52.391589023172855" lon="7.957987999543548">
        <ele>54.1875</ele>
        <time>2025-10-08T11:12:40Z</time>
      </trkpt>
      <trkpt lat="52.391454996541142" lon="7.957704020664096">
        <ele>53.97265625</ele>
        <time>2025-10-08T11:12:44Z</time>
      </trkpt>
      <trkpt lat="52.391262967139482" lon="7.957495981827378">
        <ele>54.41796875</ele>
        <time>2025-10-08T11:12:48Z</time>
      </trkpt>
      <trkpt lat="52.391045037657022" lon="7.957362961024046">
        <ele>55.05078125</ele>
        <time>2025-10-08T11:12:52Z</time>
      </trkpt>
      <trkpt lat="52.390821995213628" lon="7.957285009324551">
        <ele>55.7265625</ele>
        <time>2025-10-08T11:12:56Z</time>
      </trkpt>
      <trkpt lat="52.390591995790601" lon="7.957257013767958">
        <ele>56.57421875</ele>
        <time>2025-10-08T11:13:00Z</time>
      </trkpt>
      <trkpt lat="52.390363002195954" lon="7.957290960475802">
        <ele>56.39453125</ele>
        <time>2025-10-08T11:13:04Z</time>
      </trkpt>
      <trkpt lat="52.390121016651392" lon="7.95732700265944">
        <ele>56.046875</ele>
        <time>2025-10-08T11:13:08Z</time>
      </trkpt>
      <trkpt lat="52.389877019450068" lon="7.957358015701175">
        <ele>55.6015625</ele>
        <time>2025-10-08T11:13:12Z</time>
      </trkpt>
      <trkpt lat="52.389648025855422" lon="7.957346029579639">
        <ele>55.3828125</ele>
        <time>2025-10-08T11:13:16Z</time>
      </trkpt>
      <trkpt lat="52.389405034482479" lon="7.957278974354267">
        <ele>55.515625</ele>
        <time>2025-10-08T11:13:20Z</time>
      </trkpt>
      <trkpt lat="52.389173023402691" lon="7.95721803791821">
        <ele>55.6484375</ele>
        <time>2025-10-08T11:13:24Z</time>
      </trkpt>
      <trkpt lat="52.388948975130916" lon="7.957150982692838">
        <ele>55.75390625</ele>
        <time>2025-10-08T11:13:28Z</time>
      </trkpt>
      <trkpt lat="52.388722999021411" lon="7.957076970487833">
        <ele>56.60546875</ele>
        <time>2025-10-08T11:13:32Z</time>
      </trkpt>
      <trkpt lat="52.3885059915483" lon="7.956958031281829">
        <ele>57.37109375</ele>
        <time>2025-10-08T11:13:36Z</time>
      </trkpt>
      <trkpt lat="52.388302981853485" lon="7.956844037398696">
        <ele>58.015625</ele>
        <time>2025-10-08T11:13:40Z</time>
      </trkpt>
      <trkpt lat="52.388088991865516" lon="7.956729037687182">
        <ele>58.53125</ele>
        <time>2025-10-08T11:13:44Z</time>
      </trkpt>
      <trkpt lat="52.387876007705927" lon="7.956583024933934">
        <ele>58.7109375</ele>
        <time>2025-10-08T11:13:48Z</time>
      </trkpt>
      <trkpt lat="52.387661011889577" lon="7.956453021615744">
        <ele>58.81640625</ele>
        <time>2025-10-08T11:13:52Z</time>
      </trkpt>
      <trkpt lat="52.387462025508285" lon="7.95633802190423">
        <ele>58.8046875</ele>
        <time>2025-10-08T11:13:56Z</time>
      </trkpt>
      <trkpt lat="52.387261027470231" lon="7.95623098500073">
        <ele>58.72265625</ele>
        <time>2025-10-08T11:14:00Z</time>
      </trkpt>
      <trkpt lat="52.387061035260558" lon="7.956133000552654">
        <ele>58.24609375</ele>
        <time>2025-10-08T11:14:04Z</time>
      </trkpt>
      <trkpt lat="52.386842016130686" lon="7.956023029983044">
        <ele>57.734375</ele>
        <time>2025-10-08T11:14:08Z</time>
      </trkpt>
      <trkpt lat="52.38661402836442" lon="7.955953041091561">
        <ele>57.57421875</ele>
        <time>2025-10-08T11:14:12Z</time>
      </trkpt>
      <trkpt lat="52.386387968435884" lon="7.955963015556335">
        <ele>57.73828125</ele>
        <time>2025-10-08T11:14:16Z</time>
      </trkpt>
      <trkpt lat="52.386301970109344" lon="7.956269038841128">
        <ele>58.9765625</ele>
        <time>2025-10-08T11:14:20Z</time>
      </trkpt>
      <trkpt lat="52.386282021179795" lon="7.956613032147288">
        <ele>60.6484375</ele>
        <time>2025-10-08T11:14:24Z</time>
      </trkpt>
      <trkpt lat="52.386265005916357" lon="7.95691897161305">
        <ele>62.078125</ele>
        <time>2025-10-08T11:14:28Z</time>
      </trkpt>
      <trkpt lat="52.386271040886641" lon="7.957294983789325">
        <ele>64.0859375</ele>
        <time>2025-10-08T11:14:33Z</time>
      </trkpt>
      <trkpt lat="52.386268023401499" lon="7.957617016509175">
        <ele>65.70703125</ele>
        <time>2025-10-08T11:14:37Z</time>
      </trkpt>
      <trkpt lat="52.386237010359764" lon="7.958025969564915">
        <ele>67.75390625</ele>
        <time>2025-10-08T11:14:42Z</time>
      </trkpt>
      <trkpt lat="52.386213960126042" lon="7.958389995619655">
        <ele>69.57421875</ele>
        <time>2025-10-08T11:14:47Z</time>
      </trkpt>
      <trkpt lat="52.386193005368114" lon="7.958717979490757">
        <ele>70.7890625</ele>
        <time>2025-10-08T11:14:51Z</time>
      </trkpt>
      <trkpt lat="52.386190993711352" lon="7.959050992503762">
        <ele>72.2421875</ele>
        <time>2025-10-08T11:14:55Z</time>
      </trkpt>
      <trkpt lat="52.386190993711352" lon="7.959390040487051">
        <ele>73.48046875</ele>
        <time>2025-10-08T11:14:59Z</time>
      </trkpt>
      <trkpt lat="52.386180013418198" lon="7.95971198938787">
        <ele>73.4765625</ele>
        <time>2025-10-08T11:15:03Z</time>
      </trkpt>
      <trkpt lat="52.386117987334728" lon="7.960002003237605">
        <ele>72.52734375</ele>
        <time>2025-10-08T11:15:10Z</time>
      </trkpt>
      <trkpt lat="52.386108012869954" lon="7.960396958515048">
        <ele>72.6640625</ele>
        <time>2025-10-08T11:15:17Z</time>
      </trkpt>
      <trkpt lat="52.386108012869954" lon="7.960725026205182">
        <ele>72.9140625</ele>
        <time>2025-10-08T11:15:21Z</time>
      </trkpt>
      <trkpt lat="52.386102983728051" lon="7.961055021733046">
        <ele>73.20703125</ele>
        <time>2025-10-08T11:15:25Z</time>
      </trkpt>
      <trkpt lat="52.386090997606516" lon="7.961391974240542">
        <ele>73.875</ele>
        <time>2025-10-08T11:15:29Z</time>
      </trkpt>
      <trkpt lat="52.3860780056566" lon="7.961738985031843">
        <ele>74.51953125</ele>
        <time>2025-10-08T11:15:33Z</time>
      </trkpt>
      <trkpt lat="52.386069959029555" lon="7.962095970287919">
        <ele>75.55859375</ele>
        <time>2025-10-08T11:15:37Z</time>
      </trkpt>
      <trkpt lat="52.386040035635233" lon="7.962453961372376">
        <ele>76.203125</ele>
        <time>2025-10-08T11:15:41Z</time>
      </trkpt>
      <trkpt lat="52.385959988459945" lon="7.962785968557">
        <ele>75.51953125</ele>
        <time>2025-10-08T11:15:45Z</time>
      </trkpt>
      <trkpt lat="52.385814981535077" lon="7.963100960478187">
        <ele>73.36328125</ele>
        <time>2025-10-08T11:15:49Z</time>
      </trkpt>
      <trkpt lat="52.385636027902365" lon="7.963430033996701">
        <ele>70.86328125</ele>
        <time>2025-10-08T11:15:53Z</time>
      </trkpt>
      <trkpt lat="52.385457996279001" lon="7.963780984282494">
        <ele>68.62890625</ele>
        <time>2025-10-08T11:15:57Z</time>
      </trkpt>
      <trkpt lat="52.385262027382851" lon="7.964120032265782">
        <ele>66.453125</ele>
        <time>2025-10-08T11:16:01Z</time>
      </trkpt>
      <trkpt lat="52.385094976052642" lon="7.96452303417027">
        <ele>64.46484375</ele>
        <time>2025-10-08T11:16:05Z</time>
      </trkpt>
      <trkpt lat="52.384906969964504" lon="7.964911032468081">
        <ele>61.94921875</ele>
        <time>2025-10-08T11:16:09Z</time>
      </trkpt>
      <trkpt lat="52.384703038260341" lon="7.965315962210298">
        <ele>59.77734375</ele>
        <time>2025-10-08T11:16:13Z</time>
      </trkpt>
      <trkpt lat="52.384494999423623" lon="7.965721981599927">
        <ele>58.78125</ele>
        <time>2025-10-08T11:16:17Z</time>
      </trkpt>
      <trkpt lat="52.38429500721395" lon="7.966121966019273">
        <ele>58.08203125</ele>
        <time>2025-10-08T11:16:21Z</time>
      </trkpt>
      <trkpt lat="52.384118987247348" lon="7.966506024822593">
        <ele>58.08203125</ele>
        <time>2025-10-08T11:16:25Z</time>
      </trkpt>
      <trkpt lat="52.383971968665719" lon="7.966873990371823">
        <ele>58.28125</ele>
        <time>2025-10-08T11:16:29Z</time>
      </trkpt>
      <trkpt lat="52.383787985891104" lon="7.967226030305028">
        <ele>58.8046875</ele>
        <time>2025-10-08T11:16:33Z</time>
      </trkpt>
      <trkpt lat="52.383565027266741" lon="7.967484025284648">
        <ele>59.90625</ele>
        <time>2025-10-08T11:16:37Z</time>
      </trkpt>
      <trkpt lat="52.383346008136868" lon="7.967679994180799">
        <ele>60.98046875</ele>
        <time>2025-10-08T11:16:41Z</time>
      </trkpt>
      <trkpt lat="52.383152972906828" lon="7.967926003038883">
        <ele>60.8515625</ele>
        <time>2025-10-08T11:16:45Z</time>
      </trkpt>
      <trkpt lat="52.382922973483801" lon="7.967981994152069">
        <ele>60.40234375</ele>
        <time>2025-10-08T11:16:49Z</time>
      </trkpt>
      <trkpt lat="52.38270303234458" lon="7.968148961663246">
        <ele>59.2734375</ele>
        <time>2025-10-08T11:16:53Z</time>
      </trkpt>
      <trkpt lat="52.38244797103107" lon="7.968358006328344">
        <ele>57.90625</ele>
        <time>2025-10-08T11:16:57Z</time>
      </trkpt>
      <trkpt lat="52.382196011021733" lon="7.968546012416482">
        <ele>56.66015625</ele>
        <time>2025-10-08T11:17:01Z</time>
      </trkpt>
      <trkpt lat="52.381938016042113" lon="7.968752039596438">
        <ele>55.29296875</ele>
        <time>2025-10-08T11:17:05Z</time>
      </trkpt>
      <trkpt lat="52.381691001355648" lon="7.968951025977731">
        <ele>54.125</ele>
        <time>2025-10-08T11:17:09Z</time>
      </trkpt>
      <trkpt lat="52.38143602386117" lon="7.969107013195753">
        <ele>53.0703125</ele>
        <time>2025-10-08T11:17:13Z</time>
      </trkpt>
      <trkpt lat="52.38117903470993" lon="7.969217989593744">
        <ele>52.77734375</ele>
        <time>2025-10-08T11:17:17Z</time>
      </trkpt>
      <trkpt lat="52.380925985053182" lon="7.969342041760683">
        <ele>52.42578125</ele>
        <time>2025-10-08T11:17:21Z</time>
      </trkpt>
      <trkpt lat="52.380673019215465" lon="7.969458969309926">
        <ele>52.125</ele>
        <time>2025-10-08T11:17:25Z</time>
      </trkpt>
      <trkpt lat="52.380419969558716" lon="7.969585033133626">
        <ele>52.265625</ele>
        <time>2025-10-08T11:17:29Z</time>
      </trkpt>
      <trkpt lat="52.380157029256225" lon="7.96970003284514">
        <ele>52.546875</ele>
        <time>2025-10-08T11:17:33Z</time>
      </trkpt>
      <trkpt lat="52.379894005134702" lon="7.96983003616333">
        <ele>52.625</ele>
        <time>2025-10-08T11:17:37Z</time>
      </trkpt>
      <trkpt lat="52.379628969356418" lon="7.96995903365314">
        <ele>52.921875</ele>
        <time>2025-10-08T11:17:41Z</time>
      </trkpt>
      <trkpt lat="52.379363011568785" lon="7.970091970637441">
        <ele>53.5546875</ele>
        <time>2025-10-08T11:17:45Z</time>
      </trkpt>
      <trkpt lat="52.379107028245926" lon="7.970208982005715">
        <ele>54.64453125</ele>
        <time>2025-10-08T11:17:49Z</time>
      </trkpt>
      <trkpt lat="52.378855990245938" lon="7.970329010859132">
        <ele>56.26171875</ele>
        <time>2025-10-08T11:17:53Z</time>
      </trkpt>
      <trkpt lat="52.378593971952796" lon="7.970459014177322">
        <ele>57.671875</ele>
        <time>2025-10-08T11:17:57Z</time>
      </trkpt>
      <trkpt lat="52.378345029428601" lon="7.970577031373978">
        <ele>58.98046875</ele>
        <time>2025-10-08T11:18:01Z</time>
      </trkpt>
      <trkpt lat="52.378096003085375" lon="7.970702005550265">
        <ele>60.328125</ele>
        <time>2025-10-08T11:18:05Z</time>
      </trkpt>
      <trkpt lat="52.37784898839891" lon="7.970811976119876">
        <ele>59.8125</ele>
        <time>2025-10-08T11:18:09Z</time>
      </trkpt>
      <trkpt lat="52.377602979540825" lon="7.970937034115195">
        <ele>58.96875</ele>
        <time>2025-10-08T11:18:13Z</time>
      </trkpt>
      <trkpt lat="52.377340961247683" lon="7.971048010513187">
        <ele>57.80859375</ele>
        <time>2025-10-08T11:18:17Z</time>
      </trkpt>
      <trkpt lat="52.377104004845023" lon="7.971176002174616">
        <ele>57.67578125</ele>
        <time>2025-10-08T11:18:21Z</time>
      </trkpt>
      <trkpt lat="52.376864030957222" lon="7.971283039078116">
        <ele>57.9296875</ele>
        <time>2025-10-08T11:18:25Z</time>
      </trkpt>
      <trkpt lat="52.376629002392292" lon="7.971389992162585">
        <ele>58.1171875</ele>
        <time>2025-10-08T11:18:29Z</time>
      </trkpt>
      <trkpt lat="52.37638701684773" lon="7.971505997702479">
        <ele>58.3671875</ele>
        <time>2025-10-08T11:18:33Z</time>
      </trkpt>
      <trkpt lat="52.376143019646406" lon="7.971605993807316">
        <ele>59.26171875</ele>
        <time>2025-10-08T11:18:37Z</time>
      </trkpt>
      <trkpt lat="52.375887036323547" lon="7.971665002405644">
        <ele>60.046875</ele>
        <time>2025-10-08T11:18:41Z</time>
      </trkpt>
      <trkpt lat="52.375625018030405" lon="7.971696015447378">
        <ele>60.76953125</ele>
        <time>2025-10-08T11:18:45Z</time>
      </trkpt>
      <trkpt lat="52.375361993908882" lon="7.97172199934721">
        <ele>60.89453125</ele>
        <time>2025-10-08T11:18:49Z</time>
      </trkpt>
      <trkpt lat="52.375107016414404" lon="7.971731973811984">
        <ele>60.90625</ele>
        <time>2025-10-08T11:18:53Z</time>
      </trkpt>
      <trkpt lat="52.374852038919926" lon="7.971739014610648">
        <ele>60.9140625</ele>
        <time>2025-10-08T11:18:57Z</time>
      </trkpt>
      <trkpt lat="52.374599995091558" lon="7.971748989075422">
        <ele>60.78125</ele>
        <time>2025-10-08T11:19:01Z</time>
      </trkpt>
      <trkpt lat="52.374354992061853" lon="7.971760975196958">
        <ele>60.546875</ele>
        <time>2025-10-08T11:19:05Z</time>
      </trkpt>
      <trkpt lat="52.374106971547008" lon="7.971782013773918">
        <ele>60.265625</ele>
        <time>2025-10-08T11:19:09Z</time>
      </trkpt>
      <trkpt lat="52.373849982395768" lon="7.971791988238692">
        <ele>60.0390625</ele>
        <time>2025-10-08T11:19:13Z</time>
      </trkpt>
      <trkpt lat="52.373597016558051" lon="7.971804980188608">
        <ele>60.0078125</ele>
        <time>2025-10-08T11:19:17Z</time>
      </trkpt>
      <trkpt lat="52.373345978558064" lon="7.971825012937188">
        <ele>60.0625</ele>
        <time>2025-10-08T11:19:21Z</time>
      </trkpt>
      <trkpt lat="52.373100975528359" lon="7.971838004887104">
        <ele>60.13671875</ele>
        <time>2025-10-08T11:19:25Z</time>
      </trkpt>
      <trkpt lat="52.372863013297319" lon="7.971866000443697">
        <ele>60.58203125</ele>
        <time>2025-10-08T11:19:29Z</time>
      </trkpt>
      <trkpt lat="52.372622033581138" lon="7.971878992393613">
        <ele>60.98828125</ele>
        <time>2025-10-08T11:19:33Z</time>
      </trkpt>
      <trkpt lat="52.372379964217544" lon="7.971899025142193">
        <ele>61.46484375</ele>
        <time>2025-10-08T11:19:37Z</time>
      </trkpt>
      <trkpt lat="52.372134039178491" lon="7.97189399600029">
        <ele>61.41796875</ele>
        <time>2025-10-08T11:19:41Z</time>
      </trkpt>
      <trkpt lat="52.371903033927083" lon="7.971929032355547">
        <ele>61.25390625</ele>
        <time>2025-10-08T11:19:45Z</time>
      </trkpt>
      <trkpt lat="52.37165903672576" lon="7.971942024305463">
        <ele>60.89453125</ele>
        <time>2025-10-08T11:19:49Z</time>
      </trkpt>
      <trkpt lat="52.371412022039294" lon="7.97195702791214">
        <ele>60.52734375</ele>
        <time>2025-10-08T11:19:53Z</time>
      </trkpt>
      <trkpt lat="52.371169030666351" lon="7.971976976841688">
        <ele>60.48046875</ele>
        <time>2025-10-08T11:19:57Z</time>
      </trkpt>
      <trkpt lat="52.370920004323125" lon="7.971988040953875">
        <ele>60.3828125</ele>
        <time>2025-10-08T11:20:01Z</time>
      </trkpt>
      <trkpt lat="52.370676007121801" lon="7.972010001540184">
        <ele>60.2890625</ele>
        <time>2025-10-08T11:20:05Z</time>
      </trkpt>
      <trkpt lat="52.37043502740562" lon="7.972013019025326">
        <ele>60.38671875</ele>
        <time>2025-10-08T11:20:09Z</time>
      </trkpt>
      <trkpt lat="52.370207039639354" lon="7.972031962126494">
        <ele>60.60546875</ele>
        <time>2025-10-08T11:20:13Z</time>
      </trkpt>
      <trkpt lat="52.369973016902804" lon="7.97204302623868">
        <ele>60.8125</ele>
        <time>2025-10-08T11:20:17Z</time>
      </trkpt>
      <trkpt lat="52.369737988337874" lon="7.972048977389932">
        <ele>60.9921875</ele>
        <time>2025-10-08T11:20:21Z</time>
      </trkpt>
      <trkpt lat="52.369504971429706" lon="7.972066998481751">
        <ele>60.90625</ele>
        <time>2025-10-08T11:20:25Z</time>
      </trkpt>
      <trkpt lat="52.369261980056763" lon="7.972090970724821">
        <ele>60.796875</ele>
        <time>2025-10-08T11:20:29Z</time>
      </trkpt>
      <trkpt lat="52.369014965370297" lon="7.972079990431666">
        <ele>60.7109375</ele>
        <time>2025-10-08T11:20:33Z</time>
      </trkpt>
      <trkpt lat="52.368772979825735" lon="7.972106980159879">
        <ele>60.4609375</ele>
        <time>2025-10-08T11:20:37Z</time>
      </trkpt>
      <trkpt lat="52.368532000109553" lon="7.972125001251698">
        <ele>60.1484375</ele>
        <time>2025-10-08T11:20:41Z</time>
      </trkpt>
      <trkpt lat="52.368285991251469" lon="7.972141010686755">
        <ele>59.8359375</ele>
        <time>2025-10-08T11:20:45Z</time>
      </trkpt>
      <trkpt lat="52.368054986000061" lon="7.972157020121813">
        <ele>59.4921875</ele>
        <time>2025-10-08T11:20:49Z</time>
      </trkpt>
      <trkpt lat="52.367811994627118" lon="7.972181998193264">
        <ele>58.87890625</ele>
        <time>2025-10-08T11:20:53Z</time>
      </trkpt>
      <trkpt lat="52.367571014910936" lon="7.972198007628322">
        <ele>58.28125</ele>
        <time>2025-10-08T11:20:57Z</time>
      </trkpt>
      <trkpt lat="52.367325006052852" lon="7.972214017063379">
        <ele>57.671875</ele>
        <time>2025-10-08T11:21:01Z</time>
      </trkpt>
      <trkpt lat="52.367074973881245" lon="7.972232960164547">
        <ele>57.05078125</ele>
        <time>2025-10-08T11:21:05Z</time>
      </trkpt>
      <trkpt lat="52.366836005821824" lon="7.972252992913127">
        <ele>56.484375</ele>
        <time>2025-10-08T11:21:09Z</time>
      </trkpt>
      <trkpt lat="52.366585973650217" lon="7.972253998741508">
        <ele>55.90234375</ele>
        <time>2025-10-08T11:21:13Z</time>
      </trkpt>
      <trkpt lat="52.366348011419177" lon="7.972190966829658">
        <ele>55.36328125</ele>
        <time>2025-10-08T11:21:17Z</time>
      </trkpt>
      <trkpt lat="52.366112982854247" lon="7.972127012908459">
        <ele>55.00390625</ele>
        <time>2025-10-08T11:21:21Z</time>
      </trkpt>
      <trkpt lat="52.365870997309685" lon="7.972064986824989">
        <ele>54.640625</ele>
        <time>2025-10-08T11:21:25Z</time>
      </trkpt>
      <trkpt lat="52.365623982623219" lon="7.972007989883423">
        <ele>54.2734375</ele>
        <time>2025-10-08T11:21:29Z</time>
      </trkpt>
      <trkpt lat="52.365380991250277" lon="7.971940012648702">
        <ele>54.1171875</ele>
        <time>2025-10-08T11:21:33Z</time>
      </trkpt>
      <trkpt lat="52.365137999877334" lon="7.971848985180259">
        <ele>54.01953125</ele>
        <time>2025-10-08T11:21:37Z</time>
      </trkpt>
      <trkpt lat="52.364889979362488" lon="7.971743959933519">
        <ele>54.06640625</ele>
        <time>2025-10-08T11:21:41Z</time>
      </trkpt>
      <trkpt lat="52.364651011303067" lon="7.971628960222006">
        <ele>54.39453125</ele>
        <time>2025-10-08T11:21:45Z</time>
      </trkpt>
      <trkpt lat="52.364407014101744" lon="7.971517983824015">
        <ele>54.75390625</ele>
        <time>2025-10-08T11:21:49Z</time>
      </trkpt>
      <trkpt lat="52.36416301690042" lon="7.971392003819346">
        <ele>54.859375</ele>
        <time>2025-10-08T11:21:53Z</time>
      </trkpt>
      <trkpt lat="52.36392798833549" lon="7.971284966915846">
        <ele>54.7421875</ele>
        <time>2025-10-08T11:21:57Z</time>
      </trkpt>
      <trkpt lat="52.363693965598941" lon="7.971179019659758">
        <ele>54.62109375</ele>
        <time>2025-10-08T11:22:01Z</time>
      </trkpt>
      <trkpt lat="52.363456003367901" lon="7.971084974706173">
        <ele>54.40625</ele>
        <time>2025-10-08T11:22:05Z</time>
      </trkpt>
      <trkpt lat="52.363220974802971" lon="7.970975004136562">
        <ele>53.99609375</ele>
        <time>2025-10-08T11:22:09Z</time>
      </trkpt>
      <trkpt lat="52.362987035885453" lon="7.970853969454765">
        <ele>53.76171875</ele>
        <time>2025-10-08T11:22:13Z</time>
      </trkpt>
      <trkpt lat="52.362755024805665" lon="7.970751039683819">
        <ele>53.54296875</ele>
        <time>2025-10-08T11:22:17Z</time>
      </trkpt>
      <trkpt lat="52.362522007897496" lon="7.970636039972305">
        <ele>53.46484375</ele>
        <time>2025-10-08T11:22:21Z</time>
      </trkpt>
      <trkpt lat="52.362289996817708" lon="7.970526991412044">
        <ele>53.5390625</ele>
        <time>2025-10-08T11:22:25Z</time>
      </trkpt>
      <trkpt lat="52.362063014879823" lon="7.970418026670814">
        <ele>53.4296875</ele>
        <time>2025-10-08T11:22:29Z</time>
      </trkpt>
      <trkpt lat="52.361833015456796" lon="7.970305038616061">
        <ele>53.07421875</ele>
        <time>2025-10-08T11:22:33Z</time>
      </trkpt>
      <trkpt lat="52.361596981063485" lon="7.970204036682844">
        <ele>52.50390625</ele>
        <time>2025-10-08T11:22:37Z</time>
      </trkpt>
      <trkpt lat="52.361368993297219" lon="7.970104962587357">
        <ele>52.19140625</ele>
        <time>2025-10-08T11:22:41Z</time>
      </trkpt>
      <trkpt lat="52.361151985824108" lon="7.970005972310901">
        <ele>52.77734375</ele>
        <time>2025-10-08T11:22:45Z</time>
      </trkpt>
      <trkpt lat="52.360925003886223" lon="7.969905976206064">
        <ele>53.32421875</ele>
        <time>2025-10-08T11:22:49Z</time>
      </trkpt>
      <trkpt lat="52.360697016119957" lon="7.969797011464834">
        <ele>53.80859375</ele>
        <time>2025-10-08T11:22:53Z</time>
      </trkpt>
      <trkpt lat="52.360459975898266" lon="7.969671031460166">
        <ele>54.234375</ele>
        <time>2025-10-08T11:22:57Z</time>
      </trkpt>
      <trkpt lat="52.360230982303619" lon="7.96957204118371">
        <ele>54.578125</ele>
        <time>2025-10-08T11:23:01Z</time>
      </trkpt>
      <trkpt lat="52.360005006194115" lon="7.969468021765351">
        <ele>54.84375</ele>
        <time>2025-10-08T11:23:05Z</time>
      </trkpt>
      <trkpt lat="52.359791016206145" lon="7.969369031488895">
        <ele>55.03515625</ele>
        <time>2025-10-08T11:23:09Z</time>
      </trkpt>
      <trkpt lat="52.359579037874937" lon="7.96927297487855">
        <ele>55.43359375</ele>
        <time>2025-10-08T11:23:13Z</time>
      </trkpt>
      <trkpt lat="52.359366975724697" lon="7.969179013743997">
        <ele>55.87890625</ele>
        <time>2025-10-08T11:23:17Z</time>
      </trkpt>
      <trkpt lat="52.359163966029882" lon="7.969064014032483">
        <ele>56.2265625</ele>
        <time>2025-10-08T11:23:21Z</time>
      </trkpt>
      <trkpt lat="52.358946036547422" lon="7.968964017927647">
        <ele>56.5546875</ele>
        <time>2025-10-08T11:23:25Z</time>
      </trkpt>
      <trkpt lat="52.358725005760789" lon="7.968867039307952">
        <ele>56.71484375</ele>
        <time>2025-10-08T11:23:29Z</time>
      </trkpt>
      <trkpt lat="52.358504980802536" lon="7.968767965212464">
        <ele>56.859375</ele>
        <time>2025-10-08T11:23:33Z</time>
      </trkpt>
      <trkpt lat="52.358300965279341" lon="7.968668974936009">
        <ele>56.984375</ele>
        <time>2025-10-08T11:23:37Z</time>
      </trkpt>
      <trkpt lat="52.358095021918416" lon="7.968561016023159">
        <ele>57.09765625</ele>
        <time>2025-10-08T11:23:41Z</time>
      </trkpt>
      <trkpt lat="52.357905004173517" lon="7.968464037403464">
        <ele>57.00390625</ele>
        <time>2025-10-08T11:23:45Z</time>
      </trkpt>
      <trkpt lat="52.357721021398902" lon="7.968365969136357">
        <ele>57.0625</ele>
        <time>2025-10-08T11:24:01Z</time>
      </trkpt>
      <trkpt lat="52.357483981177211" lon="7.968281982466579">
        <ele>57.17578125</ele>
        <time>2025-10-08T11:24:07Z</time>
      </trkpt>
      <trkpt lat="52.357272002846003" lon="7.968188021332026">
        <ele>57.34765625</ele>
        <time>2025-10-08T11:24:11Z</time>
      </trkpt>
      <trkpt lat="52.357050972059369" lon="7.968087019398809">
        <ele>57.08984375</ele>
        <time>2025-10-08T11:24:15Z</time>
      </trkpt>
      <trkpt lat="52.356829019263387" lon="7.967985011637211">
        <ele>56.7578125</ele>
        <time>2025-10-08T11:24:19Z</time>
      </trkpt>
      <trkpt lat="52.356598014011979" lon="7.967844028025866">
        <ele>56.34765625</ele>
        <time>2025-10-08T11:24:23Z</time>
      </trkpt>
      <trkpt lat="52.356349993497133" lon="7.967740008607507">
        <ele>55.93359375</ele>
        <time>2025-10-08T11:24:27Z</time>
      </trkpt>
      <trkpt lat="52.356119994074106" lon="7.967631965875626">
        <ele>55.66015625</ele>
        <time>2025-10-08T11:24:31Z</time>
      </trkpt>
      <trkpt lat="52.355883959680796" lon="7.967509003356099">
        <ele>55.6171875</ele>
        <time>2025-10-08T11:24:35Z</time>
      </trkpt>
      <trkpt lat="52.355652032420039" lon="7.967398026958108">
        <ele>55.39453125</ele>
        <time>2025-10-08T11:24:39Z</time>
      </trkpt>
      <trkpt lat="52.355415998026729" lon="7.967311022803187">
        <ele>55.62109375</ele>
        <time>2025-10-08T11:24:43Z</time>
      </trkpt>
      <trkpt lat="52.355179963633418" lon="7.96718998812139">
        <ele>56.05078125</ele>
        <time>2025-10-08T11:24:47Z</time>
      </trkpt>
      <trkpt lat="52.35494895838201" lon="7.967068031430244">
        <ele>56.4765625</ele>
        <time>2025-10-08T11:24:51Z</time>
      </trkpt>
      <trkpt lat="52.354698004201055" lon="7.966950014233589">
        <ele>56.90625</ele>
        <time>2025-10-08T11:24:55Z</time>
      </trkpt>
      <trkpt lat="52.354450989514589" lon="7.966839959844947">
        <ele>57.3359375</ele>
        <time>2025-10-08T11:24:59Z</time>
      </trkpt>
      <trkpt lat="52.354205986484885" lon="7.966705011203885">
        <ele>57.8046875</ele>
        <time>2025-10-08T11:25:03Z</time>
      </trkpt>
      <trkpt lat="52.353954026475549" lon="7.966583976522088">
        <ele>58.25</ele>
        <time>2025-10-08T11:25:07Z</time>
      </trkpt>
      <trkpt lat="52.353699970990419" lon="7.966460008174181">
        <ele>58.140625</ele>
        <time>2025-10-08T11:25:11Z</time>
      </trkpt>
      <trkpt lat="52.353434013202786" lon="7.966365963220596">
        <ele>57.93359375</ele>
        <time>2025-10-08T11:25:15Z</time>
      </trkpt>
      <trkpt lat="52.353167971596122" lon="7.966413991525769">
        <ele>57.55859375</ele>
        <time>2025-10-08T11:25:19Z</time>
      </trkpt>
      <trkpt lat="52.352898996323347" lon="7.966495966538787">
        <ele>57.13671875</ele>
        <time>2025-10-08T11:25:23Z</time>
      </trkpt>
      <trkpt lat="52.35264603048563" lon="7.966554975137115">
        <ele>56.76171875</ele>
        <time>2025-10-08T11:25:27Z</time>
      </trkpt>
      <trkpt lat="52.352398009970784" lon="7.966563021764159">
        <ele>56.453125</ele>
        <time>2025-10-08T11:25:31Z</time>
      </trkpt>
      <trkpt lat="52.352157030254602" lon="7.966399993747473">
        <ele>56.69921875</ele>
        <time>2025-10-08T11:25:35Z</time>
      </trkpt>
      <trkpt lat="52.351942034438252" lon="7.96617996878922">
        <ele>57.04296875</ele>
        <time>2025-10-08T11:25:39Z</time>
      </trkpt>
      <trkpt lat="52.351729972288013" lon="7.965954998508096">
        <ele>56.98046875</ele>
        <time>2025-10-08T11:25:43Z</time>
      </trkpt>
      <trkpt lat="52.3515510186553" lon="7.965738996863365">
        <ele>56.75</ele>
        <time>2025-10-08T11:25:47Z</time>
      </trkpt>
      <trkpt lat="52.351370975375175" lon="7.965528024360538">
        <ele>56.45703125</ele>
        <time>2025-10-08T11:25:51Z</time>
      </trkpt>
      <trkpt lat="52.351183975115418" lon="7.965262988582254">
        <ele>56.140625</ele>
        <time>2025-10-08T11:25:55Z</time>
      </trkpt>
      <trkpt lat="52.351007033139467" lon="7.964979009702802">
        <ele>55.796875</ele>
        <time>2025-10-08T11:25:59Z</time>
      </trkpt>
      <trkpt lat="52.350861020386219" lon="7.964749010279775">
        <ele>55.5234375</ele>
        <time>2025-10-08T11:26:03Z</time>
      </trkpt>
      <trkpt lat="52.350706961005926" lon="7.964510964229703">
        <ele>55.23828125</ele>
        <time>2025-10-08T11:26:07Z</time>
      </trkpt>
      <trkpt lat="52.350537981837988" lon="7.964266967028379">
        <ele>55.265625</ele>
        <time>2025-10-08T11:26:11Z</time>
      </trkpt>
      <trkpt lat="52.35039196908474" lon="7.964031016454101">
        <ele>56.1015625</ele>
        <time>2025-10-08T11:26:15Z</time>
      </trkpt>
      <trkpt lat="52.350237993523479" lon="7.963803028687835">
        <ele>56.8359375</ele>
        <time>2025-10-08T11:26:21Z</time>
      </trkpt>
      <trkpt lat="52.35004797577858" lon="7.963662967085838">
        <ele>57.375</ele>
        <time>2025-10-08T11:26:27Z</time>
      </trkpt>
      <trkpt lat="52.349845971912146" lon="7.963571017608047">
        <ele>57.79296875</ele>
        <time>2025-10-08T11:26:31Z</time>
      </trkpt>
      <trkpt lat="52.349658971652389" lon="7.963482001796365">
        <ele>57.73046875</ele>
        <time>2025-10-08T11:26:35Z</time>
      </trkpt>
      <trkpt lat="52.349441964179277" lon="7.963376976549625">
        <ele>57.109375</ele>
        <time>2025-10-08T11:26:40Z</time>
      </trkpt>
      <trkpt lat="52.34923199750483" lon="7.963290978223085">
        <ele>56.69140625</ele>
        <time>2025-10-08T11:26:45Z</time>
      </trkpt>
      <trkpt lat="52.349019013345242" lon="7.963185030966997">
        <ele>56.4453125</ele>
        <time>2025-10-08T11:26:49Z</time>
      </trkpt>
      <trkpt lat="52.348806029185653" lon="7.963065002113581">
        <ele>56.73828125</ele>
        <time>2025-10-08T11:26:53Z</time>
      </trkpt>
      <trkpt lat="52.348575023934245" lon="7.962970035150647">
        <ele>57.31640625</ele>
        <time>2025-10-08T11:26:57Z</time>
      </trkpt>
      <trkpt lat="52.348343012854457" lon="7.962861992418766">
        <ele>57.98828125</ele>
        <time>2025-10-08T11:27:01Z</time>
      </trkpt>
      <trkpt lat="52.348111001774669" lon="7.962812036275864">
        <ele>58.59375</ele>
        <time>2025-10-08T11:27:05Z</time>
      </trkpt>
      <trkpt lat="52.347873039543629" lon="7.96278202906251">
        <ele>57.37890625</ele>
        <time>2025-10-08T11:27:09Z</time>
      </trkpt>
      <trkpt lat="52.347654020413756" lon="7.962774988263845">
        <ele>56.15625</ele>
        <time>2025-10-08T11:27:13Z</time>
      </trkpt>
      <trkpt lat="52.347417986020446" lon="7.962767025455833">
        <ele>54.828125</ele>
        <time>2025-10-08T11:27:17Z</time>
      </trkpt>
      <trkpt lat="52.347179017961025" lon="7.96274003572762">
        <ele>54.09765625</ele>
        <time>2025-10-08T11:27:21Z</time>
      </trkpt>
      <trkpt lat="52.346947006881237" lon="7.962723020464182">
        <ele>54.35546875</ele>
        <time>2025-10-08T11:27:25Z</time>
      </trkpt>
      <trkpt lat="52.346732011064887" lon="7.96269997023046">
        <ele>54.609375</ele>
        <time>2025-10-08T11:27:29Z</time>
      </trkpt>
      <trkpt lat="52.346525983884931" lon="7.962663006037474">
        <ele>54.87890625</ele>
        <time>2025-10-08T11:27:33Z</time>
      </trkpt>
      <trkpt lat="52.346301013603806" lon="7.962680021300912">
        <ele>55.6328125</ele>
        <time>2025-10-08T11:27:37Z</time>
      </trkpt>
      <trkpt lat="52.346061961725354" lon="7.962695024907589">
        <ele>56.78125</ele>
        <time>2025-10-08T11:27:41Z</time>
      </trkpt>
      <trkpt lat="52.34583699144423" lon="7.962644984945655">
        <ele>57.875</ele>
        <time>2025-10-08T11:27:45Z</time>
      </trkpt>
      <trkpt lat="52.345613026991487" lon="7.96258999966085">
        <ele>58.6875</ele>
        <time>2025-10-08T11:27:49Z</time>
      </trkpt>
      <trkpt lat="52.34540599398315" lon="7.962511964142323">
        <ele>59.34765625</ele>
        <time>2025-10-08T11:27:53Z</time>
      </trkpt>
      <trkpt lat="52.34521103091538" lon="7.962372992187738">
        <ele>59.73046875</ele>
        <time>2025-10-08T11:27:57Z</time>
      </trkpt>
      <trkpt lat="52.345014978200197" lon="7.962233014404774">
        <ele>60.19921875</ele>
        <time>2025-10-08T11:28:02Z</time>
      </trkpt>
      <trkpt lat="52.34482697211206" lon="7.962099993601441">
        <ele>60.7265625</ele>
        <time>2025-10-08T11:28:08Z</time>
      </trkpt>
      <trkpt lat="52.344631003215909" lon="7.961939983069897">
        <ele>60.91015625</ele>
        <time>2025-10-08T11:28:17Z</time>
      </trkpt>
      <trkpt lat="52.344446014612913" lon="7.961826995015144">
        <ele>61.2109375</ele>
        <time>2025-10-08T11:28:31Z</time>
      </trkpt>
      <trkpt lat="52.344263959676027" lon="7.961636977270246">
        <ele>61.40625</ele>
        <time>2025-10-08T11:28:40Z</time>
      </trkpt>
      <trkpt lat="52.344108978286386" lon="7.961411001160741">
        <ele>61.421875</ele>
        <time>2025-10-08T11:28:50Z</time>
      </trkpt>
      <trkpt lat="52.343916026875377" lon="7.961224000900984">
        <ele>61.4921875</ele>
        <time>2025-10-08T11:28:55Z</time>
      </trkpt>
      <trkpt lat="52.343731038272381" lon="7.961029037833214">
        <ele>60.35546875</ele>
        <time>2025-10-08T11:28:59Z</time>
      </trkpt>
      <trkpt lat="52.343526016920805" lon="7.960843965411186">
        <ele>59.25390625</ele>
        <time>2025-10-08T11:29:03Z</time>
      </trkpt>
      <trkpt lat="52.343326024711132" lon="7.960665011778474">
        <ele>58.484375</ele>
        <time>2025-10-08T11:29:07Z</time>
      </trkpt>
      <trkpt lat="52.343126032501459" lon="7.960484968498349">
        <ele>58.02734375</ele>
        <time>2025-10-08T11:29:11Z</time>
      </trkpt>
      <trkpt lat="52.342952024191618" lon="7.960322024300695">
        <ele>57.8828125</ele>
        <time>2025-10-08T11:29:15Z</time>
      </trkpt>
      <trkpt lat="52.342771980911493" lon="7.960131000727415">
        <ele>58.08984375</ele>
        <time>2025-10-08T11:29:20Z</time>
      </trkpt>
      <trkpt lat="52.342578023672104" lon="7.959949029609561">
        <ele>58.96484375</ele>
        <time>2025-10-08T11:29:25Z</time>
      </trkpt>
      <trkpt lat="52.342379037290812" lon="7.959745014086366">
        <ele>59.9453125</ele>
        <time>2025-10-08T11:29:30Z</time>
      </trkpt>
      <trkpt lat="52.342172004282475" lon="7.95954099856317">
        <ele>60.5859375</ele>
        <time>2025-10-08T11:29:35Z</time>
      </trkpt>
      <trkpt lat="52.341987015679479" lon="7.959372019395232">
        <ele>60.72265625</ele>
        <time>2025-10-08T11:29:39Z</time>
      </trkpt>
      <trkpt lat="52.341807978227735" lon="7.959203962236643">
        <ele>60.2421875</ele>
        <time>2025-10-08T11:29:43Z</time>
      </trkpt>
      <trkpt lat="52.341617960482836" lon="7.959035988897085">
        <ele>59.3671875</ele>
        <time>2025-10-08T11:29:47Z</time>
      </trkpt>
      <trkpt lat="52.341399025171995" lon="7.958841025829315">
        <ele>58.40625</ele>
        <time>2025-10-08T11:29:51Z</time>
      </trkpt>
      <trkpt lat="52.341169025748968" lon="7.95861697755754">
        <ele>58.10546875</ele>
        <time>2025-10-08T11:29:55Z</time>
      </trkpt>
      <trkpt lat="52.340953024104238" lon="7.958389995619655">
        <ele>57.79296875</ele>
        <time>2025-10-08T11:29:59Z</time>
      </trkpt>
      <trkpt lat="52.340741967782378" lon="7.958191009238362">
        <ele>57.53515625</ele>
        <time>2025-10-08T11:30:03Z</time>
      </trkpt>
      <trkpt lat="52.340540969744325" lon="7.958003003150225">
        <ele>57.7265625</ele>
        <time>2025-10-08T11:30:07Z</time>
      </trkpt>
      <trkpt lat="52.340342989191413" lon="7.957814997062087">
        <ele>58.60546875</ele>
        <time>2025-10-08T11:30:11Z</time>
      </trkpt>
      <trkpt lat="52.340156994760036" lon="7.957640988752246">
        <ele>59.6953125</ele>
        <time>2025-10-08T11:30:15Z</time>
      </trkpt>
      <trkpt lat="52.339988015592098" lon="7.95745600014925">
        <ele>60.43359375</ele>
        <time>2025-10-08T11:30:20Z</time>
      </trkpt>
      <trkpt lat="52.339802021160722" lon="7.95730403624475">
        <ele>61.41796875</ele>
        <time>2025-10-08T11:30:28Z</time>
      </trkpt>
      <trkpt lat="52.339565986767411" lon="7.957300012931228">
        <ele>61.1015625</ele>
        <time>2025-10-08T11:32:12Z</time>
      </trkpt>
      <trkpt lat="52.339370017871261" lon="7.957221977412701">
        <ele>60.7890625</ele>
        <time>2025-10-08T11:32:17Z</time>
      </trkpt>
      <trkpt lat="52.339159967377782" lon="7.957089962437749">
        <ele>60.859375</ele>
        <time>2025-10-08T11:32:21Z</time>
      </trkpt>
      <trkpt lat="52.338937008753419" lon="7.956972029060125">
        <ele>61.234375</ele>
        <time>2025-10-08T11:32:25Z</time>
      </trkpt>
      <trkpt lat="52.338733999058604" lon="7.956829033792019">
        <ele>60.95703125</ele>
        <time>2025-10-08T11:32:29Z</time>
      </trkpt>
      <trkpt lat="52.338525038212538" lon="7.956691989675164">
        <ele>59.9140625</ele>
        <time>2025-10-08T11:32:33Z</time>
      </trkpt>
      <trkpt lat="52.338292021304369" lon="7.956590987741947">
        <ele>58.8125</ele>
        <time>2025-10-08T11:32:37Z</time>
      </trkpt>
      <trkpt lat="52.338070990517735" lon="7.956419996917248">
        <ele>58.0703125</ele>
        <time>2025-10-08T11:32:41Z</time>
      </trkpt>
      <trkpt lat="52.337879966944456" lon="7.956218998879194">
        <ele>58.4765625</ele>
        <time>2025-10-08T11:32:45Z</time>
      </trkpt>
      <trkpt lat="52.337677963078022" lon="7.955985981971026">
        <ele>59.0390625</ele>
        <time>2025-10-08T11:32:49Z</time>
      </trkpt>
      <trkpt lat="52.337501021102071" lon="7.955765035003424">
        <ele>59.00390625</ele>
        <time>2025-10-08T11:32:53Z</time>
      </trkpt>
      <trkpt lat="52.337348973378539" lon="7.95552003197372">
        <ele>58.7578125</ele>
        <time>2025-10-08T11:32:57Z</time>
      </trkpt>
      <trkpt lat="52.337181000038981" lon="7.955331020057201">
        <ele>58.63671875</ele>
        <time>2025-10-08T11:33:01Z</time>
      </trkpt>
      <trkpt lat="52.336982013657689" lon="7.95537100173533">
        <ele>59.140625</ele>
        <time>2025-10-08T11:33:05Z</time>
      </trkpt>
      <trkpt lat="52.336773974820971" lon="7.95552296563983">
        <ele>59.828125</ele>
        <time>2025-10-08T11:33:09Z</time>
      </trkpt>
      <trkpt lat="52.33655403368175" lon="7.955665038898587">
        <ele>60.43359375</ele>
        <time>2025-10-08T11:33:13Z</time>
      </trkpt>
      <trkpt lat="52.336336020380259" lon="7.955810967832804">
        <ele>61.078125</ele>
        <time>2025-10-08T11:33:17Z</time>
      </trkpt>
      <trkpt lat="52.336132004857063" lon="7.955966033041477">
        <ele>61.73828125</ele>
        <time>2025-10-08T11:33:21Z</time>
      </trkpt>
      <trkpt lat="52.335926983505487" lon="7.95612595975399">
        <ele>61.69921875</ele>
        <time>2025-10-08T11:33:25Z</time>
      </trkpt>
      <trkpt lat="52.335698995739222" lon="7.956308014690876">
        <ele>61.32421875</ele>
        <time>2025-10-08T11:33:29Z</time>
      </trkpt>
      <trkpt lat="52.33550202101469" lon="7.956545976921916">
        <ele>59.78125</ele>
        <time>2025-10-08T11:33:33Z</time>
      </trkpt>
      <trkpt lat="52.335303034633398" lon="7.956680003553629">
        <ele>58.3671875</ele>
        <time>2025-10-08T11:33:37Z</time>
      </trkpt>
      <trkpt lat="52.335047973319888" lon="7.95659501105547">
        <ele>57.49609375</ele>
        <time>2025-10-08T11:33:41Z</time>
      </trkpt>
      <trkpt lat="52.334838006645441" lon="7.956352019682527">
        <ele>56.890625</ele>
        <time>2025-10-08T11:33:45Z</time>
      </trkpt>
      <trkpt lat="52.334650000557303" lon="7.95607902109623">
        <ele>56.30078125</ele>
        <time>2025-10-08T11:33:49Z</time>
      </trkpt>
      <trkpt lat="52.334414971992373" lon="7.955892020836473">
        <ele>55.12109375</ele>
        <time>2025-10-08T11:33:53Z</time>
      </trkpt>
      <trkpt lat="52.33419100753963" lon="7.956006014719605">
        <ele>54.18359375</ele>
        <time>2025-10-08T11:33:57Z</time>
      </trkpt>
      <trkpt lat="52.333983974531293" lon="7.956242971122265">
        <ele>53.4609375</ele>
        <time>2025-10-08T11:34:01Z</time>
      </trkpt>
      <trkpt lat="52.33376101590693" lon="7.956503983587027">
        <ele>53.5390625</ele>
        <time>2025-10-08T11:34:05Z</time>
      </trkpt>
      <trkpt lat="52.333552977070212" lon="7.956742029637098">
        <ele>53.86328125</ele>
        <time>2025-10-08T11:34:09Z</time>
      </trkpt>
      <trkpt lat="52.333346027880907" lon="7.956975968554616">
        <ele>54.13671875</ele>
        <time>2025-10-08T11:34:13Z</time>
      </trkpt>
      <trkpt lat="52.333117034286261" lon="7.957143019884825">
        <ele>54.38671875</ele>
        <time>2025-10-08T11:34:17Z</time>
      </trkpt>
      <trkpt lat="52.332885023206472" lon="7.957309987396002">
        <ele>54.58984375</ele>
        <time>2025-10-08T11:34:21Z</time>
      </trkpt>
      <trkpt lat="52.332663992419839" lon="7.957536969333887">
        <ele>54.86328125</ele>
        <time>2025-10-08T11:34:25Z</time>
      </trkpt>
      <trkpt lat="52.332460982725024" lon="7.957808040082455">
        <ele>55.10546875</ele>
        <time>2025-10-08T11:34:29Z</time>
      </trkpt>
      <trkpt lat="52.332274988293648" lon="7.958094030618668">
        <ele>55.515625</ele>
        <time>2025-10-08T11:34:33Z</time>
      </trkpt>
      <trkpt lat="52.332100979983807" lon="7.958348002284765">
        <ele>55.40234375</ele>
        <time>2025-10-08T11:34:37Z</time>
      </trkpt>
      <trkpt lat="52.331895036622882" lon="7.958586970344186">
        <ele>54.8828125</ele>
        <time>2025-10-08T11:34:41Z</time>
      </trkpt>
      <trkpt lat="52.331680962815881" lon="7.958830967545509">
        <ele>54.02734375</ele>
        <time>2025-10-08T11:34:45Z</time>
      </trkpt>
      <trkpt lat="52.331453980877995" lon="7.959057027474046">
        <ele>53.3203125</ele>
        <time>2025-10-08T11:34:49Z</time>
      </trkpt>
      <trkpt lat="52.331215012818575" lon="7.959277974441648">
        <ele>52.765625</ele>
        <time>2025-10-08T11:34:53Z</time>
      </trkpt>
      <trkpt lat="52.330987025052309" lon="7.959495987743139">
        <ele>52.23046875</ele>
        <time>2025-10-08T11:34:57Z</time>
      </trkpt>
      <trkpt lat="52.33077303506434" lon="7.959727998822928">
        <ele>51.6953125</ele>
        <time>2025-10-08T11:35:01Z</time>
      </trkpt>
      <trkpt lat="52.330572959035635" lon="7.959959004074335">
        <ele>51.37109375</ele>
        <time>2025-10-08T11:35:05Z</time>
      </trkpt>
      <trkpt lat="52.330373972654343" lon="7.960204007104039">
        <ele>52.07421875</ele>
        <time>2025-10-08T11:35:09Z</time>
      </trkpt>
      <trkpt lat="52.330169035121799" lon="7.96044004149735">
        <ele>53.44140625</ele>
        <time>2025-10-08T11:35:13Z</time>
      </trkpt>
      <trkpt lat="52.329997960478067" lon="7.960705999284983">
        <ele>54.41015625</ele>
        <time>2025-10-08T11:35:17Z</time>
      </trkpt>
      <trkpt lat="52.329869968816638" lon="7.961005987599492">
        <ele>55.1171875</ele>
        <time>2025-10-08T11:35:21Z</time>
      </trkpt>
      <trkpt lat="52.329728985205293" lon="7.961271023377776">
        <ele>56.46875</ele>
        <time>2025-10-08T11:35:25Z</time>
      </trkpt>
      <trkpt lat="52.32957199215889" lon="7.961493982002139">
        <ele>57.65234375</ele>
        <time>2025-10-08T11:35:29Z</time>
      </trkpt>
      <trkpt lat="52.329462021589279" lon="7.96177301555872">
        <ele>58.8359375</ele>
        <time>2025-10-08T11:35:33Z</time>
      </trkpt>
      <trkpt lat="52.329282984137535" lon="7.96196797862649">
        <ele>60.0625</ele>
        <time>2025-10-08T11:35:37Z</time>
      </trkpt>
      <trkpt lat="52.329094978049397" lon="7.96216000802815">
        <ele>61.2109375</ele>
        <time>2025-10-08T11:35:41Z</time>
      </trkpt>
      <trkpt lat="52.328903032466769" lon="7.962352959439158">
        <ele>62.15234375</ele>
        <time>2025-10-08T11:35:45Z</time>
      </trkpt>
      <trkpt lat="52.32871301472187" lon="7.962562004104257">
        <ele>62.97265625</ele>
        <time>2025-10-08T11:35:49Z</time>
      </trkpt>
      <trkpt lat="52.328530959784985" lon="7.962803989648819">
        <ele>63.1796875</ele>
        <time>2025-10-08T11:35:53Z</time>
      </trkpt>
      <trkpt lat="52.328450996428728" lon="7.963211014866829">
        <ele>63.4765625</ele>
        <time>2025-10-08T11:35:57Z</time>
      </trkpt>
      <trkpt lat="52.32847698032856" lon="7.963602030649781">
        <ele>63.71875</ele>
        <time>2025-10-08T11:36:01Z</time>
      </trkpt>
      <trkpt lat="52.328532971441746" lon="7.963989023119211">
        <ele>63.390625</ele>
        <time>2025-10-08T11:36:05Z</time>
      </trkpt>
      <trkpt lat="52.328597009181976" lon="7.964391019195318">
        <ele>62.86328125</ele>
        <time>2025-10-08T11:36:09Z</time>
      </trkpt>
      <trkpt lat="52.328666998073459" lon="7.964796032756567">
        <ele>61.3984375</ele>
        <time>2025-10-08T11:36:13Z</time>
      </trkpt>
      <trkpt lat="52.328716032207012" lon="7.965154023841023">
        <ele>59.98828125</ele>
        <time>2025-10-08T11:36:17Z</time>
      </trkpt>
      <trkpt lat="52.328761965036392" lon="7.965551996603608">
        <ele>59.40234375</ele>
        <time>2025-10-08T11:36:21Z</time>
      </trkpt>
      <trkpt lat="52.328814016655087" lon="7.965968996286392">
        <ele>58.8515625</ele>
        <time>2025-10-08T11:36:25Z</time>
      </trkpt>
      <trkpt lat="52.328847963362932" lon="7.966354982927442">
        <ele>58.87890625</ele>
        <time>2025-10-08T11:36:29Z</time>
      </trkpt>
      <trkpt lat="52.328917030245066" lon="7.966714985668659">
        <ele>58.9609375</ele>
        <time>2025-10-08T11:36:33Z</time>
      </trkpt>
      <trkpt lat="52.329027000814676" lon="7.967046992853284">
        <ele>59.2421875</ele>
        <time>2025-10-08T11:36:37Z</time>
      </trkpt>
      <trkpt lat="52.329134037718177" lon="7.967331977561116">
        <ele>59.6796875</ele>
        <time>2025-10-08T11:36:41Z</time>
      </trkpt>
      <trkpt lat="52.32922900468111" lon="7.96759600751102">
        <ele>60.234375</ele>
        <time>2025-10-08T11:36:45Z</time>
      </trkpt>
      <trkpt lat="52.329126996919513" lon="7.967832963913679">
        <ele>61.01953125</ele>
        <time>2025-10-08T11:36:51Z</time>
      </trkpt>
      <trkpt lat="52.328900014981627" lon="7.967848973348737">
        <ele>60.9921875</ele>
        <time>2025-10-08T11:36:56Z</time>
      </trkpt>
      <trkpt lat="52.328703962266445" lon="7.967860959470272">
        <ele>61.11328125</ele>
        <time>2025-10-08T11:37:00Z</time>
      </trkpt>
      <trkpt lat="52.328501036390662" lon="7.967861965298653">
        <ele>61.1796875</ele>
        <time>2025-10-08T11:37:04Z</time>
      </trkpt>
      <trkpt lat="52.328291991725564" lon="7.967886021360755">
        <ele>61.3828125</ele>
        <time>2025-10-08T11:37:08Z</time>
      </trkpt>
      <trkpt lat="52.328062998130918" lon="7.967916028574109">
        <ele>61.58203125</ele>
        <time>2025-10-08T11:37:12Z</time>
      </trkpt>
      <trkpt lat="52.327832998707891" lon="7.967950981110334">
        <ele>61.5859375</ele>
        <time>2025-10-08T11:37:16Z</time>
      </trkpt>
      <trkpt lat="52.327608028426766" lon="7.967973025515676">
        <ele>61.484375</ele>
        <time>2025-10-08T11:37:20Z</time>
      </trkpt>
      <trkpt lat="52.327394038438797" lon="7.967993980273604">
        <ele>61.3671875</ele>
        <time>2025-10-08T11:37:24Z</time>
      </trkpt>
      <trkpt lat="52.327185999602079" lon="7.968028010800481">
        <ele>61.61328125</ele>
        <time>2025-10-08T11:37:28Z</time>
      </trkpt>
      <trkpt lat="52.326987013220787" lon="7.968095988035202">
        <ele>62.3359375</ele>
        <time>2025-10-08T11:37:32Z</time>
      </trkpt>
      <trkpt lat="52.32680001296103" lon="7.968173017725349">
        <ele>63.0625</ele>
        <time>2025-10-08T11:37:36Z</time>
      </trkpt>
      <trkpt lat="52.32658501714468" lon="7.968306038528681">
        <ele>64.05859375</ele>
        <time>2025-10-08T11:37:41Z</time>
      </trkpt>
      <trkpt lat="52.3264130204916" lon="7.968425983563066">
        <ele>64.95703125</ele>
        <time>2025-10-08T11:37:45Z</time>
      </trkpt>
      <trkpt lat="52.326244963333011" lon="7.968548024073243">
        <ele>65.57421875</ele>
        <time>2025-10-08T11:37:49Z</time>
      </trkpt>
      <trkpt lat="52.326061986386776" lon="7.96865195967257">
        <ele>65.984375</ele>
        <time>2025-10-08T11:37:53Z</time>
      </trkpt>
      <trkpt lat="52.325816983357072" lon="7.96882102265954">
        <ele>66.4609375</ele>
        <time>2025-10-08T11:37:59Z</time>
      </trkpt>
      <trkpt lat="52.325609028339386" lon="7.968964017927647">
        <ele>66.87890625</ele>
        <time>2025-10-08T11:38:04Z</time>
      </trkpt>
      <trkpt lat="52.325429990887642" lon="7.969070971012116">
        <ele>67.48046875</ele>
        <time>2025-10-08T11:38:08Z</time>
      </trkpt>
      <trkpt lat="52.325250031426549" lon="7.96918798238039">
        <ele>68.06640625</ele>
        <time>2025-10-08T11:38:12Z</time>
      </trkpt>
      <trkpt lat="52.325037969276309" lon="7.969325026497245">
        <ele>68.7890625</ele>
        <time>2025-10-08T11:38:17Z</time>
      </trkpt>
      <trkpt lat="52.324849963188171" lon="7.96944203786552">
        <ele>69.69140625</ele>
        <time>2025-10-08T11:38:21Z</time>
      </trkpt>
      <trkpt lat="52.324643013998866" lon="7.969570029526949">
        <ele>70.21484375</ele>
        <time>2025-10-08T11:38:25Z</time>
      </trkpt>
      <trkpt lat="52.324419971555471" lon="7.969711013138294">
        <ele>70.84375</ele>
        <time>2025-10-08T11:38:29Z</time>
      </trkpt>
      <trkpt lat="52.324187960475683" lon="7.969879992306233">
        <ele>71.9609375</ele>
        <time>2025-10-08T11:38:33Z</time>
      </trkpt>
      <trkpt lat="52.323945974931121" lon="7.970027010887861">
        <ele>73.390625</ele>
        <time>2025-10-08T11:38:37Z</time>
      </trkpt>
      <trkpt lat="52.323696026578546" lon="7.970190038904548">
        <ele>72.4140625</ele>
        <time>2025-10-08T11:38:41Z</time>
      </trkpt>
      <trkpt lat="52.323417998850346" lon="7.970380978658795">
        <ele>71.125</ele>
        <time>2025-10-08T11:38:45Z</time>
      </trkpt>
      <trkpt lat="52.323129996657372" lon="7.970612989738584">
        <ele>69.2265625</ele>
        <time>2025-10-08T11:38:49Z</time>
      </trkpt>
      <trkpt lat="52.32282699085772" lon="7.970808958634734">
        <ele>67.13671875</ele>
        <time>2025-10-08T11:38:53Z</time>
      </trkpt>
      <trkpt lat="52.322500012814999" lon="7.970932004973292">
        <ele>64.68359375</ele>
        <time>2025-10-08T11:38:57Z</time>
      </trkpt>
      <trkpt lat="52.322163982316852" lon="7.971025966107845">
        <ele>62.66796875</ele>
        <time>2025-10-08T11:39:01Z</time>
      </trkpt>
      <trkpt lat="52.321818983182311" lon="7.971095032989979">
        <ele>61.51953125</ele>
        <time>2025-10-08T11:39:05Z</time>
      </trkpt>
      <trkpt lat="52.321487981826067" lon="7.971174996346235">
        <ele>60.37109375</ele>
        <time>2025-10-08T11:39:09Z</time>
      </trkpt>
      <trkpt lat="52.321167960762978" lon="7.971312962472439">
        <ele>59.85546875</ele>
        <time>2025-10-08T11:39:13Z</time>
      </trkpt>
      <trkpt lat="52.320904014632106" lon="7.971541034057736">
        <ele>59.8046875</ele>
        <time>2025-10-08T11:39:17Z</time>
      </trkpt>
      <trkpt lat="52.320767976343632" lon="7.971905982121825">
        <ele>60.29296875</ele>
        <time>2025-10-08T11:39:21Z</time>
      </trkpt>
      <trkpt lat="52.320668986067176" lon="7.972245030105114">
        <ele>60.578125</ele>
        <time>2025-10-08T11:39:25Z</time>
      </trkpt>
      <trkpt lat="52.320553986355662" lon="7.972586005926132">
        <ele>60.84765625</ele>
        <time>2025-10-08T11:39:29Z</time>
      </trkpt>
      <trkpt lat="52.320435969159007" lon="7.972902003675699">
        <ele>60.91796875</ele>
        <time>2025-10-08T11:39:33Z</time>
      </trkpt>
      <trkpt lat="52.320304960012436" lon="7.973199980333448">
        <ele>61.12890625</ele>
        <time>2025-10-08T11:39:37Z</time>
      </trkpt>
      <trkpt lat="52.320172023028135" lon="7.973465016111732">
        <ele>61.52734375</ele>
        <time>2025-10-08T11:39:41Z</time>
      </trkpt>
      <trkpt lat="52.320042019709945" lon="7.973690992221236">
        <ele>61.6953125</ele>
        <time>2025-10-08T11:39:45Z</time>
      </trkpt>
      <trkpt lat="52.31990497559309" lon="7.973967008292675">
        <ele>61.859375</ele>
        <time>2025-10-08T11:39:50Z</time>
      </trkpt>
      <trkpt lat="52.319747982546687" lon="7.974207988008857">
        <ele>62.09765625</ele>
        <time>2025-10-08T11:39:55Z</time>
      </trkpt>
      <trkpt lat="52.319548996165395" lon="7.974460031837225">
        <ele>62.5234375</ele>
        <time>2025-10-08T11:40:00Z</time>
      </trkpt>
      <trkpt lat="52.319342968985438" lon="7.974657006561756">
        <ele>62.84765625</ele>
        <time>2025-10-08T11:40:04Z</time>
      </trkpt>
      <trkpt lat="52.319120010361075" lon="7.974802013486624">
        <ele>63.12890625</ele>
        <time>2025-10-08T11:40:08Z</time>
      </trkpt>
      <trkpt lat="52.3188959620893" lon="7.974950959905982">
        <ele>63.2109375</ele>
        <time>2025-10-08T11:40:12Z</time>
      </trkpt>
      <trkpt lat="52.318664034828544" lon="7.975065959617496">
        <ele>63.05859375</ele>
        <time>2025-10-08T11:40:16Z</time>
      </trkpt>
      <trkpt lat="52.318429006263614" lon="7.975183976814151">
        <ele>63.046875</ele>
        <time>2025-10-08T11:40:20Z</time>
      </trkpt>
      <trkpt lat="52.31818500906229" lon="7.975290007889271">
        <ele>63.31640625</ele>
        <time>2025-10-08T11:40:24Z</time>
      </trkpt>
      <trkpt lat="52.317943023517728" lon="7.975402995944023">
        <ele>63.7109375</ele>
        <time>2025-10-08T11:40:28Z</time>
      </trkpt>
      <trkpt lat="52.317697014659643" lon="7.975512966513634">
        <ele>63.94921875</ele>
        <time>2025-10-08T11:40:32Z</time>
      </trkpt>
      <trkpt lat="52.317452011629939" lon="7.975613968446851">
        <ele>64.02734375</ele>
        <time>2025-10-08T11:40:36Z</time>
      </trkpt>
      <trkpt lat="52.317214971408248" lon="7.975764004513621">
        <ele>63.796875</ele>
        <time>2025-10-08T11:40:40Z</time>
      </trkpt>
      <trkpt lat="52.317001987248659" lon="7.976003978401423">
        <ele>63.30859375</ele>
        <time>2025-10-08T11:40:44Z</time>
      </trkpt>
      <trkpt lat="52.316810041666031" lon="7.976270020008087">
        <ele>62.84765625</ele>
        <time>2025-10-08T11:40:48Z</time>
      </trkpt>
      <trkpt lat="52.316648019477725" lon="7.976544024422765">
        <ele>62.45703125</ele>
        <time>2025-10-08T11:40:52Z</time>
      </trkpt>
      <trkpt lat="52.316527990624309" lon="7.976901009678841">
        <ele>62.37890625</ele>
        <time>2025-10-08T11:40:56Z</time>
      </trkpt>
      <trkpt lat="52.31642497703433" lon="7.977248020470142">
        <ele>63.0625</ele>
        <time>2025-10-08T11:41:00Z</time>
      </trkpt>
      <trkpt lat="52.31629597954452" lon="7.977568963542581">
        <ele>63.9921875</ele>
        <time>2025-10-08T11:41:04Z</time>
      </trkpt>
      <trkpt lat="52.316160025075078" lon="7.977865012362599">
        <ele>65.4609375</ele>
        <time>2025-10-08T11:41:08Z</time>
      </trkpt>
      <trkpt lat="52.31599498540163" lon="7.978139016777277">
        <ele>67.35546875</ele>
        <time>2025-10-08T11:41:12Z</time>
      </trkpt>
      <trkpt lat="52.315817959606647" lon="7.978377984836698">
        <ele>69.47265625</ele>
        <time>2025-10-08T11:41:16Z</time>
      </trkpt>
      <trkpt lat="52.315638000145555" lon="7.978588035330176">
        <ele>71.6328125</ele>
        <time>2025-10-08T11:41:20Z</time>
      </trkpt>
      <trkpt lat="52.315483018755913" lon="7.978827003389597">
        <ele>73.203125</ele>
        <time>2025-10-08T11:41:24Z</time>
      </trkpt>
      <trkpt lat="52.315358966588974" lon="7.9791359603405">
        <ele>75.23828125</ele>
        <time>2025-10-08T11:41:28Z</time>
      </trkpt>
      <trkpt lat="52.315213037654757" lon="7.979437038302422">
        <ele>76.65625</ele>
        <time>2025-10-08T11:41:32Z</time>
      </trkpt>
      <trkpt lat="52.315065013244748" lon="7.979737026616931">
        <ele>76.8359375</ele>
        <time>2025-10-08T11:41:36Z</time>
      </trkpt>
      <trkpt lat="52.314948001876473" lon="7.980031985789537">
        <ele>76.59375</ele>
        <time>2025-10-08T11:41:40Z</time>
      </trkpt>
      <trkpt lat="52.314809029921889" lon="7.980299033224583">
        <ele>75.5234375</ele>
        <time>2025-10-08T11:41:44Z</time>
      </trkpt>
      <trkpt lat="52.314668968319893" lon="7.980582006275654">
        <ele>73.22265625</ele>
        <time>2025-10-08T11:41:48Z</time>
      </trkpt>
      <trkpt lat="52.314528990536928" lon="7.980885012075305">
        <ele>70.78515625</ele>
        <time>2025-10-08T11:41:52Z</time>
      </trkpt>
      <trkpt lat="52.314392030239105" lon="7.981200003996491">
        <ele>69.85546875</ele>
        <time>2025-10-08T11:41:56Z</time>
      </trkpt>
      <trkpt lat="52.314252974465489" lon="7.98149798065424">
        <ele>69.31640625</ele>
        <time>2025-10-08T11:42:00Z</time>
      </trkpt>
      <trkpt lat="52.314121965318918" lon="7.981791011989117">
        <ele>68.73046875</ele>
        <time>2025-10-08T11:42:04Z</time>
      </trkpt>
      <trkpt lat="52.313990034162998" lon="7.982098963111639">
        <ele>69.15234375</ele>
        <time>2025-10-08T11:42:08Z</time>
      </trkpt>
      <trkpt lat="52.313843015581369" lon="7.982408003881574">
        <ele>69.80859375</ele>
        <time>2025-10-08T11:42:12Z</time>
      </trkpt>
      <trkpt lat="52.313711000606418" lon="7.982705980539322">
        <ele>70.51171875</ele>
        <time>2025-10-08T11:42:16Z</time>
      </trkpt>
      <trkpt lat="52.313574040308595" lon="7.98302298411727">
        <ele>71.8359375</ele>
        <time>2025-10-08T11:42:20Z</time>
      </trkpt>
      <trkpt lat="52.313455017283559" lon="7.983355997130275">
        <ele>73.109375</ele>
        <time>2025-10-08T11:42:24Z</time>
      </trkpt>
      <trkpt lat="52.313344962894917" lon="7.983714994043112">
        <ele>74.10546875</ele>
        <time>2025-10-08T11:42:28Z</time>
      </trkpt>
      <trkpt lat="52.313246978446841" lon="7.9840989690274">
        <ele>75.234375</ele>
        <time>2025-10-08T11:42:32Z</time>
      </trkpt>
      <trkpt lat="52.31313600204885" lon="7.984500965103507">
        <ele>75.36328125</ele>
        <time>2025-10-08T11:42:36Z</time>
      </trkpt>
      <trkpt lat="52.313031982630491" lon="7.984911007806659">
        <ele>74.31640625</ele>
        <time>2025-10-08T11:42:40Z</time>
      </trkpt>
      <trkpt lat="52.312923017889261" lon="7.985325995832682">
        <ele>73.4765625</ele>
        <time>2025-10-08T11:42:44Z</time>
      </trkpt>
      <trkpt lat="52.312838025391102" lon="7.985780965536833">
        <ele>73.1328125</ele>
        <time>2025-10-08T11:42:48Z</time>
      </trkpt>
      <trkpt lat="52.312808018177748" lon="7.986300978809595">
        <ele>72.63671875</ele>
        <time>2025-10-08T11:42:52Z</time>
      </trkpt>
      <trkpt lat="52.312834002077579" lon="7.986844964325428">
        <ele>72.234375</ele>
        <time>2025-10-08T11:42:56Z</time>
      </trkpt>
      <trkpt lat="52.312935004010797" lon="7.987376041710377">
        <ele>70.8203125</ele>
        <time>2025-10-08T11:43:00Z</time>
      </trkpt>
      <trkpt lat="52.313032988458872" lon="7.987820031121373">
        <ele>68.546875</ele>
        <time>2025-10-08T11:43:04Z</time>
      </trkpt>
      <trkpt lat="52.313134996220469" lon="7.988268965855241">
        <ele>64.94140625</ele>
        <time>2025-10-08T11:43:08Z</time>
      </trkpt>
      <trkpt lat="52.313173972070217" lon="7.988712033256888">
        <ele>62.34375</ele>
        <time>2025-10-08T11:43:12Z</time>
      </trkpt>
      <trkpt lat="52.31320196762681" lon="7.989135989919305">
        <ele>60.953125</ele>
        <time>2025-10-08T11:43:16Z</time>
      </trkpt>
      <trkpt lat="52.313231974840164" lon="7.989584002643824">
        <ele>61.10546875</ele>
        <time>2025-10-08T11:43:20Z</time>
      </trkpt>
      <trkpt lat="52.313283020630479" lon="7.990011982619762">
        <ele>62.14453125</ele>
        <time>2025-10-08T11:43:24Z</time>
      </trkpt>
      <trkpt lat="52.313344962894917" lon="7.990445997565985">
        <ele>62.52734375</ele>
        <time>2025-10-08T11:43:28Z</time>
      </trkpt>
      <trkpt lat="52.313405983150005" lon="7.990888981148601">
        <ele>62.671875</ele>
        <time>2025-10-08T11:43:32Z</time>
      </trkpt>
      <trkpt lat="52.313464991748333" lon="7.991320984438062">
        <ele>63.2421875</ele>
        <time>2025-10-08T11:43:36Z</time>
      </trkpt>
      <trkpt lat="52.313516959547997" lon="7.991753993555903">
        <ele>63.88671875</ele>
        <time>2025-10-08T11:43:40Z</time>
      </trkpt>
      <trkpt lat="52.313551995903254" lon="7.992199994623661">
        <ele>64.515625</ele>
        <time>2025-10-08T11:43:44Z</time>
      </trkpt>
      <trkpt lat="52.313550990074873" lon="7.992635015398264">
        <ele>65.05078125</ele>
        <time>2025-10-08T11:43:48Z</time>
      </trkpt>
      <trkpt lat="52.313530035316944" lon="7.993060983717442">
        <ele>65.69140625</ele>
        <time>2025-10-08T11:43:52Z</time>
      </trkpt>
      <trkpt lat="52.313496004790068" lon="7.993461973965168">
        <ele>66.109375</ele>
        <time>2025-10-08T11:43:56Z</time>
      </trkpt>
      <trkpt lat="52.313455017283559" lon="7.993890037760139">
        <ele>67.3984375</ele>
        <time>2025-10-08T11:44:00Z</time>
      </trkpt>
      <trkpt lat="52.313388967886567" lon="7.994267977774143">
        <ele>68.05859375</ele>
        <time>2025-10-08T11:44:04Z</time>
      </trkpt>
      <trkpt lat="52.313296012580395" lon="7.994652958586812">
        <ele>66.8671875</ele>
        <time>2025-10-08T11:44:08Z</time>
      </trkpt>
      <trkpt lat="52.313214037567377" lon="7.995041962713003">
        <ele>65.8671875</ele>
        <time>2025-10-08T11:44:12Z</time>
      </trkpt>
      <trkpt lat="52.31311303563416" lon="7.995400037616491">
        <ele>65.90625</ele>
        <time>2025-10-08T11:44:16Z</time>
      </trkpt>
      <trkpt lat="52.313038017600775" lon="7.995775965973735">
        <ele>66.88671875</ele>
        <time>2025-10-08T11:44:20Z</time>
      </trkpt>
      <trkpt lat="52.312953025102615" lon="7.996140997856855">
        <ele>69.36328125</ele>
        <time>2025-10-08T11:44:24Z</time>
      </trkpt>
      <trkpt lat="52.312829978764057" lon="7.996464958414435">
        <ele>72.3671875</ele>
        <time>2025-10-08T11:44:28Z</time>
      </trkpt>
      <trkpt lat="52.31268497183919" lon="7.996764024719596">
        <ele>74.44140625</ele>
        <time>2025-10-08T11:44:32Z</time>
      </trkpt>
      <trkpt lat="52.312522027641535" lon="7.997044986113906">
        <ele>75.41015625</ele>
        <time>2025-10-08T11:44:36Z</time>
      </trkpt>
      <trkpt lat="52.312357993796468" lon="7.997323013842106">
        <ele>77.0390625</ele>
        <time>2025-10-08T11:44:40Z</time>
      </trkpt>
      <trkpt lat="52.312179962173104" lon="7.997569022700191">
        <ele>77.390625</ele>
        <time>2025-10-08T11:44:44Z</time>
      </trkpt>
      <trkpt lat="52.312009977176785" lon="7.997811008244753">
        <ele>75.41015625</ele>
        <time>2025-10-08T11:44:48Z</time>
      </trkpt>
      <trkpt lat="52.311814008280635" lon="7.998058022931218">
        <ele>72.32421875</ele>
        <time>2025-10-08T11:44:52Z</time>
      </trkpt>
      <trkpt lat="52.311548972502351" lon="7.998074032366276">
        <ele>67.24609375</ele>
        <time>2025-10-08T11:44:56Z</time>
      </trkpt>
      <trkpt lat="52.311275973916054" lon="7.997960038483143">
        <ele>65</ele>
        <time>2025-10-08T11:45:00Z</time>
      </trkpt>
      <trkpt lat="52.311011021956801" lon="7.997855013236404">
        <ele>64.4375</ele>
        <time>2025-10-08T11:45:04Z</time>
      </trkpt>
      <trkpt lat="52.310764007270336" lon="7.997744958847761">
        <ele>64.0703125</ele>
        <time>2025-10-08T11:45:08Z</time>
      </trkpt>
      <trkpt lat="52.310663005337119" lon="7.997700031846762">
        <ele>63.9609375</ele>
        <time>2025-10-08T11:45:10Z</time>
      </trkpt>
    </trkseg>
  </trk>

</gpx>